[[{"header":{"parameterUnit":"m.s-1","parameterCategory":1,"la1":30.6,"la2":29.2853,"lo1":-89.7004,"lo2":-87.6739,"dy":0.0162,"dx":0.0183,"nx":112,"ny":82,"refTime":"2023-07-11T12:00:00:Z","depth":0,"parameterNumber":2,"parameterNumberName":"U-component_of_WINDS"},"data":[0.0,0.0,0.0,0.0,0.0,0.0,0.0,0.0,0.0,0.0,0.0,0.0,0.0,0.0,0.0,0.0,0.0,0.0,0.0,0.0,0.0,0.0,0.0,0.0,0.0,0.0,0.0,0.0,0.0,0.0,0.0,0.0,0.0,0.0,0.0,0.0,0.0,0.0,0.0,0.0,0.0,0.0,0.0,0.0,0.0,0.0,0.0,0.0,0.0,0.0,0.0,0.0,0.0,0.0,0.0,0.0,0.0,0.0,0.0,0.0,0.0,0.0,0.0,0.0,0.0,0.0,0.0,0.0,0.0,0.0,0.0,0.0,0.0,0.0,0.0,0.0,0.0,0.0,0.0,0.0,0.0,0.0,0.0,0.0,0.0,0.0,0.0,0.0,0.0,0.0,-0.8041,-0.781,-0.5966,-0.4738,-0.4685,-0.5222,-0.5697,-0.5994,0.0,0.0,0.0,0.0,0.0,0.0,0.0,0.0,0.0,0.0,0.0,0.0,0.0,0.0,0.0,0.0,0.0,0.0,0.0,0.0,0.0,0.0,0.0,0.0,0.0,0.0,0.0,0.0,0.0,0.0,0.0,0.0,0.0,0.0,0.0,0.0,0.0,0.0,0.0,0.0,0.0,0.0,0.0,0.0,0.0,0.0,0.0,0.0,0.0,0.0,0.0,0.0,0.0,0.0,0.0,0.0,0.0,0.0,0.0,0.0,0.0,0.0,0.0,0.0,0.0,0.0,0.0,0.0,0.0,0.0,0.0,0.0,0.0,0.0,0.0,0.0,0.0,0.0,0.0,0.0,0.0,0.0,0.0,0.0,0.0,0.0,0.0,0.0,0.0,0.0,0.0,0.0,0.0,0.0,0.0,0.0,0.0,0.0,0.0,0.0,0.0,0.0,0.0,0.0,-0.5662,-0.4689,-0.4461,-0.4465,-0.47,-0.4862,-0.5262,-0.6038,0.0,0.0,0.0,0.0,0.0,0.0,0.0,0.0,0.0,0.0,0.0,0.0,0.0,0.0,0.0,0.0,0.0,0.0,0.0,0.0,0.0,0.0,0.0,0.0,0.0,0.0,0.0,0.0,0.0,0.0,0.0,0.0,0.0,0.0,0.0,0.0,0.0,0.0,0.0,0.0,0.0,0.0,0.0,0.0,0.0,0.0,0.0,0.0,0.0,0.0,0.0,0.0,0.0,0.0,0.0,0.0,0.0,0.0,0.0,0.0,0.0,0.0,0.0,0.0,0.0,0.0,0.0,0.0,0.0,0.0,0.0,0.0,0.0,0.0,0.0,0.0,0.0,0.0,0.0,0.0,0.0,0.0,0.0,0.0,0.0,0.0,0.0,0.0,0.0,0.0,0.0,0.0,0.0,0.0,0.0,0.0,0.0,0.0,0.0,0.0,0.0,0.0,0.0,-0.4742,-0.4713,-0.3958,-0.3928,-0.4275,-0.4946,-0.4951,-0.5402,-0.6573,-0.4973,0.0,0.0,0.0,0.0,0.0,0.0,0.0,0.0,0.0,0.0,0.0,0.0,0.0,0.0,0.0,0.0,0.0,0.0,0.0,0.0,0.0,0.0,0.0,0.0,0.0,0.0,0.0,0.0,0.0,0.0,0.0,0.0,0.0,0.0,0.0,0.0,0.0,0.0,0.0,0.0,0.0,0.0,0.0,0.0,0.0,0.0,0.0,0.0,0.0,0.0,0.0,0.0,0.0,0.0,0.0,0.0,0.0,0.0,0.0,0.0,0.0,0.0,0.0,0.0,0.0,0.0,0.0,0.0,0.0,0.0,0.0,0.0,0.0,0.0,0.0,0.0,0.0,0.0,0.0,0.0,0.0,0.0,0.0,0.0,0.0,0.0,0.0,0.0,0.0,0.0,0.0,0.0,0.0,0.0,0.0,0.0,0.0,0.0,0.0,0.0,0.0,0.0,-0.3617,-0.4001,-0.3507,-0.3608,-0.4132,-0.5,-0.5053,-0.5316,-0.611,-0.3565,0.0,0.0,0.0,0.0,0.0,0.0,0.0,0.0,0.0,0.0,0.0,0.0,0.0,0.0,0.0,0.0,0.0,0.0,0.0,0.0,0.0,0.0,0.0,0.0,0.0,0.0,0.0,0.0,0.0,0.0,0.0,0.0,0.0,0.0,0.0,0.0,0.0,0.0,0.0,0.0,0.0,0.0,0.0,0.0,0.0,0.0,0.0,0.0,0.0,0.0,0.0,0.0,0.0,0.0,0.0,0.0,0.0,0.0,0.0,0.0,0.0,0.0,0.0,0.0,0.0,0.0,0.0,0.0,0.0,0.0,0.0,0.0,0.0,0.0,0.0,0.0,0.0,0.0,0.0,0.0,0.0,0.0,0.0,0.0,0.0,0.0,0.0,0.0,0.0,0.0,0.0,0.0,0.0,0.0,0.0,0.0,0.0,0.0,0.0,0.0,0.0,0.0,-0.2186,-0.3044,-0.2135,-0.3146,-0.4037,-0.443,-0.481,-0.4554,-0.3447,-0.0645,0.0,0.0,0.0,0.0,0.0,0.0,0.0,0.0,0.0,0.0,0.0,0.0,0.0,0.0,0.0,0.0,0.0,0.0,0.0,0.0,0.0,0.0,0.0,0.0,0.0,0.0,0.0,0.0,0.0,0.0,0.0,0.0,0.0,0.0,0.0,0.0,0.0,0.0,0.0,0.0,0.0,0.0,0.0,0.0,0.0,0.0,0.0,0.0,0.0,0.0,0.0,0.0,0.0,0.0,0.0,0.0,0.0,0.0,0.0,0.0,0.0,0.0,0.0,0.0,0.0,0.0,0.0,0.0,0.0,0.0,0.0,0.0,0.0,0.0,0.0,0.0,0.0,0.0,0.0,0.0,0.0,0.0,0.0,0.0,0.0,0.0,0.0,0.0,0.0,0.0,0.0,0.0,0.0,0.0,0.0,0.0,0.0,0.0,0.0,0.0,0.0,0.0,-0.0894,-0.1873,0.0,-0.2887,-0.3701,-0.4184,-0.4416,-0.388,-0.2259,0.0,0.0,0.0,0.0,0.0,0.0,0.0,0.0,0.0,0.0,0.0,0.0,0.0,0.0,0.0,0.0,0.0,0.0,0.0,0.0,0.0,0.0,0.0,0.0,0.0,0.0,0.0,0.0,0.0,0.0,0.0,0.0,0.0,0.0,0.0,0.0,0.0,0.0,0.0,0.0,0.0,0.0,0.0,0.0,0.0,0.0,0.0,0.0,0.0,0.0,0.0,0.0,0.0,0.0,0.0,0.0,0.0,0.0,0.0,0.0,0.0,0.0,0.0,0.0,0.0,0.0,0.0,0.0,0.0,0.0,0.0,0.0,0.0,0.0,0.0,0.0,0.0,0.0,0.0,0.0,0.0,0.0,0.0,0.0,0.0,0.0,0.0,0.0,0.0,0.0,0.0,0.0,0.0,0.0,0.0,0.0,0.0,0.0,0.0,0.0,0.0,0.0,0.1007,-0.0217,-0.1258,0.0,-0.2853,-0.3536,-0.3928,-0.4108,-0.3382,-0.1519,0.0,0.0,0.0,0.0,0.0,0.0,0.0,0.0,0.0,0.0,0.0,0.0,0.0,0.0,0.0,0.0,0.0,0.0,0.0,0.0,0.0,0.0,0.0,0.0,0.0,0.0,0.0,0.0,0.0,0.0,0.0,0.0,0.0,0.0,0.0,0.0,0.0,0.0,0.0,0.0,0.0,0.0,0.0,0.0,0.0,0.0,0.0,0.0,0.0,0.0,0.0,0.0,0.0,0.0,0.0,0.0,0.0,0.0,0.0,0.0,0.0,0.0,0.0,0.0,0.0,0.0,0.0,0.0,0.0,0.0,0.0,0.0,0.0,0.0,0.0,0.0,0.0,0.0,0.0,0.0,0.0,0.0,0.0,0.0,0.0,0.0,0.0,0.0,0.0,0.0,0.0,0.0,0.0,0.0,0.0,0.0,0.0,0.0,0.0,0.0,0.0,0.0,0.1009,-0.0218,-0.1363,-0.2205,-0.3048,-0.3589,-0.3667,-0.3803,-0.3055,0.0,0.0,0.0,0.0,0.0,0.0,0.0,0.0,0.0,0.0,0.0,0.0,0.0,0.0,0.0,0.0,0.0,0.0,0.0,0.0,0.0,0.0,0.0,0.0,0.0,0.0,0.0,0.0,0.0,0.0,0.0,0.0,0.0,0.0,0.0,0.0,0.0,0.0,0.0,0.0,0.0,0.0,0.0,0.0,0.0,0.0,0.0,0.0,0.0,0.0,0.0,0.0,0.0,0.0,0.0,0.0,0.0,0.0,0.0,0.0,0.0,0.0,0.0,0.0,0.0,0.0,0.0,0.0,0.0,0.0,0.0,0.0,0.0,0.0,0.0,0.0,0.0,0.0,0.0,0.0,0.0,0.0,0.0,0.0,0.0,0.0,0.0,0.0,0.0,0.0,0.0,0.0,0.0,0.0,0.0,0.0,0.0,0.0,0.0,0.0,0.0,0.0,0.0,-0.0223,-0.1326,-0.225,-0.3013,-0.4003,-0.431,-0.3537,-0.3473,-0.2826,-0.1249,0.0,0.0,0.0,0.0,0.0,0.0,0.0,0.0,0.0,0.0,0.0,0.0,0.0,0.0,0.0,0.0,0.0,0.0,0.0,0.0,0.0,0.0,0.0,0.0,0.0,0.0,0.0,0.0,0.0,0.0,0.0,0.0,0.0,0.0,0.0,0.0,0.0,0.0,0.0,0.0,0.0,0.0,0.0,0.0,0.0,0.0,0.0,0.0,0.0,0.0,0.0,0.0,0.0,0.0,0.0,0.0,0.0,0.0,0.0,0.0,0.0,0.0,0.0,0.0,0.0,0.0,0.0,0.0,0.0,0.0,0.0,0.0,0.0,0.0,0.0,0.0,0.0,0.0,0.0,0.0,0.0,0.0,0.0,0.0,0.0,0.0,0.0,0.0,0.0,0.0,0.0,0.0,0.0,0.0,0.0,0.0,0.0,0.0,0.0,0.0,0.0,0.0,-0.1826,-0.2569,-0.334,-0.4302,-0.4815,-0.4709,-0.3663,-0.3246,-0.263,-0.1658,0.0,0.0,0.0,0.0,0.0,0.0,0.0,0.0,0.0,0.0,0.0,0.0,0.0,0.0,0.0,0.0,0.0,0.0,0.0,0.0,0.0,0.0,0.0,0.0,0.0,0.0,0.0,0.0,0.0,0.0,0.0,0.0,0.0,0.0,0.0,0.0,0.0,0.0,0.0,0.0,0.0,0.0,0.0,0.0,0.0,0.0,0.0,0.0,0.0,0.0,0.0,0.0,0.0,0.0,0.0,0.0,0.0,0.0,0.0,0.0,0.0,0.0,0.0,0.0,0.0,0.0,0.0,0.0,0.0,0.0,0.0,0.0,0.0,0.0,0.0,0.0,0.0,0.0,0.0,0.0,0.0,0.0,0.0,0.0,0.0,0.0,0.0,0.0,0.0,0.0,0.0,0.0,0.0,0.0,0.0,0.0,0.0,0.0,0.0,0.0,0.0,0.0,-0.4014,-0.4168,-0.4652,-0.5946,-0.5656,-0.4997,-0.4143,-0.3283,-0.266,-0.239,0.0,0.0,0.0,0.0,0.0,0.0,0.0,0.0,0.0,0.0,0.0,0.0,0.0,0.0,0.0,0.0,0.0,0.0,0.0,0.0,0.0,0.0,0.0,0.0,0.0,0.0,0.0,0.0,0.0,0.0,0.0,0.0,0.0,0.0,0.0,0.0,0.0,0.0,0.0,0.0,0.0,0.0,0.0,0.0,0.0,0.0,0.0,0.0,0.0,0.0,0.0,0.0,0.0,0.0,0.0,0.0,0.0,0.0,0.0,0.0,-0.5494,0.0,0.0,0.0,0.0,0.0,0.0,0.0,0.0,0.0,0.0,0.0,0.0,0.0,0.0,0.0,0.0,0.0,0.0,0.0,0.0,0.0,0.0,0.0,0.0,0.0,0.0,0.0,0.0,0.0,0.0,0.0,0.0,0.0,0.0,0.0,0.0,0.0,0.0,0.0,0.0,0.0,-0.7424,-0.6892,-0.6587,-0.7197,-0.7233,-0.6657,-0.5271,-0.4634,-0.4122,-0.3575,-0.345,0.0,0.0,0.0,0.0,0.0,0.0,0.0,0.0,0.0,0.0,0.0,0.0,0.0,0.0,0.0,0.0,0.0,0.0,0.0,0.0,0.0,0.0,0.0,0.0,0.0,0.0,0.0,0.0,0.0,0.0,0.0,0.0,0.0,0.0,0.0,0.0,0.0,0.0,0.0,0.0,0.0,0.0,0.0,0.0,0.0,0.0,0.0,0.0,0.0,0.0,0.0,0.0,0.0,0.0,0.0,0.0,0.0,0.0,0.0,0.0,-0.7108,0.0,0.0,0.0,0.0,0.0,0.0,0.0,0.0,0.0,0.0,0.0,0.0,0.0,0.0,0.0,0.0,0.0,0.0,0.0,0.0,0.0,0.0,0.0,0.0,0.0,0.0,0.0,0.0,0.0,0.0,0.0,0.0,0.0,0.0,0.0,0.0,0.0,0.0,0.0,0.0,-0.9022,-0.8592,-0.8108,-0.8086,-0.7882,-0.7134,-0.5629,-0.5154,-0.4722,-0.4149,-0.4157,0.0,0.0,0.0,0.0,0.0,0.0,0.0,0.0,0.0,0.0,0.0,0.0,0.0,0.0,0.0,0.0,0.0,0.0,0.0,0.0,0.0,0.0,0.0,0.0,0.0,0.0,0.0,0.0,0.0,0.0,0.0,0.0,0.0,0.0,0.0,0.0,0.0,0.0,0.0,0.0,0.0,0.0,0.0,0.0,0.0,0.0,0.0,0.0,0.0,0.0,0.0,0.0,0.0,-0.9074,-1.0425,-1.0811,-1.1475,-1.2254,-1.307,-1.1657,-1.0388,-0.9325,-0.8338,0.0,0.0,0.0,0.0,0.0,0.0,0.0,0.0,0.0,0.0,0.0,0.0,0.0,0.0,0.0,0.0,0.0,0.0,0.0,0.0,0.0,0.0,0.0,0.0,-0.7723,-0.7693,0.0,0.0,0.0,0.0,0.0,0.0,0.0,0.0,0.0,0.0,0.0,0.0,-0.9835,-0.971,-0.9232,-0.8686,-0.8179,-0.7306,-0.5766,-0.5414,-0.509,-0.4589,-0.5085,-0.5259,0.0,0.0,0.0,0.0,0.0,0.0,0.0,0.0,0.0,0.0,0.0,0.0,0.0,0.0,0.0,0.0,0.0,0.0,0.0,0.0,0.0,0.0,0.0,0.0,0.0,0.0,0.0,0.0,0.0,0.0,0.0,0.0,0.5371,0.4438,0.0,0.0,0.0,0.0,0.0,0.0,0.0,0.0,0.0,0.0,0.0,0.0,0.0,-0.3547,-0.4518,-0.5153,-0.626,-0.7802,-0.9557,-1.1067,-1.2382,-1.4293,-1.5524,-1.6106,-1.5629,0.0,-1.1233,-1.0134,0.0,0.0,0.0,0.0,0.0,0.0,0.0,0.0,0.0,0.0,0.0,0.0,0.0,0.0,0.0,0.0,0.0,0.0,0.0,0.0,0.0,0.0,-0.6285,-0.7428,-0.7756,-0.7966,0.0,-0.7889,-0.7069,-0.6583,-0.5982,0.0,0.0,0.0,0.0,0.0,0.0,0.0,-1.0694,-1.0442,-0.9728,-0.8856,-0.87,-0.8032,-0.6401,-0.6087,-0.5891,-0.5717,-0.587,-0.599,-0.6018,-0.6406,0.0,0.0,0.0,0.0,0.0,0.0,0.0,0.0,0.0,0.0,0.0,0.0,0.0,0.0,0.0,0.0,0.0,0.0,0.0,0.0,0.0,0.0,0.0,0.0,0.0,0.0,0.0,0.0,0.0,0.479,0.4184,0.372,0.4237,0.4624,0.0,0.0,0.0,0.0,0.0,0.0,0.0,0.0,0.0,-0.2119,-0.5001,-0.6624,-0.6913,-0.7753,-0.8876,-1.0364,-1.1064,-1.2234,-1.379,-1.4812,-1.5752,-1.671,-1.6625,-1.5617,-1.4013,-1.2474,-1.1396,-1.0566,0.0,0.0,0.0,0.0,-0.8679,-0.798,-0.8438,-0.8349,0.0,-0.7719,0.0,0.0,0.0,0.0,0.0,0.0,0.0,0.0,0.0,0.0,-0.6399,-0.7154,-0.7259,-0.7219,-0.7444,-0.7176,-0.7015,0.0,-0.7009,-0.6799,-0.7337,0.0,0.0,0.0,0.0,-0.9651,-1.0167,-1.0167,-0.9644,-0.8532,-0.8184,-0.7566,-0.6378,-0.5982,-0.5804,-0.5893,-0.5844,-0.601,-0.6473,-0.6697,-0.6919,0.0,0.0,0.0,0.0,0.0,0.0,0.0,0.0,0.0,0.0,0.0,0.0,0.0,0.0,0.0,0.0,0.0,0.0,0.0,0.0,0.0,0.0,0.0,0.0,0.0,0.0,0.0,0.0,0.4053,0.303,0.304,0.3086,0.3294,0.0,0.0,0.0,0.0,0.0,0.0,-0.0388,-0.1695,-0.2983,-0.4285,-0.7228,-0.8728,-0.8662,-0.957,-1.061,-1.1747,-1.1747,-1.2561,-1.4057,-1.4196,-1.5071,-1.6459,-1.6441,-1.6312,-1.5971,-1.4237,-1.3008,-1.2162,-1.1504,-1.0695,-0.9922,-1.0436,-0.9947,-0.9074,-0.9368,-0.9267,-0.8982,-0.8702,0.0,-0.8259,-0.7408,0.0,0.0,0.0,0.0,-0.4979,-0.5309,-0.5774,-0.6251,-0.6582,-0.6421,-0.6209,-0.6376,-0.6213,-0.6372,0.0,-0.7396,-0.7241,-0.7402,0.0,0.0,0.0,0.0,-0.9814,-0.9474,-0.9511,-0.9073,-0.7759,-0.7254,-0.6704,-0.5849,-0.5524,-0.5466,-0.5683,-0.5645,-0.5883,-0.6452,-0.6663,-0.6804,-0.6923,0.0,0.0,0.0,0.0,0.0,0.0,0.0,0.0,0.0,0.0,0.0,0.0,0.0,0.0,0.0,0.0,0.0,0.0,0.0,0.0,0.0,0.0,0.0,0.0,0.0,0.0,0.0,0.0,0.0,0.2456,0.2552,0.0,0.0,0.0,0.0,0.1426,0.0385,-0.0815,-0.2207,-0.4774,-0.6663,-0.7629,-0.8391,-0.8967,-0.9332,-0.9806,-1.0159,-1.0477,-1.0477,-1.1106,-1.2252,-1.2647,-1.39,-1.583,-1.5531,-1.5764,-1.6255,-1.4779,-1.3543,-1.2438,-1.1363,-1.049,-0.9802,-0.9848,-0.9298,-0.8515,-0.8569,-0.8186,-0.7706,-0.7659,-0.757,-0.7331,-0.6503,-0.6304,0.0,0.0,-0.5029,-0.5175,-0.505,-0.5147,-0.5297,-0.5362,-0.521,-0.5234,-0.5795,-0.5246,-0.5022,0.0,-0.648,-0.647,-0.7213,0.0,-0.7853,-0.8776,-0.911,-0.9169,-0.8985,-0.8592,-0.7864,-0.6439,-0.6153,-0.5701,-0.4763,-0.4911,-0.5094,-0.5233,-0.5488,-0.5685,-0.586,-0.6209,-0.6436,-0.6436,-0.7492,0.0,0.0,0.0,0.0,0.0,0.0,0.0,0.0,0.0,0.0,0.0,0.0,0.0,0.0,0.0,0.0,0.0,0.0,0.0,0.0,0.0,0.0,0.0,0.0,0.0,0.0,0.0,0.0,0.1151,0.0712,0.0,0.0986,0.075,0.0371,-0.0161,-0.1397,-0.2624,-0.3711,-0.5077,-0.6023,-0.6333,-0.7031,-0.7599,-0.8066,-0.8429,-0.8842,-0.92,-0.9467,-0.9849,-1.0295,-1.0205,-1.0254,-1.0403,-1.0345,-0.9937,-0.9291,-0.9079,-1.0462,-1.2547,-1.1343,-1.0327,-0.9437,-0.9125,-0.8648,-0.8113,-0.8113,-0.8126,-0.8184,-0.8184,-0.7776,-0.7189,-0.6314,-0.5769,-0.5292,-0.4538,-0.444,-0.4536,-0.439,-0.4414,-0.4216,-0.3257,-0.2773,-0.2558,-0.2666,-0.2447,-0.2336,-0.2824,-0.4553,-0.59,-0.5651,-0.5675,-0.5828,-0.6284,-0.702,-0.7228,-0.6445,-0.6462,-0.6243,-0.5369,-0.5342,-0.4978,-0.4031,-0.404,-0.4222,-0.4485,-0.4056,-0.4403,-0.576,-0.5395,-0.5664,-0.6696,-0.7385,-0.7925,0.0,0.0,0.0,0.0,0.0,0.0,0.0,0.0,0.0,0.0,0.0,0.0,0.0,0.0,0.0,0.0,0.0,0.0,0.0,0.0,0.0,0.0,0.0,0.0,0.0,0.0,0.1003,0.0278,-0.0608,-0.1049,-0.0558,-0.0974,-0.1437,-0.1883,-0.2748,-0.3666,-0.4591,-0.5163,-0.5542,-0.5651,-0.6258,-0.6745,-0.7052,-0.732,-0.7635,-0.7953,-0.8119,-0.8134,-0.8007,-0.7069,-0.6212,-0.5399,-0.4992,-0.4245,-0.3357,-0.3701,-0.5522,-0.8219,-0.8747,-0.8474,-0.7792,-0.7477,-0.7189,-0.6854,-0.686,-0.7143,-0.7481,-0.7362,-0.7047,-0.6607,-0.5818,-0.5259,-0.4767,-0.4043,-0.3445,-0.2965,-0.2864,-0.2798,-0.2449,-0.1334,-0.0612,-0.0111,0.0222,0.0723,0.1055,0.1054,-0.1995,-0.4405,-0.3895,-0.4039,-0.4252,-0.4333,-0.5304,-0.5637,-0.4754,-0.4817,-0.4777,-0.4394,-0.4355,-0.4,-0.3063,-0.3131,-0.3312,-0.3529,-0.3156,-0.3565,-0.5011,-0.4763,-0.5313,-0.6838,-0.8006,-0.9006,-0.9755,0.0,0.0,0.0,0.0,0.0,0.0,0.0,0.0,0.0,0.0,0.0,0.0,0.0,0.0,0.0,0.0,0.0,0.0,0.0,0.0,0.0,0.0,0.0,0.5183,0.2617,0.0391,-0.0056,-0.136,-0.1948,-0.1281,-0.1958,-0.2817,-0.3805,-0.3585,-0.3855,-0.4846,-0.5277,-0.5601,-0.5928,-0.6317,-0.6539,-0.6534,-0.6534,-0.6637,-0.6799,-0.6367,-0.5901,-0.54,-0.3346,-0.2033,-0.1209,0.0277,0.0946,0.1004,0.087,0.0915,0.0608,-0.3362,-0.4911,-0.4858,-0.4861,-0.4837,-0.4827,-0.4666,-0.5014,-0.5474,-0.5014,-0.5128,-0.536,-0.4743,-0.4639,-0.4539,-0.3694,-0.2063,-0.0556,-0.0502,-0.0279,-0.0,0.0391,0.1229,0.2068,0.2615,0.3855,0.4871,0.4904,0.1218,-0.1895,-0.195,-0.2668,-0.3219,-0.3214,-0.41,0.0,-0.4118,-0.3821,-0.3563,-0.3393,-0.3181,-0.2737,-0.1834,-0.2194,-0.2418,-0.2467,-0.2905,-0.3251,-0.3586,-0.4289,-0.5369,-0.686,-0.9445,-1.1283,-1.2175,0.0,0.0,0.0,0.0,0.0,0.0,0.0,0.0,0.0,0.0,0.0,0.0,0.0,0.0,0.0,0.0,0.0,0.0,0.0,0.0,0.0,0.0,0.0497,0.1391,0.0278,-0.0948,-0.1846,-0.2221,-0.2386,-0.2294,-0.2726,-0.3111,-0.3299,-0.386,-0.4193,-0.4242,-0.4674,-0.4798,-0.457,-0.4734,-0.4741,-0.4408,-0.4728,-0.4889,-0.4941,-0.5167,-0.5164,-0.4824,-0.2327,0.1213,0.5408,0.5334,0.6127,0.7437,0.6657,0.6025,0.5144,0.0745,-0.1132,-0.1416,-0.1864,-0.2709,-0.3511,-0.3058,-0.3453,-0.4252,-0.4757,-0.3674,-0.2107,-0.1499,-0.1166,-0.0998,-0.0667,-0.0167,0.0612,0.2065,0.2512,0.2623,0.2852,0.3408,0.3904,0.3788,0.4346,0.4904,0.4901,0.411,0.2996,0.1443,-0.0,-0.1052,-0.151,-0.2564,0.0,-0.2929,-0.2798,-0.2747,-0.2679,-0.2549,-0.2156,-0.1357,-0.0937,-0.0941,-0.1516,-0.1569,-0.2235,-0.361,-0.3878,-0.5427,-0.8567,-1.0265,-1.1904,0.0,0.0,0.0,0.0,0.0,0.0,0.0,0.0,0.0,0.0,0.0,0.0,0.0,0.0,0.0,0.0,0.0,0.0,0.0,0.0,0.0,0.0,-0.0711,-0.1662,-0.1504,-0.1562,-0.19,-0.2637,-0.2242,-0.2138,-0.263,-0.2518,-0.24,-0.234,-0.324,-0.3828,-0.4005,-0.4247,-0.4192,-0.388,-0.3903,-0.3823,-0.3585,-0.3855,-0.4018,-0.4177,-0.4294,-0.4125,-0.3616,-0.0708,0.3057,0.7408,0.8718,0.9996,1.0998,0.9938,0.9155,0.0,0.0,0.0,0.0,0.0,-0.089,-0.1618,-0.1167,-0.1169,-0.1562,-0.2228,-0.1501,-0.0111,0.0668,0.1446,0.2115,0.223,0.2119,0.2225,0.3299,0.3602,0.368,0.3899,0.431,0.4736,0.4889,0.5277,0.5614,0.5773,0.5782,0.0,0.41,0.2251,0.0759,0.0319,-0.0984,-0.1921,-0.1781,-0.1811,-0.1736,-0.144,-0.1319,-0.1114,-0.0696,-0.0232,0.0,0.0,0.0,-0.2273,-0.3853,-0.5015,0.0,0.0,0.0,-1.2599,-1.3721,0.0,0.0,0.0,-1.4655,-1.5137,0.0,0.0,0.0,0.0,0.0,0.0,0.0,0.0,0.0,0.0,0.0,0.0,0.0,0.0,0.0,0.0,-0.2551,-0.3219,-0.3569,-0.2905,-0.241,-0.2585,-0.1798,-0.1536,-0.2346,-0.1591,-0.1122,-0.124,-0.2063,-0.2926,-0.3795,0.0,0.0,0.0,0.0,-0.3562,-0.3492,-0.3479,-0.3691,-0.4015,-0.3691,-0.3128,-0.2279,0.0759,0.3612,0.6329,1.0132,1.1889,1.191,1.0876,1.0089,0.9254,0.642,0.4389,0.2868,0.1269,0.0664,0.0722,0.0942,0.0,0.0,0.1561,0.1335,0.1389,0.2282,0.3522,0.4657,0.4605,0.432,0.4006,0.3773,0.3721,0.3773,0.4021,0.4459,0.5054,0.5819,0.6263,0.6598,0.7031,0.6588,0.6086,0.5982,0.3984,0.2267,0.1999,0.0497,-0.057,-0.0615,-0.0687,-0.0537,0.0135,0.0,0.0,0.0315,0.018,-0.0495,-0.1938,-0.229,-0.296,-0.4175,-0.6694,-0.8448,-0.9259,-1.1674,-1.3016,-1.316,-1.3941,-1.473,-1.5586,-1.6078,-1.6356,0.0,0.0,0.0,0.0,0.0,0.0,0.0,0.0,0.0,0.0,0.0,0.0,0.0,0.0,0.0,-0.2848,-0.3762,-0.4226,-0.3793,-0.279,-0.2011,-0.1847,-0.1604,-0.1283,-0.088,-0.0601,-0.061,-0.1098,-0.1349,-0.1781,-0.2377,-0.3179,-0.3626,-0.3481,-0.352,-0.3351,-0.2975,-0.2897,-0.2914,-0.2968,0.0,0.0,-0.2348,-0.0165,0.2389,0.5169,0.6774,0.8031,0.8887,0.8107,0.6857,0.5539,0.5501,0.4846,0.3844,0.2859,0.2676,0.296,0.3013,0.3893,0.4945,0.4882,0.4978,0.5179,0.5352,0.5458,0.0,0.5077,0.4912,0.4791,0.4429,0.4333,0.4346,0.4368,0.5035,0.5609,0.5828,0.6426,0.6977,0.7085,0.6972,0.6642,0.5932,0.4485,0.3143,0.2332,0.1857,0.1507,0.132,0.126,0.1314,0.1449,0.1973,0.2352,0.2352,0.1457,0.065,0.0135,-0.1534,-0.3037,-0.4216,-0.5672,-0.7475,-0.9628,-1.062,-1.1747,-1.3024,-1.3521,-1.4382,-1.5607,-1.5892,-1.6209,0.0,0.0,0.0,0.0,0.0,0.0,0.0,0.0,0.0,0.0,0.0,0.1673,0.0,0.0,-0.274,-0.3473,-0.3697,-0.3674,-0.3329,-0.2279,-0.1513,-0.1378,-0.0755,-0.0,0.0798,0.0874,0.0819,0.0566,0.0191,-0.0256,-0.0755,-0.1274,-0.1787,-0.2331,-0.2323,-0.245,-0.2767,-0.274,-0.2717,-0.2701,-0.2715,-0.2377,-0.1777,-0.1178,0.0497,0.2907,0.3636,0.4645,0.5721,0.5703,0.5049,0.4123,0.4432,0.4282,0.3804,0.3064,0.3097,0.3559,0.3749,0.4446,0.5301,0.5541,0.5783,0.6014,0.6014,0.5896,0.5719,0.5234,0.5124,0.4976,0.4386,0.4351,0.4532,0.4587,0.5049,0.5559,0.5996,0.6431,0.6815,0.7031,0.7085,0.6864,0.6041,0.5075,0.4123,0.3171,0.2721,0.2516,0.237,0.2684,0.2908,0.2942,0.3278,0.3516,0.3607,0.2752,0.1904,0.1125,-0.0397,-0.1898,-0.3294,-0.4616,-0.6173,-0.7986,-0.9027,-1.0202,-1.137,-1.1675,-1.2432,-1.3568,-1.3643,-1.469,0.0,0.0,0.0,0.0,0.0,0.0,0.0,0.4118,0.3723,0.333,0.2593,0.1363,-0.0867,-0.1806,-0.2547,-0.3541,-0.3069,-0.2509,-0.2214,-0.1232,-0.0492,-0.0182,0.0541,0.1403,0.25,0.2523,0.2402,0.2402,0.1855,0.1329,0.0844,0.0714,0.0195,-0.0973,-0.0985,-0.1372,-0.2256,-0.2247,-0.2232,-0.2272,-0.2274,-0.1819,-0.1046,-0.1589,-0.0839,0.0947,0.1499,0.2154,0.2909,0.3607,0.3629,0.3217,0.3199,0.3318,0.3428,0.2883,0.3094,0.3628,0.4089,0.4543,0.5043,0.5474,0.581,0.6046,0.6046,0.6046,0.5937,0.5395,0.521,0.5011,0.4328,0.4323,0.4527,0.4623,0.4872,0.5304,0.6093,0.6323,0.6494,0.6858,0.6977,0.6701,0.5873,0.537,0.4796,0.3925,0.3335,0.299,0.3045,0.3596,0.4059,0.4186,0.424,0.4326,0.4443,0.3837,0.3003,0.1905,0.0846,-0.0429,-0.1997,-0.3296,-0.4476,-0.5556,-0.7081,-0.819,-0.883,-0.9307,-1.0007,-1.0905,-1.0872,-1.2496,0.6892,0.6405,0.6135,0.623,0.5614,0.4888,0.0,0.4272,0.3717,0.3124,0.2288,0.1076,-0.0929,-0.1401,-0.1766,-0.2683,-0.2137,-0.1233,-0.0316,0.0827,0.1948,0.3123,0.2291,0.223,0.3847,0.4007,0.3799,0.3127,0.3002,0.2737,0.2265,0.1666,0.0933,0.0133,-0.0259,-0.0566,-0.0735,-0.0712,-0.0634,-0.0674,-0.0672,-0.056,-0.0337,-0.0392,0.0056,0.0953,0.1513,0.1568,0.1228,0.1787,0.1688,0.128,0.1668,0.2274,0.2999,0.3042,0.3541,0.4237,0.4556,0.5229,0.5958,0.6236,0.6578,0.6972,0.6972,0.6972,0.6756,0.5937,0.5659,0.5414,0.4844,0.4601,0.4511,0.4523,0.4886,0.5262,0.5596,0.5996,0.6258,0.645,0.649,0.6105,0.5054,0.482,0.4591,0.4121,0.3589,0.3362,0.3596,0.3845,0.4153,0.4613,0.478,0.4892,0.4897,0.4439,0.3764,0.2954,0.1906,0.0698,-0.0719,-0.1274,-0.209,-0.3317,-0.47,-0.5515,-0.5686,-0.6992,-0.7949,-0.8667,-0.8828,-1.0003,0.7628,0.7559,0.7518,0.7118,0.6919,0.6575,0.5978,0.5284,0.4583,0.3618,0.263,0.1467,0.0069,-0.0201,-0.0331,0.0,0.0198,0.1124,0.2136,0.3199,0.424,0.5112,0.5154,0.5101,0.4903,0.4945,0.4737,0.4314,0.4442,0.4216,0.3553,0.3396,0.2856,0.2007,0.1823,0.1786,0.2016,0.1742,0.172,0.194,0.193,0.2052,0.2364,0.1753,0.1365,0.1174,0.1541,0.1651,0.1675,0.1872,0.2043,0.2176,0.2387,0.2828,0.3266,0.3003,0.3676,0.4695,0.4911,0.5548,0.6294,0.6523,0.6924,0.73,0.7139,0.7192,0.7106,0.6019,0.5763,0.5719,0.4938,0.4887,0.5068,0.5119,0.5354,0.5658,0.5965,0.6197,0.6328,0.6367,0.6381,0.605,0.4893,0.4842,0.482,0.4476,0.4254,0.4187,0.4357,0.4782,0.5144,0.5466,0.5798,0.5878,0.5654,0.5306,0.482,0.4079,0.3544,0.2852,0.2054,0.1662,0.0883,-0.0384,-0.1375,-0.2252,-0.3066,-0.3661,-0.4518,-0.5711,-0.594,-0.684,0.8765,0.8534,0.831,0.7855,0.7688,0.7352,0.661,0.5996,0.5286,0.4238,0.3362,0.2431,0.1337,0.1592,0.192,0.1825,0.2732,0.3786,0.4552,0.5522,0.6421,0.7005,0.7741,0.7894,0.7004,0.6764,0.6583,0.6382,0.6451,0.618,0.5406,0.5183,0.4691,0.3929,0.3561,0.3496,0.3793,0.336,0.3332,0.3576,0.3545,0.3675,0.3952,0.3237,0.2604,0.2033,0.2179,0.2448,0.2839,0.2894,0.3229,0.3569,0.3569,0.3787,0.4062,0.3597,0.4093,0.5038,0.5358,0.5925,0.6493,0.6759,0.7109,0.7467,0.7246,0.73,0.7245,0.6224,0.5966,0.5824,0.5228,0.522,0.5376,0.5645,0.5686,0.5829,0.6265,0.6348,0.6308,0.6258,0.6327,0.605,0.5007,0.5066,0.523,0.5058,0.5113,0.5179,0.5161,0.5636,0.6021,0.6231,0.6582,0.667,0.6405,0.6124,0.5714,0.5109,0.4787,0.4512,0.4128,0.3785,0.3222,0.233,0.1719,0.083,-0.0221,-0.0553,-0.1326,-0.2656,-0.3119,-0.3738,1.0314,0.898,0.7613,0.7987,0.7207,0.6301,0.5986,0.5795,0.5502,0.4877,0.4507,0.4009,0.2817,0.4211,0.522,0.4188,0.5244,0.6332,0.6773,0.764,0.849,0.9311,0.9665,1.0127,0.0,1.0107,0.9668,0.9663,0.9455,0.8899,0.8112,0.6887,0.6043,0.5638,0.4414,0.3769,0.3729,0.3489,0.3389,0.3419,0.3411,0.3414,0.3419,0.3411,0.3576,0.3906,0.3784,0.395,0.433,0.4659,0.4824,0.4824,0.4824,0.5097,0.5425,0.5148,0.5096,0.5278,0.5928,0.6422,0.6732,0.7004,0.7295,0.7521,0.7467,0.7402,0.7233,0.6886,0.6202,0.5692,0.5985,0.5574,0.5237,0.5755,0.5696,0.5651,0.6131,0.6221,0.6129,0.5846,0.6159,0.6109,0.5234,0.5449,0.5773,0.5773,0.6105,0.6213,0.5819,0.61,0.646,0.6659,0.6939,0.7074,0.7074,0.6647,0.6268,0.5982,0.5433,0.4944,0.467,0.4515,0.446,0.4405,0.4006,0.35,0.2938,0.1941,0.0998,0.0277,-0.0612,-0.1003,1.0797,1.0966,1.1081,1.0642,1.0156,0.9709,0.9093,0.8667,0.82,0.732,0.6576,0.5644,0.4424,0.4967,0.5656,0.578,0.7066,0.825,0.8985,0.9474,0.9782,0.9793,1.0377,0.0,0.0,0.0,0.0,1.0638,1.0558,0.9988,0.8939,0.8064,0.7132,0.6276,0.5398,0.4965,0.4826,0.462,0.4574,0.4753,0.4753,0.4826,0.5037,0.514,0.5388,0.5652,0.5592,0.5727,0.6108,0.6128,0.6387,0.6753,0.686,0.6651,0.6396,0.6622,0.6376,0.6015,0.625,0.6594,0.6977,0.7058,0.73,0.7379,0.6791,0.6848,0.6897,0.5961,0.5947,0.6265,0.6307,0.6531,0.6841,0.7172,0.7184,0.7115,0.7285,0.7172,0.6935,0.6622,0.6485,0.6218,0.5668,0.5719,0.6046,0.6691,0.6912,0.6918,0.6701,0.7074,0.7261,0.6977,0.7351,0.761,0.761,0.7551,0.7492,0.7374,0.7095,0.6983,0.6977,0.709,0.6876,0.6293,0.591,0.5257,0.4436,0.3779,0.2947,0.1947,0.2166,0.2447,1.216,1.2694,1.3056,1.2614,1.2374,1.2087,1.1251,1.0756,1.0248,0.9248,0.8429,0.76,0.6457,0.6492,0.6875,0.7536,0.8785,0.9905,1.055,1.1147,1.1395,1.0966,1.1502,1.1942,0.0,0.0,0.0,1.1823,1.164,1.1105,1.0336,0.9495,0.8519,0.7342,0.6644,0.612,0.576,0.5592,0.5563,0.5669,0.5669,0.5837,0.6109,0.5967,0.6252,0.6702,0.6504,0.6827,0.747,0.7516,0.7872,0.8317,0.8469,0.8205,0.7835,0.796,0.7599,0.6966,0.6761,0.6869,0.7085,0.7085,0.7192,0.7213,0.6797,0.6853,0.6857,0.6117,0.636,0.6839,0.6732,0.7064,0.7546,0.784,0.7958,0.8013,0.8119,0.799,0.7723,0.723,0.6918,0.6647,0.6263,0.6529,0.7015,0.7658,0.8031,0.8078,0.7824,0.8031,0.8084,0.7824,0.8031,0.829,0.8442,0.8639,0.8776,0.8933,0.8815,0.8808,0.886,0.8874,0.8515,0.7829,0.7463,0.6827,0.5869,0.5386,0.4563,0.3511,0.4009,0.4294,1.428,1.4262,1.3624,1.39,1.3805,1.3362,1.2375,1.2031,1.1652,1.0721,1.0136,0.9542,0.8846,0.0,0.88,0.9357,1.0432,1.1214,1.147,1.2687,1.3374,0.0,0.0,0.0,0.0,0.0,0.0,1.3186,0.0,1.2322,1.2216,1.1169,1.0039,0.8876,0.8014,0.7203,0.6432,0.625,0.6223,0.6223,0.6223,0.6314,0.6412,0.5981,0.6282,0.7091,0.6698,0.7198,0.8365,0.8775,0.9146,0.9465,0.9614,0.9666,0.9562,0.919,0.8659,0.8025,0.7348,0.7085,0.7085,0.7085,0.702,0.6961,0.7337,0.7283,0.7127,0.7258,0.7347,0.7404,0.7359,0.7332,0.7413,0.7862,0.8139,0.8366,0.8593,0.8666,0.8461,0.7688,0.7498,0.7354,0.7015,0.7877,0.8626,0.8626,0.9354,0.9658,0.9079,0.8928,0.8928,0.9026,0.8981,0.9079,0.9429,0.9798,1.0175,1.058,1.0479,1.0428,1.0428,0.9929,0.9482,0.9082,0.8783,0.8224,0.7391,0.6637,0.5823,0.5007,0.4952,0.4677,1.4575,1.5414,1.5963,1.5852,1.5691,1.535,1.4562,1.4239,1.3754,1.2361,1.1484,1.0526,0.8897,0.9297,0.9905,1.0136,1.1999,0.0,1.31,1.38,0.0,1.3375,0.0,1.3207,1.2709,1.2709,0.0,0.0,1.2939,1.2857,1.2536,1.0989,0.9769,0.9031,0.7744,0.6929,0.6611,0.6436,0.6351,0.6351,0.6351,0.6567,0.7003,0.6889,0.7187,0.7757,0.7601,0.7974,0.8722,0.9187,0.9692,1.0257,1.071,1.0541,1.0012,0.9607,0.9033,0.8355,0.7676,0.7031,0.6652,0.6977,0.6815,0.6568,0.677,0.6925,0.7012,0.6945,0.7285,0.7739,0.7902,0.8417,0.8854,0.9006,0.9283,0.9489,0.9292,0.9292,0.9127,0.8338,0.7804,0.7467,0.7354,0.8143,0.883,0.9001,1.0035,1.0438,0.9533,0.9695,0.9799,0.9732,1.0041,1.0305,1.0407,1.1149,1.1639,1.1738,1.2033,1.219,1.2337,1.219,1.1837,1.124,1.057,0.9813,0.9006,0.7747,0.6843,0.6136,0.5882,0.5391,1.6074,1.7044,1.7531,1.7288,1.7204,1.6755,1.5229,1.4784,1.4423,1.3135,1.2257,1.1357,1.0143,1.0471,1.0981,0.0,0.0,0.0,1.4429,1.513,1.5411,0.0,1.4593,0.0,1.3528,1.3726,1.3666,0.0,1.2939,1.2789,1.2687,1.1557,1.063,0.9839,0.8776,0.7859,0.7029,0.6924,0.6872,0.6872,0.6872,0.7068,0.733,0.7138,0.7335,0.7852,0.0,0.7908,0.8759,0.9124,0.9618,1.0257,1.0737,1.0737,1.0336,0.9865,0.9406,0.8935,0.8156,0.7348,0.6647,0.6972,0.6864,0.6676,0.6923,0.7147,0.7298,0.724,0.7805,0.8519,0.8482,0.904,0.9666,0.9666,0.9976,1.0238,1.0058,1.0058,0.9769,0.8666,0.7939,0.7521,0.7521,0.815,0.8778,0.889,0.9821,1.0387,0.9997,1.0466,1.0838,1.0821,1.1032,1.1292,1.1434,1.208,1.2609,1.2996,1.3198,1.3447,1.3695,1.3542,1.3102,1.2365,1.1598,1.0746,0.9799,0.8501,0.7545,0.6838,0.6588,0.6105,1.7898,1.8352,1.8261,1.8108,1.7901,1.7139,1.4831,1.4325,1.4109,1.306,1.248,1.2054,1.171,1.1784,1.1983,1.2366,0.0,1.4896,1.5618,1.6474,1.6797,1.6158,1.6079,1.5658,1.4816,1.5162,1.4906,1.3669,1.2743,1.2432,1.2808,1.235,1.1618,1.0441,0.9996,0.9015,0.7526,0.7521,0.7521,0.7521,0.7521,0.7521,0.7456,0.7138,0.7209,0.7666,0.7068,0.0,0.8567,0.879,0.9212,0.9825,1.028,1.0524,1.0585,1.0044,0.9703,0.9458,0.8626,0.7771,0.7015,0.7079,0.6972,0.6912,0.7354,0.7568,0.7723,0.783,0.8567,0.9256,0.8988,0.9451,1.002,1.0072,1.0395,1.0753,1.0712,1.0653,1.0195,0.8928,0.8096,0.7574,0.7521,0.799,0.8468,0.8573,0.919,0.9799,1.021,1.099,1.1619,1.1769,1.1719,1.1819,1.2175,1.253,1.3054,1.3779,1.392,1.4176,1.4523,1.4269,1.3732,1.2957,1.2258,1.1416,1.032,0.9145,0.8162,0.7419,0.7252,0.6717,1.8221,1.778,1.7096,1.7286,1.6262,1.4924,1.3905,1.3585,1.3114,1.1627,1.1992,1.2282,1.1311,1.1956,1.2931,1.3546,1.4942,1.5998,1.6297,1.6956,1.7266,0.0,1.6473,1.5974,1.5392,1.4737,0.0,0.0,1.2707,1.2432,1.2808,1.179,1.0544,0.901,0.8858,0.8384,0.7526,0.7521,0.7521,0.7521,0.7521,0.7521,0.7521,0.7456,0.7461,0.7526,0.7531,0.0,0.8016,0.85,0.9046,0.9579,1.003,1.0302,1.047,1.0024,0.9688,0.9302,0.8302,0.7871,0.7658,0.7241,0.681,0.6598,0.73,0.7521,0.7676,0.8408,0.8778,0.8988,0.9354,0.9829,1.0198,1.036,1.0718,1.099,1.0744,1.0368,0.9849,0.9238,0.862,0.8103,0.7574,0.7509,0.7717,0.8368,0.8593,0.8888,0.9325,1.0226,1.0905,1.1259,1.141,1.146,1.156,1.2227,1.2706,1.2803,1.3589,1.4071,1.4269,1.4582,1.4433,1.3779,1.3006,1.2384,1.1918,1.0226,0.9369,0.92,0.7907,0.7018,1.8105,1.7481,1.6597,1.6442,1.5258,1.3672,1.1944,1.1822,1.1791,1.0399,1.1006,1.1725,1.1486,1.2014,1.2893,1.3926,1.5192,1.6161,1.6715,1.7509,1.7915,1.7508,1.7314,1.6811,1.5877,1.5525,1.4816,1.3339,1.3105,1.2799,1.2365,1.123,1.0119,0.9069,0.8732,0.8214,0.7526,0.7636,0.7636,0.7521,0.7521,0.7521,0.7521,0.7521,0.7521,0.7521,0.7335,0.0,0.7761,0.8069,0.855,0.9172,0.9517,0.9893,1.0111,0.9673,0.9582,0.9475,0.8293,0.8027,0.8038,0.7439,0.7218,0.7296,0.7824,0.8147,0.8444,0.9029,0.9354,0.9569,0.9829,1.0249,1.0616,1.0769,1.0972,1.1074,1.0954,1.035,0.9678,0.9207,0.856,0.7883,0.7085,0.675,0.6686,0.6794,0.6924,0.711,0.7334,0.8146,0.9207,1.0559,1.0922,1.1082,1.1082,1.1425,1.1765,1.1963,1.2404,1.2938,1.3569,1.3978,1.4163,1.4059,1.3671,1.3282,1.2898,1.155,1.0763,1.0531,0.9487,0.8446,1.7995,1.7435,1.6481,1.5894,1.4727,1.3068,1.0504,1.0463,1.0614,0.9544,1.021,1.1115,1.174,1.2156,1.2785,0.0,1.5104,1.6079,1.7245,1.7865,1.8189,1.8095,1.7634,0.0,1.5948,1.5638,0.0,1.3112,1.2961,1.2597,1.1955,1.0885,1.0068,0.9609,0.8956,0.824,0.7593,0.7697,0.7669,0.7521,0.7326,0.7326,0.7521,0.7326,0.7326,0.7461,0.7138,0.0,0.0,0.7647,0.8122,0.8844,0.9142,0.9511,0.9925,0.9538,0.9554,0.9625,0.861,0.841,0.8494,0.8034,0.7994,0.8087,0.8373,0.8864,0.9314,0.9599,0.9933,1.0187,1.0272,1.0565,1.0871,1.0972,1.1074,1.1074,1.1074,1.0498,0.9814,0.9131,0.8501,0.7711,0.6534,0.6041,0.571,0.5277,0.5261,0.5354,0.5462,0.6122,0.7245,0.8912,0.9761,1.0246,1.0356,1.0348,1.0584,1.1184,1.1234,1.1707,1.274,1.3319,1.3769,1.3972,1.4031,1.3941,1.3638,1.274,1.2111,1.1752,1.1035,1.0006,1.8243,1.7853,1.6928,1.6195,1.4824,1.3144,1.1073,1.0471,1.0093,0.9228,0.9962,1.1052,1.1864,1.2522,1.3347,1.4649,0.0,1.5872,1.7957,1.7539,1.7334,1.8286,0.0,0.0,1.5292,1.34,1.2181,1.2365,1.1168,1.0887,1.187,1.1083,1.036,0.9794,0.9043,0.8316,0.7749,0.7773,0.7669,0.7521,0.6793,0.6863,0.7456,0.6798,0.6863,0.7521,0.7456,0.0,0.0,0.7521,0.8096,0.8982,0.9046,0.9438,1.0094,1.0033,0.9695,0.9292,0.9477,0.9362,0.9157,0.951,0.9048,0.849,0.8698,0.9247,0.9788,0.9983,1.0053,1.0156,1.0394,1.0522,1.0565,1.0718,1.0922,1.1074,1.0922,1.0769,1.03,0.919,0.8823,0.8131,0.6357,0.5655,0.5281,0.4952,0.4515,0.4291,0.4725,0.505,0.5374,0.5534,0.7256,0.8495,0.8928,0.8901,0.9387,1.0532,1.0662,1.1048,1.1936,1.3184,1.3758,1.3544,1.3903,1.4102,1.4024,1.3195,1.2879,1.2917,1.1841,1.1057,1.6914,1.6989,1.6511,1.6048,1.4772,1.3127,1.1361,1.0698,1.0187,0.9346,0.9901,1.0744,1.1428,1.1794,1.239,0.0,0.0,0.0,1.6244,1.6367,1.633,1.6318,1.4941,1.3618,0.0,0.0,1.1182,1.1192,1.0484,1.0205,1.0642,0.9915,0.9343,0.907,0.8434,0.7986,0.7782,0.7364,0.7059,0.6859,0.6067,0.587,0.6199,0.633,0.6531,0.6863,0.7326,0.0,0.0,0.7521,0.8107,0.9017,0.9017,0.943,1.0114,1.0114,1.01,1.0032,0.9778,0.9883,1.0098,1.0039,1.0075,1.0082,0.9969,1.0196,1.0566,1.0872,1.0948,1.0926,1.0921,1.1079,1.1369,1.1645,1.1575,1.141,1.1309,1.0913,1.0249,0.9086,0.8823,0.8237,0.6416,0.555,0.4897,0.4405,0.3852,0.3466,0.3519,0.407,0.4401,0.4229,0.5692,0.672,0.6934,0.7334,0.7799,0.8305,0.8796,0.9563,1.0649,1.1695,1.2558,1.3253,1.4072,1.4506,1.4639,1.4506,1.4287,1.4037,1.3584,1.2932,1.5392,1.6207,1.6434,1.6254,1.5206,1.3725,1.2054,1.1148,1.0424,0.9503,0.9799,1.0364,1.1052,1.1178,1.1545,0.0,0.0,1.387,1.488,1.5016,1.4911,1.4444,0.0,1.1746,0.0,1.0366,0.9746,0.9479,0.9099,0.8954,0.9125,0.8556,0.831,0.8651,0.8118,0.7709,0.7505,0.695,0.6515,0.6067,0.5342,0.5209,0.5606,0.5935,0.6334,0.6728,0.726,0.0,0.0,0.7521,0.8107,0.9017,0.9017,0.9479,1.0247,1.037,1.0486,1.0573,1.0471,1.0654,1.0959,1.0898,1.1202,1.1586,1.1307,1.1338,1.1503,1.1626,1.1688,1.1719,1.163,1.187,1.2204,1.252,1.2181,1.1751,1.1742,1.1259,1.0557,0.9451,0.9079,0.8442,0.6681,0.571,0.4948,0.4184,0.3685,0.3297,0.3026,0.3633,0.4033,0.3899,0.4845,0.5487,0.5538,0.6164,0.6711,0.7057,0.7699,0.8526,0.9603,1.0583,1.1518,1.2582,1.3752,1.4517,1.4836,1.5181,1.5181,1.4766,1.4836,1.432,1.4042,1.584,1.7169,1.7045,1.6407,1.5308,1.3394,1.2004,1.0763,0.9612,0.9606,1.0053,1.0863,1.0863,1.1122,1.2182,0.0,0.0,1.4461,1.3687,1.3045,0.0,1.0689,0.9362,1.0606,0.8955,0.7593,0.6944,0.6713,0.0,0.7236,0.7224,0.7655,0.8661,0.8125,0.7432,0.6744,0.6676,0.624,0.5276,0.4616,0.5014,0.6334,0.5672,0.6133,0.7456,0.0,0.0,0.0,0.7521,0.8107,0.9017,0.9017,0.9658,1.0618,1.0996,1.0863,1.0667,1.174,1.1794,1.1608,1.2367,1.256,1.256,1.2552,1.256,1.248,1.2115,1.211,1.2278,1.2593,1.2797,1.2913,1.3048,1.2635,1.2147,1.2021,1.1841,1.141,1.0372,0.9747,0.8842,0.7084,0.6347,0.5597,0.4398,0.4177,0.407,0.3638,0.3962,0.4287,0.4538,0.485,0.5015,0.512,0.5502,0.6205,0.7339,0.77,0.8253,0.9,1.0262,1.115,1.1386,1.2757,1.3774,1.4533,1.5045,1.5183,1.5006,1.5163,1.4902,1.1908,1.3521,1.4636,1.472,1.4234,1.3347,1.1993,1.0618,0.9381,0.8595,0.8581,0.8818,0.9192,0.9506,0.9952,1.078,1.126,0.0,0.0,0.0,0.0,1.1426,0.8737,0.6894,0.0,0.0,0.5936,0.6638,0.6334,0.6404,0.695,0.6725,0.6885,0.7457,0.7429,0.7086,0.6333,0.594,0.5393,0.4616,0.382,0.3954,0.4948,0.5074,0.5734,0.0,0.0,0.0,0.0,0.7521,0.8107,0.9017,0.9017,0.9664,1.0624,1.0996,1.1185,1.131,1.1872,1.2189,1.2305,1.2498,1.2621,1.2621,1.2683,1.2683,1.2658,1.2833,1.3165,1.3614,1.3953,1.3959,1.3993,1.4533,1.3979,1.3369,1.3443,1.2822,1.2003,1.0839,1.0246,0.9429,0.77,0.6838,0.6136,0.5386,0.4999,0.4728,0.4515,0.4787,0.4916,0.48,0.5015,0.5162,0.5221,0.5747,0.6248,0.6613,0.7243,0.7906,0.8425,0.9236,1.0143,1.1087,1.2336,1.3368,1.4164,1.4811,1.508,1.5015,1.5024,1.5163,0.966,1.136,1.249,1.2716,1.2318,1.1493,1.0361,0.9181,0.8091,0.7394,0.7361,0.7471,0.7683,0.8073,0.8546,0.9023,0.966,1.0238,0.0,0.0,0.0,0.8617,0.0,0.0,0.0,0.4891,0.5355,0.616,0.5978,0.6057,0.6554,0.636,0.627,0.6432,0.6877,0.6781,0.6098,0.5722,0.5143,0.4483,0.382,0.3889,0.4755,0.5209,0.5804,0.0,0.0,0.0,0.0,0.7521,0.7912,0.856,0.8753,0.9268,0.997,1.08,1.1185,1.1498,1.212,1.2498,1.2683,1.2744,1.2744,1.2805,1.3155,1.3094,1.3033,1.3571,1.4101,1.4659,1.509,1.4988,1.4908,1.5615,1.4942,1.419,1.4411,1.3831,1.2966,1.1917,1.124,1.0442,0.9117,0.8212,0.7469,0.6993,0.6352,0.5814,0.5597,0.566,0.572,0.5745,0.5921,0.6155,0.6352,0.6425,0.6459,0.6396,0.7223,0.7773,0.8042,0.8659,0.9497,1.0474,1.1737,1.2792,1.3554,1.4443,1.4993,1.5195,1.4993,1.5195,0.0,0.9138,1.0516,1.0796,1.046,0.9701,0.8563,0.0,0.0,0.5876,0.5863,0.6034,0.6144,0.6502,0.6827,0.6997,0.7553,0.8042,0.0,0.7852,0.0,0.0,0.5247,0.0,0.4494,0.5168,0.5546,0.5534,0.5514,0.0,0.5986,0.6023,0.5888,0.5613,0.6388,0.6478,0.5807,0.5873,0.5477,0.4749,0.442,0.4688,0.5428,0.5745,0.6276,0.0,0.0,0.0,0.0,0.7521,0.7582,0.7772,0.8291,0.8613,0.886,1.0408,1.0982,1.1178,1.2305,1.2744,1.2805,1.2989,1.2989,1.3164,1.3795,1.3803,1.3752,1.441,1.4932,1.5459,1.6016,1.5802,1.5609,1.6283,1.5541,1.4776,1.5108,1.48,1.4186,1.3416,1.2619,1.1828,1.1007,1.0092,0.937,0.8835,0.796,0.7235,0.6804,0.6554,0.6672,0.7082,0.7389,0.7695,0.8174,0.7389,0.6791,0.6619,0.7485,0.7913,0.7801,0.8483,0.9122,0.9623,1.0947,1.2031,1.2893,1.3912,1.4792,1.5396,1.4792,1.4864,0.4307,0.0,0.6629,0.6838,0.7033,0.7049,0.0,0.0,0.0,0.0,0.0,0.0,0.0,0.4512,0.5032,0.5321,0.5716,0.6419,0.7586,0.7675,0.0,0.616,0.6417,0.5956,0.4264,0.4762,0.5231,0.5584,0.5564,0.5782,0.6224,0.5983,0.5823,0.5752,0.5973,0.5756,0.509,0.5359,0.5153,0.442,0.4156,0.4558,0.5428,0.5617,0.6145,0.0,0.0,0.0,0.7521,0.7521,0.7582,0.7772,0.8291,0.8613,0.8801,0.9824,1.0534,1.1108,1.1802,1.2367,1.2805,1.2989,1.3111,1.3302,1.37,1.4112,1.4529,1.5148,1.5864,1.6457,1.657,1.6375,1.6283,1.67,1.6503,1.6214,1.6009,1.5808,1.5345,1.4233,1.3501,1.2667,1.1481,1.0981,1.0426,0.937,0.8593,0.8045,0.7932,0.7471,0.7302,0.7586,0.7896,0.8108,0.8221,0.7899,0.7712,0.7679,0.7851,0.7981,0.8004,0.8499,0.8995,0.9623,1.0985,1.1937,1.2452,1.2739,1.3374,1.4349,1.3945,1.4543,0.1846,0.3053,0.4316,0.431,0.4371,0.4323,0.3889,0.0,0.0,0.0,0.0,0.0,0.0,0.0,0.3097,0.3199,0.3402,0.0,0.0,0.0,0.5485,0.5277,0.5834,0.5889,0.0,0.5478,0.5883,0.6037,0.0,0.6061,0.6169,0.5928,0.5772,0.5705,0.5819,0.569,0.5296,0.5491,0.5425,0.502,0.4761,0.4894,0.5428,0.5818,0.6214,0.0,0.0,0.0,0.7526,0.7717,0.7652,0.7391,0.8166,0.8355,0.8291,0.957,1.0338,1.085,1.1545,1.2367,1.305,1.3164,1.3285,1.3467,1.3941,1.4359,1.4765,1.5507,1.6275,1.6864,1.72,1.7022,1.6968,1.7699,1.7484,1.7223,1.735,1.7134,1.6634,1.5844,1.5215,1.4524,1.3641,1.2944,1.2337,1.1713,1.0386,0.9377,0.9154,0.8287,0.7698,0.7699,0.7829,0.7944,0.8112,0.8104,0.8144,0.8238,0.8343,0.8424,0.8499,0.8798,0.9357,1.016,1.0965,1.1706,1.2305,1.2305,1.26,1.3205,1.2728,1.2935,-0.0169,0.1,0.2215,0.2441,0.2163,0.1719,0.1113,0.0,0.0,0.0,0.0,0.0,0.0,0.1112,0.0,0.0,0.0,0.0,0.1413,0.2309,0.3159,0.351,0.4557,0.0,0.5766,0.65,0.6834,0.0,0.0,0.638,0.6081,0.5918,0.5772,0.5627,0.5876,0.6043,0.602,0.6083,0.6148,0.6214,0.5951,0.5818,0.5818,0.6412,0.6745,0.6806,0.0,0.0,0.7782,0.8172,0.7847,0.7269,0.8172,0.8166,0.7777,0.9256,1.0078,1.0647,1.1608,1.249,1.3241,1.3398,1.345,1.358,1.4112,1.441,1.4647,1.5459,1.6171,1.6853,1.7567,1.7523,1.7554,1.8722,1.8424,1.8064,1.874,1.8465,1.798,1.7545,1.7022,1.6528,1.6076,1.5153,1.443,1.4218,1.2439,1.0899,1.0243,0.9005,0.8001,0.7684,0.7646,0.7785,0.7972,0.8107,0.8351,0.8633,0.8821,0.8974,0.9092,0.929,0.9771,1.0663,1.0854,1.1247,1.1838,1.1883,1.199,1.2153,1.1565,1.1091,-0.1744,-0.1835,-0.1554,0.0334,0.0056,-0.0613,-0.0558,-0.1568,0.0,0.0,0.0,0.0,0.0,0.0129,0.0585,0.0,0.0,-0.1418,0.0,0.0,0.2261,0.1264,0.0,0.5515,0.5241,0.6353,0.0,0.0,0.0,0.6536,0.624,0.6078,0.5925,0.5772,0.6379,0.6684,0.6593,0.6854,0.7246,0.7702,0.7637,0.7572,0.7637,0.8032,0.8166,0.8231,0.0,0.8823,0.8759,0.8823,0.8624,0.8296,0.8635,0.8501,0.8172,0.8571,0.9454,1.071,1.2166,1.2797,1.305,1.3042,1.3172,1.3363,1.3424,1.395,1.4529,1.4647,1.5507,1.6472,1.7034,1.7382,1.7851,1.8772,1.9164,1.9309,1.9303,1.9416,1.9257,1.8418,1.7784,1.7206,1.6539,1.6058,1.5444,1.4387,1.2914,1.1624,1.0555,0.9229,0.824,0.7976,0.7936,0.7952,0.7982,0.8107,0.8419,0.8927,0.891,0.9047,0.9476,0.9528,0.9695,0.9992,1.028,1.0146,0.9662,0.993,1.053,1.1467,1.0925,1.0992,-0.2925,-0.3012,-0.297,-0.2221,-0.2402,-0.2748,-0.2748,-0.3307,0.0,0.0,0.0,0.0,0.0,0.0,-0.141,-0.1735,0.0,-0.2313,-0.2002,-0.0502,0.0585,0.0,0.0,0.4827,0.4954,0.0,0.0,0.0,0.0,0.0,0.6146,0.5918,0.5901,0.6106,0.6751,0.7272,0.7762,0.8345,0.8409,0.8027,0.8027,0.8027,0.8027,0.8355,0.849,0.8554,0.0,0.9268,0.9017,0.9332,0.9204,0.8818,0.921,0.9017,0.8565,0.8888,0.9646,1.064,1.1856,1.2552,1.2858,1.2536,1.2789,1.3111,1.285,1.3277,1.389,1.3932,1.5089,1.6472,1.7135,1.7747,1.8498,1.9797,2.007,2.0152,2.0523,2.0502,2.0307,1.99,1.951,1.9057,1.8471,1.7859,1.713,1.6332,1.4746,1.3203,1.1947,1.0656,0.9493,0.8619,0.8565,0.8565,0.8565,0.9006,0.9298,0.912,0.931,0.9543,0.976,0.9771,0.9771,0.9922,0.9772,0.9409,0.8848,0.9124,0.9351,0.9516,0.7092,0.6126,-0.3996,-0.3907,-0.3943,-0.4356,0.0,-0.4125,-0.4594,-0.4548,0.0,0.0,0.0,0.0,0.0,-0.2403,0.0,-0.3263,-0.3066,-0.2899,-0.3048,-0.2069,-0.082,0.034,0.264,0.0,0.0,0.0,0.0,0.0,0.0,0.0,0.6186,0.5957,0.6077,0.6547,0.7207,0.7912,0.882,0.9606,0.9576,0.8608,0.8608,0.8608,0.8608,0.9,0.9128,0.9192,0.9958,1.0091,0.9709,1.0155,1.0091,0.9709,1.0085,0.9837,0.9338,0.9837,1.0338,1.0836,1.167,1.2305,1.2674,1.2274,1.2536,1.292,1.2536,1.285,1.3363,1.3571,1.4855,1.6301,1.718,1.8038,1.9121,2.0733,2.0993,2.1077,2.186,2.1846,2.1629,2.1403,2.1113,2.0782,2.0245,1.9438,1.8756,1.8352,1.6729,1.5118,1.3782,1.2435,1.1136,0.9761,0.9502,0.9356,0.9297,0.9928,1.0165,0.9742,1.016,1.0368,1.0218,1.0143,1.0067,0.969,0.934,0.8843,0.8365,0.8567,0.8423,0.7765,0.4713,0.2315,-0.506,-0.5073,-0.5227,-0.551,-0.4692,0.0,-0.5644,-0.5553,0.0,-0.5807,0.0,0.0,0.0,-0.2499,-0.2239,-0.2963,-0.3204,-0.3564,-0.4066,0.0,-0.1509,-0.0712,0.0,0.0,0.0,0.0,0.0,0.0,0.0,0.0,0.6708,0.6741,0.6877,0.7099,0.7962,0.8622,0.9142,1.0226,1.0611,1.0428,1.0428,1.0428,1.0428,1.0863,1.1108,1.1108,1.1608,1.1794,1.1794,1.1856,1.1794,1.1732,1.1461,1.108,1.071,1.1421,1.1545,1.1545,1.2305,1.256,1.2621,1.256,1.2683,1.2805,1.2797,1.2989,1.3415,1.3983,1.4805,1.568,1.6543,1.7841,1.9384,2.0979,2.1771,2.2363,2.3128,2.3478,2.342,2.2546,2.2151,2.1622,2.0696,2.0283,1.9902,1.9441,1.8487,1.727,1.5756,1.4348,1.2962,1.1658,1.0971,1.045,1.0145,1.0412,1.0779,1.1191,1.182,1.1781,1.1037,1.1037,1.0432,0.9079,0.9002,0.856,0.7859,0.7748,0.7508,0.7177,0.6909,0.3098,-0.5144,-0.5318,-0.5592,-0.5776,-0.5445,0.0,0.0,-0.6745,-0.6471,-0.7116,-0.6906,0.0,0.0,0.0,-0.2851,-0.3337,-0.3598,-0.3871,-0.4197,-0.3784,-0.2917,0.0,0.0,0.0,0.0,0.0,0.0,0.0,0.0,0.0,0.6691,0.6826,0.7056,0.7522,0.8037,0.8564,0.9088,1.0068,1.067,1.0744,1.124,1.149,1.149,1.1677,1.174,1.174,1.1919,1.1988,1.2042,1.2451,1.2389,1.1981,1.1648,1.1337,1.1101,1.1163,1.1288,1.1553,1.1802,1.2243,1.2498,1.205,1.2243,1.2621,1.2305,1.256,1.305,1.3528,1.441,1.5565,1.689,1.8263,1.9748,2.1328,2.2165,2.2802,2.3565,2.3794,2.3794,2.342,2.3422,2.319,2.2128,2.1932,2.1699,2.108,2.0273,1.9223,1.7893,1.7028,1.6007,1.447,1.3783,1.3262,1.2923,1.2998,1.3162,1.3364,1.2499,1.1741,1.1105,1.0962,1.0201,0.8689,0.8222,0.7514,0.645,0.5612,0.4961,0.4466,0.3892,0.2115,-0.462,-0.472,-0.4951,-0.5531,0.0,0.0,-0.8049,-0.7836,-0.7527,-0.8353,-0.7686,0.0,-0.5238,0.0,0.0,0.0,-0.3769,-0.4024,-0.4118,-0.4222,0.0,0.0,0.0,0.0,0.0,0.0,0.0,0.0,0.0,0.0,0.0,0.6924,0.7259,0.7927,0.8182,0.8663,0.945,1.0269,1.0918,1.1517,1.2158,1.229,1.1988,1.2174,1.2236,1.2236,1.2413,1.2474,1.2536,1.2992,1.2879,1.2466,1.2443,1.2212,1.1802,1.1593,1.1663,1.1864,1.1864,1.2182,1.2498,1.1988,1.2182,1.2498,1.2182,1.2428,1.2867,1.3285,1.4112,1.5264,1.6901,1.8466,2.0003,2.1465,2.2503,2.3419,2.4251,2.4446,2.442,2.4348,2.4609,2.449,2.3319,2.3308,2.322,2.2649,2.199,2.123,2.0273,1.9726,1.8698,1.6811,1.602,1.5384,1.4755,1.4566,1.4404,1.4379,1.2969,1.1912,1.1391,1.0875,0.9776,0.809,0.7608,0.6878,0.6011,0.5018,0.453,0.4418,0.341,0.2814,-0.3584,-0.3312,-0.3282,0.0,0.0,0.0,-0.8969,-0.8783,-0.8274,-0.9529,-0.7957,-0.6238,-0.559,-0.4856,0.0,-0.3571,-0.3754,-0.3928,-0.402,-0.4126,0.0,0.0,0.0,0.0,0.0,0.0,0.0,0.0,0.0,0.0,0.0,0.7264,0.7606,0.8457,0.8517,0.9137,1.0501,1.0853,1.1692,1.3004,1.3322,1.2964,1.205,1.2552,1.2805,1.2805,1.3277,1.3511,1.3511,1.3511,1.3511,1.3571,1.4231,1.3881,1.2981,1.2989,1.2805,1.2621,1.2621,1.2621,1.2621,1.2629,1.2629,1.2629,1.2621,1.2683,1.292,1.3537,1.3957,1.4551,1.6224,1.827,2.018,2.1315,2.2878,2.4374,2.5395,2.5589,2.5562,2.5335,2.56,2.5436,2.4128,2.4265,2.4401,2.4048,2.3575,2.3094,2.2844,2.2265,2.0962,1.8512,1.7402,1.6401,1.5307,1.467,1.4199,1.3824,1.3282,1.2714,1.2037,1.0846,0.9296,0.7338,0.7097,0.693,0.6857,0.6446,0.6792,0.78,0.6408,0.5709,-0.2802,-0.3028,0.0,-0.5061,0.0,0.0,0.0,-0.8477,0.0,0.0,-0.7668,-0.6626,-0.5525,0.0,0.0,-0.3397,-0.3458,-0.374,-0.3832,0.0,0.0,0.0,0.0,0.0,0.0,0.0,0.0,0.0,0.0,0.0,0.0,0.7478,0.7861,0.8452,0.8517,0.8927,0.9762,1.0387,1.1219,1.2297,1.2704,1.2962,1.3086,1.3208,1.3277,1.3268,1.345,1.3511,1.3511,1.3511,1.4043,1.4756,1.395,1.37,1.3623,1.3042,1.2744,1.2621,1.2621,1.2621,1.2621,1.2972,1.3094,1.3155,1.3467,1.3398,1.3208,1.3502,1.3726,1.4136,1.5323,1.7203,1.9265,2.1145,2.2878,2.4307,2.5059,2.5818,2.6377,2.6306,2.6933,2.7008,2.5408,2.5314,2.5209,2.4626,2.4213,2.3802,2.3533,2.2829,2.1764,2.0056,1.9619,1.8906,1.7466,1.6661,1.5904,1.5006,1.4103,1.3025,1.1815,1.1288,1.0089,0.8085,0.7931,0.7954,0.8167,0.806,0.8293,0.8784,0.834,0.782,-0.2619,-0.2961,0.0,-0.5334,-0.6322,-0.7345,-0.8705,0.0,0.0,0.0,-0.7421,-0.6552,-0.5218,-0.4757,0.0,-0.3409,-0.3433,-0.3595,0.0,0.0,0.0,0.0,0.0,0.0,0.0,0.0,0.0,0.0,0.0,0.0,0.0,0.7432,0.7815,0.8452,0.8517,0.8952,0.9894,1.038,1.1206,1.2343,1.2633,1.3,1.3277,1.3398,1.3407,1.3407,1.345,1.3511,1.3511,1.3812,1.4172,1.4538,1.3881,1.358,1.3442,1.2981,1.2744,1.2621,1.2621,1.2621,1.2683,1.3155,1.343,1.3576,1.3934,1.3926,1.383,1.3735,1.3683,1.3906,1.504,1.6536,1.8342,2.0753,2.2671,2.4287,2.5488,2.6228,2.6821,2.7238,2.7913,2.8019,2.6651,2.6419,2.6211,2.5608,2.4961,2.4449,2.42,2.3577,2.2787,2.1898,2.1594,2.0919,1.9541,1.8715,1.7595,1.6237,1.5145,1.3953,1.251,1.1594,1.0469,0.9174,0.9289,0.9461,0.9696,1.0328,1.0737,1.101,1.0322,0.9808,-0.303,-0.3382,0.0,-0.5663,-0.67,0.0,-0.7804,-0.9092,-0.9742,-0.8163,0.0,-0.6258,-0.4774,-0.445,-0.4209,-0.3604,-0.3409,0.0,0.0,0.0,0.0,0.0,0.0,0.0,0.0,0.0,0.0,0.0,0.0,0.0,0.0,0.7272,0.7616,0.8489,0.8528,0.9139,1.0521,1.071,1.1469,1.2805,1.2928,1.2989,1.2989,1.318,1.331,1.3302,1.3398,1.3511,1.3571,1.4172,1.4001,1.3415,1.3923,1.3623,1.2858,1.2805,1.2683,1.2621,1.2621,1.2645,1.2731,1.3205,1.3625,1.3987,1.4092,1.4417,1.456,1.4275,1.39,1.3916,1.5313,1.6224,1.751,2.0215,2.2338,2.4273,2.6238,2.6782,2.7192,2.8168,2.8649,2.8559,2.7624,2.734,2.7038,2.6497,2.5686,2.5016,2.4778,2.4365,2.3966,2.3742,2.3168,2.2457,2.1494,2.0621,1.9387,1.7582,1.6497,1.5273,1.3838,1.1872,1.0737,1.0538,1.1033,1.1388,1.1616,1.2826,1.3626,1.3913,1.2363,1.1768,-0.4754,-0.5639,0.0,0.0,-0.7598,-0.8468,-0.8104,-0.8516,-0.8745,-0.7739,-0.7141,-0.6478,-0.5319,-0.4788,-0.4196,-0.3417,-0.2715,0.0,0.0,0.0,0.0,0.0,0.0,0.0,0.0,0.0,0.0,0.0,0.0,0.0,0.7522,0.7342,0.7681,0.8791,0.8608,0.9139,1.0521,1.0521,1.1344,0.0,1.2744,1.2744,1.2867,1.2989,1.318,1.3302,1.3302,1.3407,1.3502,1.3692,1.3803,1.3983,1.345,1.3381,1.3425,1.285,1.2621,1.2621,1.2621,1.2742,1.3036,1.3526,1.3958,1.4374,1.5196,1.5305,1.5158,1.5504,1.4997,1.463,1.5829,1.6573,1.7568,1.9875,2.2304,2.4522,2.6004,2.7365,2.8426,2.8656,2.9146,2.9038,2.7607,2.7087,2.6449,2.5133,2.5633,2.572,2.4704,2.4839,2.4702,2.3792,2.3829,2.3478,2.2514,2.1956,2.0881,1.8971,1.8082,1.6978,1.5507,1.3305,1.2188,1.2155,1.2324,1.294,1.4183,1.4525,1.4923,1.5426,1.5077,1.4676,-0.5108,0.0,0.0,-0.7283,0.0,-0.8562,-0.8213,-0.8009,-0.7758,-0.7199,-0.6593,-0.5778,-0.4469,-0.4048,-0.3602,-0.2637,-0.2154,0.0,0.0,0.0,0.0,0.0,0.0,0.0,0.0,0.0,0.0,0.0,0.0,0.5793,0.7212,0.7394,0.7812,0.8557,0.8668,0.9194,1.0212,1.0085,1.0584,1.1717,1.16,1.16,1.1725,1.2544,1.2989,1.318,1.318,1.3233,1.3407,1.3277,1.339,1.3571,1.3103,1.3033,1.3164,1.2929,1.2773,1.2653,1.2758,1.283,1.2987,1.3584,1.4076,1.4501,1.5227,1.5426,1.5432,1.5296,1.4791,1.4452,1.5425,1.6197,1.7263,1.9679,2.2062,2.425,2.6014,2.7509,2.8672,2.9157,2.9484,2.9374,2.8418,2.7622,2.6692,2.528,2.5728,2.5966,2.528,2.5574,2.5678,2.5242,2.4823,2.4386,2.4124,2.3409,2.2171,2.0113,1.9645,1.8525,1.634,1.5123,1.4289,1.4028,1.421,1.472,1.5567,1.589,1.6224,1.6583,1.6635,1.6351,-0.4974,0.0,-0.5817,-0.7636,-0.8152,0.0,-0.8263,-0.7595,-0.6915,-0.6611,-0.5787,-0.4782,-0.3582,-0.3175,-0.2666,-0.182,0.0,0.0,0.0,0.0,0.0,0.0,0.0,0.0,0.0,0.0,0.0,0.0,0.0,0.581,0.6962,0.7446,0.7947,0.8507,0.8769,0.9254,0.9916,0.9765,0.991,1.0469,1.0353,1.0334,1.0461,1.1677,1.2474,1.2797,1.2928,1.305,1.3241,1.305,1.2989,1.292,1.2867,1.2723,1.2687,1.2981,1.2941,1.2711,1.3012,1.2941,1.2782,1.3441,1.3947,1.4362,1.4754,1.5221,1.5463,1.4886,1.4455,1.4264,1.5025,1.5747,1.6859,1.9149,2.1276,2.3455,2.5967,2.7458,2.8545,2.9374,2.9502,2.935,2.8904,2.811,2.7159,2.6028,2.6358,2.6606,2.6279,2.6649,2.6958,2.7143,2.6076,2.5505,2.5648,2.4731,2.318,2.1028,2.0767,1.9446,1.6886,1.6624,1.6229,1.5641,1.5944,1.62,1.6345,1.6967,1.7342,1.7461,1.762,1.7332,-0.5158,0.0,-0.6519,0.0,-0.7623,-0.8117,0.0,0.0,-0.6726,0.0,-0.5116,-0.4417,-0.4414,-0.3147,-0.1944,-0.1538,0.0,0.0,0.0,0.0,0.0,0.0,0.0,0.0,0.0,0.0,0.0,0.0,0.518,0.6079,0.7816,0.7812,0.8231,0.9384,0.9287,0.9505,1.0128,1.0093,1.02,1.03,0.9667,0.9628,1.0089,1.0104,1.0759,1.1988,1.2552,1.2928,1.305,1.2989,1.292,1.2805,1.2805,1.2875,1.3028,1.3076,1.3056,1.2963,1.3042,1.3056,1.2956,1.3171,1.3445,1.3776,1.4296,1.4773,1.5189,1.5557,1.5521,1.5504,1.5885,1.6083,1.6487,1.7511,1.9178,2.156,2.5392,2.7504,2.867,2.8826,2.8748,2.8319,2.7225,2.7414,2.7434,2.6678,2.8027,2.8749,2.7763,2.8652,2.8999,2.8118,2.7699,2.709,2.6133,2.5334,2.3868,2.1507,2.0488,1.907,1.7033,1.6952,1.6767,1.6492,1.6224,1.6399,1.7122,1.7254,1.7588,1.8168,1.82,1.83,-0.4578,-0.562,-0.6729,0.0,-0.7517,-0.7637,-0.7859,-0.6791,-0.551,-0.4583,-0.3698,-0.299,-0.2965,-0.1591,-0.0267,0.0263,0.0,0.0,0.0,0.0,0.0,0.0,0.0,0.0,0.0,0.0,0.0,0.0,0.5706,0.6514,0.7548,0.7983,0.8444,0.8781,0.8875,0.8898,0.8821,0.8331,0.7901,0.7601,0.7307,0.7268,0.7467,0.8066,0.9538,1.1677,1.1926,1.2367,1.2867,1.2805,1.2805,1.2821,1.2907,1.3012,1.3139,1.3521,1.338,1.3061,1.3288,1.3081,1.2836,1.3012,1.3187,1.3443,1.4028,1.4323,1.4522,1.4797,1.4865,1.4712,1.4421,1.4747,1.524,1.5633,1.7235,1.9372,2.1753,2.4641,2.7069,2.7951,2.8046,2.7715,2.7019,2.7469,2.7743,2.7351,2.858,2.9395,2.8922,2.9318,2.9433,2.8713,2.7876,2.6869,2.5554,2.4826,2.3283,2.074,1.975,1.8302,1.6191,1.5681,1.5249,1.4732,1.6079,1.7046,1.7556,1.7755,1.8009,1.8303,1.8938,1.9139,0.0,0.0,-0.6121,-0.7155,-0.7261,-0.7245,0.0,0.0,-0.4902,0.0,-0.2308,-0.1262,-0.0928,0.0133,0.1264,0.2215,0.2576,0.0,0.0,0.0,0.0,0.0,0.0,0.0,0.0,0.0,0.0,0.0,0.6161,0.6907,0.7555,0.8213,0.8508,0.8304,0.8575,0.8342,0.7571,0.639,0.5539,0.5129,0.4694,0.4589,0.4729,0.5787,0.765,1.0123,1.0982,1.1787,1.249,1.256,1.2683,1.2768,1.2916,1.3012,1.3155,1.3664,1.3518,1.3113,1.3402,1.3059,1.2594,1.2901,1.2957,1.3052,1.3561,1.3839,1.3974,1.4042,1.4109,1.4034,1.3331,1.3575,1.4088,1.3922,1.5409,1.7485,1.9703,2.2837,2.5584,2.6968,2.7384,2.7363,2.6967,2.7705,2.824,2.7988,2.9201,3.014,2.9984,3.0116,2.9972,2.9275,2.8211,2.687,2.5204,2.4169,2.2467,1.9963,1.8699,1.7162,1.5199,1.4427,1.3789,1.3376,1.5483,1.6726,1.6873,1.7578,1.7892,1.7978,1.9239,1.9657,0.0,-0.361,0.0,-0.5666,-0.6662,0.0,0.0,0.0,-0.579,-0.3766,-0.1425,0.0444,0.1335,0.1568,0.2144,0.3887,0.3889,0.0,0.0,0.0,0.0,0.0,0.0,0.0,0.0,0.0,0.0,0.0,0.6653,0.7352,0.8558,0.8432,0.8505,0.8912,0.8798,0.8263,0.7226,0.5195,0.4155,0.4166,0.2527,0.2095,0.2609,0.335,0.4663,0.6475,0.953,1.1135,1.1608,1.2305,1.2621,1.2629,1.2645,1.2798,1.3092,1.3132,1.3061,1.2996,1.3089,1.2827,1.2549,1.2624,1.2653,1.2661,1.2693,1.3092,1.3683,1.3891,1.4239,1.4466,1.3882,1.365,1.3361,1.2579,1.3433,1.606,2.1753,2.3892,2.5025,2.5929,2.6872,2.7261,2.6496,2.7847,2.8981,2.8673,3.04,3.1542,3.1058,3.1622,3.1492,2.9917,2.924,2.7879,2.5426,2.3616,2.1748,1.9709,1.722,1.5455,1.4475,1.3529,1.3224,1.3586,1.4395,1.4628,1.4366,1.6035,1.6897,1.7008,1.869,1.9447,0.0,0.0,0.0,-0.5189,-0.5659,-0.5928,-0.5957,-0.5507,-0.4419,-0.2112,-0.0151,0.1559,0.2822,0.3259,0.3632,0.4375,0.4694,0.0,0.0,0.0,0.0,0.0,0.0,0.0,0.0,0.0,0.0,0.0,0.0,0.7667,0.868,0.8837,0.8644,0.807,0.8066,0.7214,0.5386,0.4284,0.3506,0.3089,0.2531,0.2037,0.1693,0.2781,0.3758,0.4709,0.7518,0.964,1.1073,1.1663,1.2182,1.2645,1.2814,1.2981,1.3116,1.333,1.3281,1.299,1.2592,1.221,1.1762,1.1387,1.1281,1.129,1.1696,1.1973,1.2434,1.3491,1.3866,1.3905,1.3833,1.368,1.3462,1.3171,1.3295,1.4703,1.9026,2.175,2.3845,2.5412,2.604,2.6428,2.6841,2.8127,2.9122,2.9244,3.0588,3.149,3.1078,3.0968,3.0435,2.9142,2.8206,2.6777,2.466,2.2966,2.1303,1.9483,1.6643,1.4776,1.4137,1.2592,1.1772,1.1949,1.2457,1.3385,1.4741,1.5491,1.6351,1.7223,1.7824,1.8796,-0.317,0.0,0.0,0.0,0.0,-0.4973,-0.521,0.0,-0.3896,-0.1751,0.0076,0.1803,0.3721,0.4537,0.483,0.4855,0.516,0.0,0.0,0.0,0.0,0.0,0.0,0.0,0.0,0.0,0.0,0.0,0.0,0.0,0.8867,0.9011,0.8563,0.7509,0.7037,0.6187,0.4752,0.4099,0.3534,0.3008,0.2893,0.2399,0.1796,0.2768,0.3338,0.3894,0.631,0.8579,1.0578,1.1312,1.2032,1.2645,1.2822,1.2917,1.2941,1.3163,1.2971,1.2521,1.2052,1.1587,1.1094,1.0647,1.0514,1.0588,1.0982,1.1236,1.1682,1.2946,1.3301,1.3324,1.3397,1.2952,1.2652,1.3237,1.3288,1.4101,1.7513,2.0136,2.2493,2.4513,2.5273,2.5851,2.663,2.785,2.8749,2.8917,2.99,3.0584,3.0329,3.0072,2.938,2.809,2.7352,2.597,2.3576,2.2232,2.07,1.878,1.6242,1.4487,1.3854,1.2215,1.1289,1.1271,1.1512,1.2481,1.3927,1.4565,1.5311,1.6272,1.6856,1.793,0.0,0.0,0.0,0.0,0.0,0.0,-0.5427,0.0,-0.4554,-0.2781,-0.0936,0.123,0.4193,0.5309,0.5634,0.5483,0.5428,0.5624,0.0,0.0,0.0,0.0,0.0,0.0,0.0,0.0,0.0,0.0,0.8573,0.8819,0.9227,0.8996,0.8432,0.7451,0.5945,0.5248,0.5428,0.4841,0.443,0.4194,0.3618,0.3175,0.295,0.3117,0.3465,0.3984,0.6003,0.8051,1.0097,1.1362,1.2157,1.256,1.256,1.2621,1.2621,1.2621,1.212,1.1483,1.1483,1.1031,1.0451,1.0451,1.0451,1.0458,1.0465,1.0863,1.1451,1.2084,1.2537,1.2799,1.2659,1.1552,1.0956,1.2792,1.3288,1.4252,1.76,1.938,2.1037,2.3182,2.4654,2.5632,2.5879,2.6976,2.7766,2.7591,2.8324,2.8911,2.8911,2.8911,2.8322,2.7005,2.6722,2.5436,2.2242,2.14,1.9925,1.7513,1.5959,1.4606,1.3536,1.2497,1.1907,1.1773,1.1681,1.1676,1.1676,1.3101,1.3832,1.3913,1.5808,1.6827,-0.2819,0.0,0.0,0.0,0.0,0.0,0.0,0.0,-0.4538,-0.2129,0.03,0.28,0.5315,0.6092,0.6439,0.6712,0.6626,0.6535,0.0,0.0,0.0,0.0,0.0,0.0,0.0,0.0,0.0,0.0,0.8802,0.8901,0.9486,0.8886,0.8443,0.8374,0.7102,0.6533,0.6933,0.7009,0.7053,0.7138,0.7431,0.7156,0.643,0.6287,0.6228,0.6256,0.7279,0.8417,0.9553,1.0724,1.1454,1.1864,1.2375,1.2621,1.2621,1.2621,1.212,1.1421,1.0968,1.0332,0.9703,0.9204,0.9081,0.9116,0.9294,0.9449,0.9796,1.0872,1.1114,1.1282,1.1911,1.1547,1.126,1.2666,1.2872,1.3491,1.5887,1.8027,2.0347,2.3314,2.4641,2.5398,2.5769,2.6274,2.6475,2.6185,2.6802,2.7163,2.6946,2.6378,2.5709,2.5061,2.3346,2.1795,2.0948,1.9427,1.8186,1.7172,1.5628,1.4716,1.4448,1.3213,1.2609,1.2763,1.1765,1.1032,1.0653,1.1713,1.2892,1.41,1.5914,1.6105,-0.3049,-0.3051,-0.3094,-0.315,0.0,0.0,-0.3605,-0.4175,-0.4381,0.0,-0.0977,0.1903,0.5604,0.6935,0.7444,0.7311,0.7519,0.7678,0.0,0.0,0.0,0.0,0.0,0.0,0.0,0.87,0.8757,0.9352,0.9246,0.922,0.9593,0.8837,0.846,0.868,0.8075,0.8032,0.8427,0.9312,0.9807,1.0054,1.0767,1.0603,0.9848,0.9448,0.8974,0.8364,0.8793,0.8808,0.8684,1.0071,1.0778,1.1156,1.1864,1.212,1.212,1.212,1.167,1.0968,1.0338,0.964,0.9017,0.8641,0.8517,0.8544,0.8678,0.8786,0.9091,0.9974,1.017,1.029,1.0867,1.0748,1.0801,1.2063,1.2358,1.2931,1.4996,1.6863,1.9107,2.2241,2.3892,2.4853,2.5149,2.514,2.4959,2.4482,2.4516,2.4566,2.4269,2.3635,2.301,2.2624,2.0781,1.9325,1.8725,1.7388,1.6211,1.5418,1.4531,1.3741,1.3302,1.2524,1.196,1.1616,1.0745,0.9934,0.9173,1.0063,1.1316,1.2872,1.4354,1.4395,-0.338,-0.3458,-0.3508,-0.375,-0.3936,0.0,-0.4268,-0.4071,-0.4072,0.0,-0.3176,-0.0152,0.4958,0.7159,0.7875,0.7091,0.792,0.8592,0.824,0.0,0.0,0.0,0.0,0.0,0.9018,0.9125,0.9322,0.9549,0.962,0.9611,0.9626,0.897,0.8662,0.8793,0.8988,0.9399,0.9995,1.1569,1.2416,1.2653,1.3527,1.3588,1.2955,1.2372,1.1446,1.0319,1.0237,0.917,0.7685,0.9254,1.0062,1.0388,1.1094,1.1421,1.1421,1.1421,1.1031,1.0332,0.9837,0.9145,0.8576,0.8576,0.8517,0.8517,0.8452,0.8591,0.8829,0.9187,0.9377,0.958,0.9534,0.9495,0.9739,1.1081,1.1613,1.2358,1.433,1.5618,1.7259,1.9881,2.2168,2.3675,2.3736,2.3435,2.2994,2.2351,2.1817,2.1377,2.1151,2.0675,2.0159,1.9684,1.8426,1.7136,1.5919,1.5068,1.4005,1.265,1.2601,1.2135,1.099,1.1034,1.0403,0.9152,0.8653,0.7976,0.703,0.8328,0.954,1.0733,1.1849,1.2059,0.0,0.0,0.0,0.0,-0.3997,0.0,-0.3931,-0.3713,-0.3323,0.0,-0.1399,0.0201,0.3141,0.43,0.5013,0.5567,0.6671,0.7683,0.8399,0.8664,0.0,0.0,0.0,0.0,0.9034,0.8912,0.8932,0.9322,0.962,0.9825,0.9852,0.9654,0.9654,0.9697,0.9697,1.0198,1.1182,1.2459,1.3382,1.3931,1.4862,1.508,1.4695,1.3653,1.2622,1.1488,1.0615,0.9378,0.7981,0.7999,0.8429,0.918,1.0262,1.071,1.071,1.0975,1.0661,1.0148,1.0288,0.9722,0.8894,0.8894,0.87,0.8452,0.7992,0.7892,0.7895,0.7721,0.7799,0.795,0.8116,0.8234,0.8613,0.9518,1.0185,1.0899,1.2112,1.3383,1.4431,1.4749,1.7807,2.0317,2.0149,1.9677,1.9265,1.8889,1.8686,1.842,1.8027,1.7505,1.7049,1.649,1.4317,1.2813,1.2499,1.1379,1.0353,0.9688,0.9832,1.022,1.0876,1.0439,0.9348,0.7407,0.5174,0.3526,0.2592,0.6532,0.8523,0.8645,0.9747,0.9756,0.0,0.0,0.0,-0.4243,0.0,0.0,0.0,-0.442,-0.4088,-0.2874,-0.194,-0.0804,0.0746,0.2127,0.3327,0.4234,0.5803,0.7039,0.7563,0.8408,0.9018,0.0,0.0,0.0,0.9175,0.9094,0.9089,0.9397,0.9695,0.9922,0.9922,0.9614,0.9458,0.9458,0.9484,0.99,1.0907,1.1954,1.2862,1.3642,1.4394,1.4607,1.4213,1.3576,1.2523,1.1185,1.0271,0.8922,0.7305,0.7398,0.7391,0.7502,0.872,0.9366,0.9627,0.9952,1.0078,1.004,1.0193,0.9723,0.9025,0.8947,0.8654,0.818,0.7709,0.7573,0.7523,0.7346,0.7225,0.7187,0.7297,0.7553,0.7939,0.858,0.9223,0.9713,1.0132,1.0861,1.1266,1.0696,1.2419,1.4487,1.5928,1.6033,1.5974,1.603,1.619,1.6124,1.5809,1.53,1.4643,1.3536,1.1582,1.0221,0.978,0.8657,0.8063,0.8169,0.8321,0.7952,0.7037,0.5881,0.4584,0.3074,0.1797,0.0805,0.0204,0.3145,0.5172,0.6388,0.8038,0.8609,0.0,0.0,0.0,0.0,0.0,-0.4827,0.0,0.0,0.0,0.0,0.0,0.0,0.0,0.0,0.0,0.0,0.0,0.0,0.0,0.7692,0.0,0.0,0.0,0.0,0.9055,0.9044,0.9241,0.9549,0.9614,0.9614,0.969,0.9231,0.8922,0.8846,0.8807,0.9211,1.0101,1.0902,1.1658,1.2465,1.2947,1.3022,1.2648,1.2537,1.1626,1.0051,0.95,0.8196,0.6431,0.6805,0.6574,0.6079,0.7242,0.7957,0.8415,0.8776,0.925,0.9685,0.9765,0.9524,0.9089,0.9002,0.8428,0.7726,0.7199,0.6997,0.6937,0.686,0.6604,0.6366,0.6525,0.6738,0.702,0.7472,0.7996,0.8328,0.8258,0.8292,0.8235,0.7758,0.7872,0.8867,1.1833,1.2659,1.3002,1.3445,1.3878,1.4119,1.388,1.3451,1.2674,1.1284,0.9904,0.869,0.7716,0.6672,0.6334,0.6704,0.6491,0.5038,0.2147,0.0283,-0.1075,-0.1787,-0.1427,-0.1448,-0.166,-0.0422,0.1579,0.414,0.6212,0.7387,0.0,0.0,0.0,0.0,-0.422,0.0,0.0,0.0,-0.4987,-0.4919,0.0,0.0,-0.3722,0.0,0.0,0.0,0.0,0.0,0.5492,0.6445,0.7109,0.7513,0.0,0.0,0.0,0.8189,0.8623,0.9544,0.8998,0.8689,0.9074,0.8998,0.877,0.8232,0.821,0.8487,0.9187,0.9612,1.003,1.0317,1.0694,1.0734,1.0402,1.0372,0.9742,0.8721,0.831,0.7353,0.6121,0.587,0.5702,0.5557,0.6597,0.7055,0.7138,0.7712,0.8125,0.8565,0.8997,0.9082,0.9093,0.905,0.8282,0.7111,0.6162,0.5615,0.5222,0.4747,0.4654,0.4608,0.4799,0.4921,0.5015,0.5432,0.5598,0.5794,0.6323,0.6114,0.599,0.6452,0.631,0.6744,0.8879,1.0024,1.0656,1.0935,1.1729,1.218,1.1752,1.1408,1.1063,1.0463,0.9327,0.8097,0.7037,0.5797,0.4734,0.3851,0.2505,0.0751,-0.1472,-0.4019,-0.5391,-0.5501,-0.4575,-0.4172,-0.4557,-0.2126,-0.0,0.1905,0.348,0.4639,0.0,0.0,0.0,0.0,0.0,0.0,-0.4909,0.0,-0.539,0.0,0.0,0.0,0.0,0.0,0.0,0.0,-0.0185,0.0,0.0,0.0,0.7073,0.0,0.0,0.0,0.0,0.0,0.0,0.0,0.926,0.8941,0.8993,0.8313,0.7698,0.7007,0.6608,0.6626,0.7105,0.762,0.8093,0.8422,0.8587,0.8582,0.8417,0.8073,0.7502,0.6772,0.6447,0.5933,0.5365,0.5313,0.5339,0.5562,0.5962,0.6364,0.6638,0.7116,0.7555,0.8175,0.8664,0.8672,0.8355,0.801,0.7323,0.636,0.5805,0.5212,0.4598,0.3862,0.3635,0.3654,0.3819,0.384,0.4024,0.4858,0.5048,0.5058,0.4837,0.5195,0.5561,0.5346,0.5797,0.641,0.7457,0.8424,0.9213,0.9735,1.0702,1.1327,1.1154,1.1068,1.0549,0.9419,0.8711,0.7921,0.6864,0.5708,0.4463,0.3127,0.0727,-0.1301,-0.2765,-0.4706,-0.5945,-0.658,-0.5581,-0.5179,-0.5437,-0.2826,-0.1536,-0.1425,0.1287,0.3402,-0.2332,0.0,0.0,0.0,0.0,0.0,0.0,0.0,0.0,0.0,0.0,0.0,0.0,0.0,-0.5023,-0.3695,0.0,0.0309,0.0,0.442,0.0,0.0,0.0,0.0,0.0,0.0,0.0,0.9542,0.9083,0.868,0.852,0.7858,0.7049,0.6015,0.5225,0.5101,0.5591,0.5943,0.6335,0.6607,0.6535,0.6535,0.6603,0.6062,0.5609,0.5216,0.4954,0.4824,0.4703,0.4763,0.5026,0.5312,0.5421,0.5741,0.6191,0.6483,0.6995,0.761,0.7932,0.7816,0.7542,0.7186,0.6816,0.6387,0.5788,0.5265,0.4531,0.3008,0.2593,0.2615,0.2387,0.2562,0.2917,0.3773,0.4222,0.43,0.3762,0.4559,0.5354,0.509,0.6233,0.7295,0.7658,0.7834,0.8181,0.8694,0.9753,1.0554,1.0554,1.0641,1.0289,0.9069,0.8803,0.8269,0.7305,0.6239,0.4825,0.2876,0.027,-0.1752,-0.3097,-0.4233,-0.5158,-0.5632,-0.4696,-0.437,-0.4612,-0.2431,-0.1907,-0.303,-0.0765,0.1511,0.0,0.0,0.0,-0.2441,0.0,0.0,0.0,0.0,-0.5683,0.0,0.0,0.0,0.0,0.0,-0.6633,-0.5774,-0.3717,0.0,0.0,0.0,0.0,0.0,0.0,0.0,0.0,0.0,0.765,0.8826,0.8041,0.7377,0.72,0.7834,0.733,0.5488,0.4618,0.4584,0.5243,0.4945,0.4815,0.4903,0.4561,0.4564,0.49,0.4492,0.4353,0.4353,0.4353,0.4353,0.4298,0.4417,0.4399,0.448,0.5024,0.5301,0.5476,0.5706,0.6182,0.6566,0.6176,0.64,0.6849,0.6864,0.7377,0.762,0.6005,0.5526,0.5013,0.2195,0.1401,0.1232,0.019,0.0654,0.1382,0.1383,0.2183,0.2963,0.2963,0.3851,0.5001,0.6151,0.7815,0.9305,0.9772,0.8544,0.7573,0.7834,0.8719,0.9345,0.9345,0.9777,1.0038,0.9951,0.9951,0.9419,0.8269,0.7746,0.6017,0.266,0.1287,-0.0372,-0.2565,-0.3188,-0.3144,-0.2404,-0.1457,-0.1284,-0.1632,-0.0555,-0.0672,-0.1907,-0.2575,-0.179,0.0,0.0,-0.0729,-0.1535,0.0,0.0,0.0,0.0,0.0,0.0,0.0,0.0,0.0,0.0,-0.6266,-0.5147,-0.3855,-0.2245,0.0,0.0,0.0,0.0,0.0,0.0,0.0,0.0,0.0,0.8851,0.8113,0.7531,0.7114,0.6615,0.5793,0.4626,0.4314,0.4058,0.3862,0.4437,0.4602,0.4489,0.4353,0.4353,0.4489,0.409,0.3956,0.3956,0.3692,0.3692,0.3971,0.4159,0.4377,0.4602,0.4871,0.515,0.5405,0.5336,0.552,0.5644,0.5065,0.5235,0.5669,0.5682,0.5797,0.5681,0.5181,0.4723,0.404,0.2436,0.1894,0.1713,0.1332,0.142,0.1695,0.2356,0.2693,0.2929,0.2929,0.3798,0.5022,0.6346,0.7627,0.892,1.0046,0.9341,0.8727,0.8811,0.9082,0.9262,0.9262,0.9689,1.0038,1.0038,1.0038,0.9685,0.8986,0.8205,0.6969,0.5244,0.421,0.3297,0.2495,0.0677,-0.0493,-0.1018,0.0105,0.1394,0.306,0.2558,0.0561,-0.3031,-0.3702,-0.3813,0.1034,0.0671,0.0,-0.0358,-0.0642,0.0,-0.2125,0.0,0.0,0.0,0.0,0.0,0.0,0.0,-0.5892,-0.4748,-0.4082,-0.3134,0.0,0.0308,0.0,0.0,0.0,0.0,0.0,0.6412,0.7118,0.7654,0.7345,0.6871,0.0,0.0,0.4989,0.4077,0.3969,0.3724,0.3281,0.3896,0.4209,0.409,0.3956,0.3956,0.409,0.3756,0.3558,0.3558,0.3293,0.3311,0.3694,0.3719,0.4024,0.436,0.4626,0.4876,0.5085,0.4952,0.4751,0.4545,0.4191,0.4346,0.4688,0.4967,0.5104,0.525,0.5122,0.4756,0.4163,0.2778,0.2223,0.1944,0.1555,0.145,0.1731,0.2405,0.275,0.2991,0.2991,0.3878,0.4938,0.5786,0.7028,0.8368,0.9435,0.9339,0.9147,0.9266,0.9262,0.9262,0.9262,0.9689,0.9864,0.951,0.9423,0.9192,0.8375,0.7891,0.7399,0.689,0.6493,0.646,0.6828,0.5149,0.3743,0.2747,0.3201,0.4019,0.5248,0.4258,0.1682,-0.2356,-0.3027,-0.3913]},{"header":{"parameterUnit":"m.s-1","parameterCategory":1,"la1":30.6,"la2":29.2853,"lo1":-89.7004,"lo2":-87.6739,"dy":0.0162,"dx":0.0183,"nx":112,"ny":82,"refTime":"2023-07-11T12:00:00:Z","depth":0,"parameterNumber":3,"parameterNumberName":"V-component_of_WINDS"},"data":[0.0,0.0,0.0,0.0,0.0,0.0,0.0,0.0,0.0,0.0,0.0,0.0,0.0,0.0,0.0,0.0,0.0,0.0,0.0,0.0,0.0,0.0,0.0,0.0,0.0,0.0,0.0,0.0,0.0,0.0,0.0,0.0,0.0,0.0,0.0,0.0,0.0,0.0,0.0,0.0,0.0,0.0,0.0,0.0,0.0,0.0,0.0,0.0,0.0,0.0,0.0,0.0,0.0,0.0,0.0,0.0,0.0,0.0,0.0,0.0,0.0,0.0,0.0,0.0,0.0,0.0,0.0,0.0,0.0,0.0,0.0,0.0,0.0,0.0,0.0,0.0,0.0,0.0,0.0,0.0,0.0,0.0,0.0,0.0,0.0,0.0,0.0,0.0,0.0,0.0,-2.0154,-1.97,-1.9212,-1.8827,-1.8619,-1.8516,-1.9233,-2.1078,0.0,0.0,0.0,0.0,0.0,0.0,0.0,0.0,0.0,0.0,0.0,0.0,0.0,0.0,0.0,0.0,0.0,0.0,0.0,0.0,0.0,0.0,0.0,0.0,0.0,0.0,0.0,0.0,0.0,0.0,0.0,0.0,0.0,0.0,0.0,0.0,0.0,0.0,0.0,0.0,0.0,0.0,0.0,0.0,0.0,0.0,0.0,0.0,0.0,0.0,0.0,0.0,0.0,0.0,0.0,0.0,0.0,0.0,0.0,0.0,0.0,0.0,0.0,0.0,0.0,0.0,0.0,0.0,0.0,0.0,0.0,0.0,0.0,0.0,0.0,0.0,0.0,0.0,0.0,0.0,0.0,0.0,0.0,0.0,0.0,0.0,0.0,0.0,0.0,0.0,0.0,0.0,0.0,0.0,0.0,0.0,0.0,0.0,0.0,0.0,0.0,0.0,0.0,0.0,-2.113,-1.9161,-1.9516,-1.9535,-1.8676,-1.8634,-1.9639,-2.1958,0.0,0.0,0.0,0.0,0.0,0.0,0.0,0.0,0.0,0.0,0.0,0.0,0.0,0.0,0.0,0.0,0.0,0.0,0.0,0.0,0.0,0.0,0.0,0.0,0.0,0.0,0.0,0.0,0.0,0.0,0.0,0.0,0.0,0.0,0.0,0.0,0.0,0.0,0.0,0.0,0.0,0.0,0.0,0.0,0.0,0.0,0.0,0.0,0.0,0.0,0.0,0.0,0.0,0.0,0.0,0.0,0.0,0.0,0.0,0.0,0.0,0.0,0.0,0.0,0.0,0.0,0.0,0.0,0.0,0.0,0.0,0.0,0.0,0.0,0.0,0.0,0.0,0.0,0.0,0.0,0.0,0.0,0.0,0.0,0.0,0.0,0.0,0.0,0.0,0.0,0.0,0.0,0.0,0.0,0.0,0.0,0.0,0.0,0.0,0.0,0.0,0.0,0.0,-2.2074,-2.1261,-2.0361,-2.0208,-1.9898,-1.9298,-1.9317,-1.9986,-2.1498,-2.2204,0.0,0.0,0.0,0.0,0.0,0.0,0.0,0.0,0.0,0.0,0.0,0.0,0.0,0.0,0.0,0.0,0.0,0.0,0.0,0.0,0.0,0.0,0.0,0.0,0.0,0.0,0.0,0.0,0.0,0.0,0.0,0.0,0.0,0.0,0.0,0.0,0.0,0.0,0.0,0.0,0.0,0.0,0.0,0.0,0.0,0.0,0.0,0.0,0.0,0.0,0.0,0.0,0.0,0.0,0.0,0.0,0.0,0.0,0.0,0.0,0.0,0.0,0.0,0.0,0.0,0.0,0.0,0.0,0.0,0.0,0.0,0.0,0.0,0.0,0.0,0.0,0.0,0.0,0.0,0.0,0.0,0.0,0.0,0.0,0.0,0.0,0.0,0.0,0.0,0.0,0.0,0.0,0.0,0.0,0.0,0.0,0.0,0.0,0.0,0.0,0.0,0.0,-2.191,-2.1327,-2.1533,-2.0723,-2.0087,-1.9869,-1.9896,-2.0372,-2.1309,-2.2196,0.0,0.0,0.0,0.0,0.0,0.0,0.0,0.0,0.0,0.0,0.0,0.0,0.0,0.0,0.0,0.0,0.0,0.0,0.0,0.0,0.0,0.0,0.0,0.0,0.0,0.0,0.0,0.0,0.0,0.0,0.0,0.0,0.0,0.0,0.0,0.0,0.0,0.0,0.0,0.0,0.0,0.0,0.0,0.0,0.0,0.0,0.0,0.0,0.0,0.0,0.0,0.0,0.0,0.0,0.0,0.0,0.0,0.0,0.0,0.0,0.0,0.0,0.0,0.0,0.0,0.0,0.0,0.0,0.0,0.0,0.0,0.0,0.0,0.0,0.0,0.0,0.0,0.0,0.0,0.0,0.0,0.0,0.0,0.0,0.0,0.0,0.0,0.0,0.0,0.0,0.0,0.0,0.0,0.0,0.0,0.0,0.0,0.0,0.0,0.0,0.0,0.0,-2.2707,-2.1662,-2.1672,-2.0739,-2.0067,-1.9984,-2.0036,-2.0756,-2.2393,-2.2725,0.0,0.0,0.0,0.0,0.0,0.0,0.0,0.0,0.0,0.0,0.0,0.0,0.0,0.0,0.0,0.0,0.0,0.0,0.0,0.0,0.0,0.0,0.0,0.0,0.0,0.0,0.0,0.0,0.0,0.0,0.0,0.0,0.0,0.0,0.0,0.0,0.0,0.0,0.0,0.0,0.0,0.0,0.0,0.0,0.0,0.0,0.0,0.0,0.0,0.0,0.0,0.0,0.0,0.0,0.0,0.0,0.0,0.0,0.0,0.0,0.0,0.0,0.0,0.0,0.0,0.0,0.0,0.0,0.0,0.0,0.0,0.0,0.0,0.0,0.0,0.0,0.0,0.0,0.0,0.0,0.0,0.0,0.0,0.0,0.0,0.0,0.0,0.0,0.0,0.0,0.0,0.0,0.0,0.0,0.0,0.0,0.0,0.0,0.0,0.0,0.0,0.0,-2.4104,-2.3147,0.0,-2.1565,-2.0727,-2.0116,-2.0127,-2.0436,-2.1051,0.0,0.0,0.0,0.0,0.0,0.0,0.0,0.0,0.0,0.0,0.0,0.0,0.0,0.0,0.0,0.0,0.0,0.0,0.0,0.0,0.0,0.0,0.0,0.0,0.0,0.0,0.0,0.0,0.0,0.0,0.0,0.0,0.0,0.0,0.0,0.0,0.0,0.0,0.0,0.0,0.0,0.0,0.0,0.0,0.0,0.0,0.0,0.0,0.0,0.0,0.0,0.0,0.0,0.0,0.0,0.0,0.0,0.0,0.0,0.0,0.0,0.0,0.0,0.0,0.0,0.0,0.0,0.0,0.0,0.0,0.0,0.0,0.0,0.0,0.0,0.0,0.0,0.0,0.0,0.0,0.0,0.0,0.0,0.0,0.0,0.0,0.0,0.0,0.0,0.0,0.0,0.0,0.0,0.0,0.0,0.0,0.0,0.0,0.0,0.0,0.0,0.0,-2.5625,-2.4901,-2.401,0.0,-2.2043,-2.1132,-2.0208,-2.0192,-2.0484,-2.1059,0.0,0.0,0.0,0.0,0.0,0.0,0.0,0.0,0.0,0.0,0.0,0.0,0.0,0.0,0.0,0.0,0.0,0.0,0.0,0.0,0.0,0.0,0.0,0.0,0.0,0.0,0.0,0.0,0.0,0.0,0.0,0.0,0.0,0.0,0.0,0.0,0.0,0.0,0.0,0.0,0.0,0.0,0.0,0.0,0.0,0.0,0.0,0.0,0.0,0.0,0.0,0.0,0.0,0.0,0.0,0.0,0.0,0.0,0.0,0.0,0.0,0.0,0.0,0.0,0.0,0.0,0.0,0.0,0.0,0.0,0.0,0.0,0.0,0.0,0.0,0.0,0.0,0.0,0.0,0.0,0.0,0.0,0.0,0.0,0.0,0.0,0.0,0.0,0.0,0.0,0.0,0.0,0.0,0.0,0.0,0.0,0.0,0.0,0.0,0.0,0.0,0.0,-2.5683,-2.494,-2.4004,-2.2902,-2.2036,-2.1163,-2.0277,-2.0271,-2.1069,0.0,0.0,0.0,0.0,0.0,0.0,0.0,0.0,0.0,0.0,0.0,0.0,0.0,0.0,0.0,0.0,0.0,0.0,0.0,0.0,0.0,0.0,0.0,0.0,0.0,0.0,0.0,0.0,0.0,0.0,0.0,0.0,0.0,0.0,0.0,0.0,0.0,0.0,0.0,0.0,0.0,0.0,0.0,0.0,0.0,0.0,0.0,0.0,0.0,0.0,0.0,0.0,0.0,0.0,0.0,0.0,0.0,0.0,0.0,0.0,0.0,0.0,0.0,0.0,0.0,0.0,0.0,0.0,0.0,0.0,0.0,0.0,0.0,0.0,0.0,0.0,0.0,0.0,0.0,0.0,0.0,0.0,0.0,0.0,0.0,0.0,0.0,0.0,0.0,0.0,0.0,0.0,0.0,0.0,0.0,0.0,0.0,0.0,0.0,0.0,0.0,0.0,0.0,-2.5565,-2.5297,-2.4487,-2.2888,-2.2419,-2.1665,-2.0319,-2.0212,-2.0766,-2.1996,0.0,0.0,0.0,0.0,0.0,0.0,0.0,0.0,0.0,0.0,0.0,0.0,0.0,0.0,0.0,0.0,0.0,0.0,0.0,0.0,0.0,0.0,0.0,0.0,0.0,0.0,0.0,0.0,0.0,0.0,0.0,0.0,0.0,0.0,0.0,0.0,0.0,0.0,0.0,0.0,0.0,0.0,0.0,0.0,0.0,0.0,0.0,0.0,0.0,0.0,0.0,0.0,0.0,0.0,0.0,0.0,0.0,0.0,0.0,0.0,0.0,0.0,0.0,0.0,0.0,0.0,0.0,0.0,0.0,0.0,0.0,0.0,0.0,0.0,0.0,0.0,0.0,0.0,0.0,0.0,0.0,0.0,0.0,0.0,0.0,0.0,0.0,0.0,0.0,0.0,0.0,0.0,0.0,0.0,0.0,0.0,0.0,0.0,0.0,0.0,0.0,0.0,-2.5325,-2.4966,-2.4145,-2.2662,-2.2179,-2.1462,-2.0257,-2.021,-2.0673,-2.1675,0.0,0.0,0.0,0.0,0.0,0.0,0.0,0.0,0.0,0.0,0.0,0.0,0.0,0.0,0.0,0.0,0.0,0.0,0.0,0.0,0.0,0.0,0.0,0.0,0.0,0.0,0.0,0.0,0.0,0.0,0.0,0.0,0.0,0.0,0.0,0.0,0.0,0.0,0.0,0.0,0.0,0.0,0.0,0.0,0.0,0.0,0.0,0.0,0.0,0.0,0.0,0.0,0.0,0.0,0.0,0.0,0.0,0.0,0.0,0.0,0.0,0.0,0.0,0.0,0.0,0.0,0.0,0.0,0.0,0.0,0.0,0.0,0.0,0.0,0.0,0.0,0.0,0.0,0.0,0.0,0.0,0.0,0.0,0.0,0.0,0.0,0.0,0.0,0.0,0.0,0.0,0.0,0.0,0.0,0.0,0.0,0.0,0.0,0.0,0.0,0.0,0.0,-2.4992,-2.4254,-2.3389,-2.2388,-2.1676,-2.1016,-2.0364,-2.0441,-2.0906,-2.1823,0.0,0.0,0.0,0.0,0.0,0.0,0.0,0.0,0.0,0.0,0.0,0.0,0.0,0.0,0.0,0.0,0.0,0.0,0.0,0.0,0.0,0.0,0.0,0.0,0.0,0.0,0.0,0.0,0.0,0.0,0.0,0.0,0.0,0.0,0.0,0.0,0.0,0.0,0.0,0.0,0.0,0.0,0.0,0.0,0.0,0.0,0.0,0.0,0.0,0.0,0.0,0.0,0.0,0.0,0.0,0.0,0.0,0.0,0.0,0.0,-1.9981,0.0,0.0,0.0,0.0,0.0,0.0,0.0,0.0,0.0,0.0,0.0,0.0,0.0,0.0,0.0,0.0,0.0,0.0,0.0,0.0,0.0,0.0,0.0,0.0,0.0,0.0,0.0,0.0,0.0,0.0,0.0,0.0,0.0,0.0,0.0,0.0,0.0,0.0,0.0,0.0,0.0,-2.4669,-2.4437,-2.3955,-2.3002,-2.2765,-2.2472,-2.1954,-2.2038,-2.2238,-2.257,-2.2095,0.0,0.0,0.0,0.0,0.0,0.0,0.0,0.0,0.0,0.0,0.0,0.0,0.0,0.0,0.0,0.0,0.0,0.0,0.0,0.0,0.0,0.0,0.0,0.0,0.0,0.0,0.0,0.0,0.0,0.0,0.0,0.0,0.0,0.0,0.0,0.0,0.0,0.0,0.0,0.0,0.0,0.0,0.0,0.0,0.0,0.0,0.0,0.0,0.0,0.0,0.0,0.0,0.0,0.0,0.0,0.0,0.0,0.0,0.0,0.0,-1.9798,0.0,0.0,0.0,0.0,0.0,0.0,0.0,0.0,0.0,0.0,0.0,0.0,0.0,0.0,0.0,0.0,0.0,0.0,0.0,0.0,0.0,0.0,0.0,0.0,0.0,0.0,0.0,0.0,0.0,0.0,0.0,0.0,0.0,0.0,0.0,0.0,0.0,0.0,0.0,0.0,-2.413,-2.3768,-2.338,-2.2995,-2.2259,-2.1956,-2.2369,-2.2102,-2.1979,-2.2114,-2.243,0.0,0.0,0.0,0.0,0.0,0.0,0.0,0.0,0.0,0.0,0.0,0.0,0.0,0.0,0.0,0.0,0.0,0.0,0.0,0.0,0.0,0.0,0.0,0.0,0.0,0.0,0.0,0.0,0.0,0.0,0.0,0.0,0.0,0.0,0.0,0.0,0.0,0.0,0.0,0.0,0.0,0.0,0.0,0.0,0.0,0.0,0.0,0.0,0.0,0.0,0.0,0.0,0.0,-2.1249,-2.0795,-1.9911,-1.9875,-1.9611,-1.9196,-1.979,-1.9848,-1.955,-1.9885,0.0,0.0,0.0,0.0,0.0,0.0,0.0,0.0,0.0,0.0,0.0,0.0,0.0,0.0,0.0,0.0,0.0,0.0,0.0,0.0,0.0,0.0,0.0,0.0,-2.4495,-2.4586,0.0,0.0,0.0,0.0,0.0,0.0,0.0,0.0,0.0,0.0,0.0,0.0,-2.3599,-2.3016,-2.2707,-2.2775,-2.1588,-2.1219,-2.2294,-2.1919,-2.1616,-2.1588,-2.2939,-2.3481,0.0,0.0,0.0,0.0,0.0,0.0,0.0,0.0,0.0,0.0,0.0,0.0,0.0,0.0,0.0,0.0,0.0,0.0,0.0,0.0,0.0,0.0,0.0,0.0,0.0,0.0,0.0,0.0,0.0,0.0,0.0,0.0,-2.4736,-2.3948,0.0,0.0,0.0,0.0,0.0,0.0,0.0,0.0,0.0,0.0,0.0,0.0,0.0,-2.208,-2.1962,-2.1882,-2.1652,-2.1291,-2.1465,-2.1146,-2.0404,-2.0225,-1.987,-1.9451,-1.9737,0.0,-1.9653,-1.9364,0.0,0.0,0.0,0.0,0.0,0.0,0.0,0.0,0.0,0.0,0.0,0.0,0.0,0.0,0.0,0.0,0.0,0.0,0.0,0.0,0.0,0.0,-2.1564,-2.3031,-2.3869,-2.4335,0.0,-2.4462,-2.4651,-2.4785,-2.4917,0.0,0.0,0.0,0.0,0.0,0.0,0.0,-2.333,-2.3315,-2.3199,-2.2772,-2.2518,-2.2371,-2.2323,-2.2916,-2.2987,-2.2306,-2.3114,-2.3587,-2.3479,-2.3498,0.0,0.0,0.0,0.0,0.0,0.0,0.0,0.0,0.0,0.0,0.0,0.0,0.0,0.0,0.0,0.0,0.0,0.0,0.0,0.0,0.0,0.0,0.0,0.0,0.0,0.0,0.0,0.0,0.0,-2.4935,-2.5004,-2.4168,-2.4658,-2.4946,0.0,0.0,0.0,0.0,0.0,0.0,0.0,0.0,0.0,-2.2008,-2.2558,-2.2726,-2.2436,-2.2676,-2.2533,-2.1975,-2.207,-2.1623,-2.0736,-2.0575,-2.0162,-1.9479,-1.9551,-1.9722,-1.992,-1.9865,-1.9739,-1.9665,0.0,0.0,0.0,0.0,-2.008,-2.0388,-2.0246,-2.0282,0.0,-2.0509,0.0,0.0,0.0,0.0,0.0,0.0,0.0,0.0,0.0,0.0,-2.2689,-2.3771,-2.431,-2.4567,-2.454,-2.462,-2.4666,0.0,-2.4648,-2.4727,-2.4572,0.0,0.0,0.0,0.0,-2.3738,-2.3522,-2.3522,-2.3572,-2.3603,-2.2794,-2.2451,-2.2999,-2.252,-2.2243,-2.2382,-2.3221,-2.3663,-2.354,-2.3944,-2.4328,0.0,0.0,0.0,0.0,0.0,0.0,0.0,0.0,0.0,0.0,0.0,0.0,0.0,0.0,0.0,0.0,0.0,0.0,0.0,0.0,0.0,0.0,0.0,0.0,0.0,0.0,0.0,0.0,-2.4887,-2.513,-2.4322,-2.4691,-2.5018,0.0,0.0,0.0,0.0,0.0,0.0,-2.2243,-2.2808,-2.305,-2.2844,-2.3279,-2.3344,-2.3014,-2.3392,-2.3282,-2.2686,-2.2686,-2.2201,-2.1238,-2.1146,-2.0555,-1.9615,-1.9681,-1.9788,-1.9989,-2.0145,-2.0127,-1.9944,-2.0128,-2.0437,-2.0802,-2.0592,-2.0855,-2.1249,-2.1164,-2.1187,-2.1288,-2.1404,0.0,-2.1516,-2.1824,0.0,0.0,0.0,0.0,-2.1782,-2.2547,-2.3158,-2.3742,-2.4563,-2.4828,-2.4902,-2.4879,-2.4921,-2.4861,0.0,-2.4575,-2.4642,-2.4594,0.0,0.0,0.0,0.0,-2.3692,-2.3746,-2.3542,-2.3484,-2.3704,-2.2492,-2.1928,-2.2615,-2.1751,-2.1524,-2.2376,-2.329,-2.3815,-2.387,-2.444,-2.4746,-2.4753,0.0,0.0,0.0,0.0,0.0,0.0,0.0,0.0,0.0,0.0,0.0,0.0,0.0,0.0,0.0,0.0,0.0,0.0,0.0,0.0,0.0,0.0,0.0,0.0,0.0,0.0,0.0,0.0,0.0,-2.4388,-2.428,0.0,0.0,0.0,0.0,-2.5116,-2.5231,-2.4908,-2.402,-2.456,-2.444,-2.3479,-2.3861,-2.3984,-2.3844,-2.3674,-2.3504,-2.3257,-2.3257,-2.2898,-2.2217,-2.2017,-2.1201,-1.9901,-2.0333,-2.0177,-1.9632,-1.9702,-2.0173,-2.0803,-2.0499,-2.0587,-2.0902,-2.088,-2.1131,-2.1479,-2.1479,-2.1607,-2.1762,-2.1778,-2.183,-2.1911,-2.2131,-2.2168,0.0,0.0,-2.2451,-2.2639,-2.3507,-2.3705,-2.3893,-2.4698,-2.505,-2.5164,-2.5101,-2.5222,-2.5248,0.0,-2.4832,-2.4795,-2.4548,0.0,-2.4351,-2.395,-2.3888,-2.3886,-2.3873,-2.329,-2.2679,-2.2271,-2.1459,-2.0734,-2.0228,-2.0855,-2.1635,-2.2445,-2.3308,-2.4144,-2.4886,-2.4902,-2.4884,-2.4884,-2.4505,0.0,0.0,0.0,0.0,0.0,0.0,0.0,0.0,0.0,0.0,0.0,0.0,0.0,0.0,0.0,0.0,0.0,0.0,0.0,0.0,0.0,0.0,0.0,0.0,0.0,0.0,0.0,0.0,-2.511,-2.5088,0.0,-2.5098,-2.4539,-2.4274,-2.457,-2.4609,-2.4449,-2.4111,-2.4678,-2.4847,-2.4487,-2.452,-2.4472,-2.4281,-2.4137,-2.3968,-2.3812,-2.3728,-2.3487,-2.3124,-2.3057,-2.25,-2.1567,-2.1812,-2.1679,-2.1368,-2.165,-2.1691,-2.1623,-2.1906,-2.2273,-2.2643,-2.2729,-2.2977,-2.3233,-2.3233,-2.327,-2.3271,-2.3271,-2.341,-2.3515,-2.3159,-2.3139,-2.3153,-2.2815,-2.3112,-2.3611,-2.3976,-2.4409,-2.486,-2.5161,-2.5317,-2.5399,-2.5368,-2.541,-2.542,-2.5272,-2.5178,-2.5057,-2.4974,-2.4828,-2.4753,-2.4742,-2.4482,-2.4401,-2.47,-2.3908,-2.3299,-2.3255,-2.2038,-2.1141,-2.0983,-2.0783,-2.1225,-2.2547,-2.3004,-2.3756,-2.4949,-2.5111,-2.5031,-2.4775,-2.4538,-2.4389,0.0,0.0,0.0,0.0,0.0,0.0,0.0,0.0,0.0,0.0,0.0,0.0,0.0,0.0,0.0,0.0,0.0,0.0,0.0,0.0,0.0,0.0,0.0,0.0,0.0,0.0,-2.5527,-2.5526,-2.5325,-2.5291,-2.558,-2.4786,-2.4372,-2.4616,-2.4593,-2.4532,-2.4475,-2.482,-2.4998,-2.4974,-2.4869,-2.4741,-2.4595,-2.4516,-2.44,-2.4298,-2.4264,-2.4135,-2.393,-2.3674,-2.2984,-2.2064,-2.2059,-2.1837,-2.1497,-2.2114,-2.2355,-2.2428,-2.3086,-2.3603,-2.3981,-2.4081,-2.427,-2.4509,-2.4527,-2.4507,-2.4468,-2.4463,-2.4576,-2.4657,-2.4233,-2.4221,-2.4243,-2.3839,-2.413,-2.4587,-2.4658,-2.5039,-2.5429,-2.5453,-2.55,-2.5527,-2.5487,-2.5478,-2.5447,-2.5408,-2.5351,-2.5303,-2.5307,-2.5146,-2.5072,-2.5216,-2.469,-2.4416,-2.4743,-2.3675,-2.2965,-2.3141,-2.1895,-2.1069,-2.1127,-2.0643,-2.0911,-2.2281,-2.2455,-2.3165,-2.4632,-2.4502,-2.4469,-2.4655,-2.428,-2.3928,-2.3696,0.0,0.0,0.0,0.0,0.0,0.0,0.0,0.0,0.0,0.0,0.0,0.0,0.0,0.0,0.0,0.0,0.0,0.0,0.0,0.0,0.0,0.0,0.0,-2.5195,-2.5432,-2.5602,-2.5605,-2.4904,-2.4748,-2.5515,-2.4884,-2.4723,-2.5459,-2.5511,-2.5412,-2.5222,-2.5096,-2.5005,-2.493,-2.4874,-2.4837,-2.4818,-2.4818,-2.4771,-2.4727,-2.4842,-2.4816,-2.461,-2.3809,-2.2663,-2.1294,-2.115,-2.0642,-1.9994,-2.0978,-2.2071,-2.3215,-2.3925,-2.4413,-2.4703,-2.4722,-2.4886,-2.5126,-2.5177,-2.5209,-2.5213,-2.5209,-2.5206,-2.5218,-2.5282,-2.534,-2.5418,-2.5476,-2.5503,-2.5502,-2.5581,-2.5545,-2.5527,-2.5583,-2.5595,-2.5561,-2.5413,-2.5412,-2.5357,-2.5231,-2.5361,-2.5496,-2.5492,-2.5387,-2.5304,-2.5265,-2.4503,0.0,-2.3965,-2.253,-2.1583,-2.1729,-2.0971,-2.0443,-2.0445,-2.0449,-2.0817,-2.1657,-2.1701,-2.2422,-2.3991,-2.3141,-2.3255,-2.4527,-2.3674,-2.3007,-2.2659,0.0,0.0,0.0,0.0,0.0,0.0,0.0,0.0,0.0,0.0,0.0,0.0,0.0,0.0,0.0,0.0,0.0,0.0,0.0,0.0,0.0,0.0,-2.5308,-2.547,-2.5506,-2.5549,-2.5598,-2.5391,-2.5357,-2.5581,-2.5401,-2.5337,-2.549,-2.5451,-2.5398,-2.5351,-2.585,-2.5887,-2.5274,-2.5859,-2.5898,-2.5322,-2.5205,-2.5154,-2.5124,-2.5118,-2.5099,-2.5107,-2.4734,-2.4149,-2.3427,-2.3103,-2.2865,-2.272,-2.2839,-2.3296,-2.3946,-2.4383,-2.4701,-2.494,-2.5087,-2.5246,-2.5383,-2.5363,-2.5372,-2.5408,-2.5358,-2.534,-2.5362,-2.5425,-2.5422,-2.541,-2.5479,-2.5507,-2.55,-2.5522,-2.5502,-2.549,-2.5525,-2.5456,-2.5365,-2.5343,-2.5293,-2.5231,-2.5212,-2.5234,-2.5312,-2.5408,-2.5527,-2.5369,-2.468,-2.4397,0.0,-2.3431,-2.2384,-2.1977,-2.2635,-2.1942,-2.1415,-2.1422,-2.1464,-2.1542,-2.1685,-2.176,-2.2192,-2.3118,-2.3491,-2.3743,-2.386,-2.333,-2.2626,0.0,0.0,0.0,0.0,0.0,0.0,0.0,0.0,0.0,0.0,0.0,0.0,0.0,0.0,0.0,0.0,0.0,0.0,0.0,0.0,0.0,0.0,-2.5048,-2.5356,-2.5503,-2.5538,-2.5574,-2.5626,-2.5625,-2.5732,-2.6118,-2.6149,-2.612,-2.6087,-2.6384,-2.6404,-2.6022,-2.6438,-2.6467,-2.5962,-2.6116,-2.597,-2.5511,-2.5412,-2.5367,-2.5302,-2.5322,-2.533,-2.5329,-2.4951,-2.4458,-2.3857,-2.3472,-2.3127,-2.2928,-2.2855,-2.3242,0.0,0.0,0.0,0.0,0.0,-2.5473,-2.5535,-2.5461,-2.55,-2.5538,-2.5469,-2.5444,-2.5449,-2.5499,-2.5467,-2.5459,-2.5489,-2.5498,-2.543,-2.5057,-2.5232,-2.5379,-2.4971,-2.5082,-2.5243,-2.5154,-2.5096,-2.5063,-2.5006,-2.5044,0.0,-2.5176,-2.5095,-2.4852,-2.4334,-2.373,-2.3123,-2.2625,-2.18,-2.1453,-2.1965,-2.1561,-2.126,-2.1258,-2.1288,0.0,0.0,0.0,-2.209,-2.2722,-2.3594,0.0,0.0,0.0,-2.2269,-2.1642,0.0,0.0,0.0,-2.2247,-2.2442,0.0,0.0,0.0,0.0,0.0,0.0,0.0,0.0,0.0,0.0,0.0,0.0,0.0,0.0,0.0,0.0,-2.4791,-2.5304,-2.5395,-2.5499,-2.5609,-2.5671,-2.5718,-2.6048,-2.6812,-2.6984,-2.7047,-2.7042,-2.7755,-2.7835,-2.7,0.0,0.0,0.0,0.0,-2.5751,-2.5662,-2.5565,-2.5456,-2.5348,-2.5456,-2.5473,-2.5406,-2.4832,-2.4165,-2.3417,-2.3026,-2.2479,-2.1936,-2.2054,-2.266,-2.3644,-2.4384,-2.4889,-2.5169,-2.5261,-2.5362,-2.5439,-2.5393,0.0,0.0,-2.5519,-2.5473,-2.545,-2.5445,-2.5461,-2.5437,-2.5466,-2.5476,-2.529,-2.4516,-2.4899,-2.5247,-2.4358,-2.4659,-2.5122,-2.4956,-2.4888,-2.4842,-2.4723,-2.4804,-2.4872,-2.4917,-2.4463,-2.4093,-2.4058,-2.2768,-2.175,-2.1671,-2.0985,-2.052,-2.0625,0.0,0.0,-2.0642,-2.0644,-2.0639,-2.0593,-2.1342,-2.2107,-2.2804,-2.3539,-2.3529,-2.2632,-2.2306,-2.2096,-2.201,-2.157,-2.1633,-2.2157,-2.1827,-2.2205,0.0,0.0,0.0,0.0,0.0,0.0,0.0,0.0,0.0,0.0,0.0,0.0,0.0,0.0,0.0,-2.4994,-2.517,-2.5254,-2.5382,-2.5473,-2.5546,-2.5617,-2.622,-2.6707,-2.688,-2.7532,-2.7943,-2.7947,-2.8093,-2.8108,-2.7868,-2.8456,-2.8501,-2.785,-2.7668,-2.7295,-2.6631,-2.5932,-2.5577,-2.5551,0.0,0.0,-2.5556,-2.5214,-2.4807,-2.432,-2.3821,-2.3489,-2.3304,-2.3215,-2.3716,-2.4479,-2.4067,-2.4088,-2.4268,-2.3715,-2.3952,-2.4549,-2.4542,-2.4932,-2.5442,-2.5414,-2.5316,-2.5176,-2.518,-2.5137,0.0,-2.5236,-2.5269,-2.5233,-2.512,-2.5216,-2.5293,-2.5091,-2.5026,-2.5043,-2.4994,-2.4847,-2.4738,-2.4707,-2.4719,-2.479,-2.4949,-2.4495,-2.3876,-2.3164,-2.2345,-2.1549,-2.0837,-2.0606,-2.074,-2.1396,-2.1472,-2.1473,-2.1473,-2.1513,-2.126,-2.0566,-2.1273,-2.2314,-2.3611,-2.3625,-2.3529,-2.3389,-2.317,-2.2686,-2.2,-2.1744,-2.2146,-2.3139,-2.3015,-2.3366,0.0,0.0,0.0,0.0,0.0,0.0,0.0,0.0,0.0,0.0,0.0,-2.6412,0.0,0.0,-2.5537,-2.594,-2.6304,-2.6563,-2.6629,-2.6719,-2.6637,-2.6292,-2.663,-2.7246,-2.8114,-2.86,-2.8856,-2.8842,-2.9257,-2.9296,-2.8838,-2.9171,-2.9223,-2.8812,-2.795,-2.7312,-2.6889,-2.6067,-2.5854,-2.6248,-2.5834,-2.5868,-2.6229,-2.5696,-2.5308,-2.5027,-2.4695,-2.4465,-2.4296,-2.422,-2.4545,-2.4974,-2.4207,-2.3976,-2.4017,-2.3276,-2.3527,-2.4173,-2.367,-2.4284,-2.521,-2.4739,-2.4803,-2.505,-2.505,-2.5038,-2.5019,-2.5164,-2.5187,-2.5018,-2.4255,-2.4678,-2.5062,-2.4158,-2.4545,-2.5075,-2.4974,-2.4865,-2.4783,-2.4723,-2.4707,-2.4749,-2.4923,-2.44,-2.3687,-2.2926,-2.2571,-2.2084,-2.1216,-2.1473,-2.172,-2.1617,-2.1608,-2.159,-2.1556,-2.2016,-2.2321,-2.2394,-2.275,-2.3458,-2.4605,-2.4312,-2.4085,-2.404,-2.3669,-2.3187,-2.2681,-2.2547,-2.2897,-2.374,-2.4237,-2.4691,0.0,0.0,0.0,0.0,0.0,0.0,0.0,-3.0761,-3.0319,-3.0404,-2.9633,-2.8366,-2.647,-2.6658,-2.7068,-2.6897,-2.7466,-2.7974,-2.8136,-2.8215,-2.816,-2.787,-2.7573,-2.7933,-2.9308,-2.958,-2.9688,-2.9688,-3.0334,-3.044,-2.9754,-2.9737,-2.9726,-2.9711,-2.8205,-2.7329,-2.7152,-2.635,-2.6174,-2.6641,-2.5994,-2.6011,-2.662,-2.5987,-2.5631,-2.5529,-2.5425,-2.526,-2.5046,-2.4877,-2.5031,-2.5284,-2.4302,-2.399,-2.4014,-2.3063,-2.3114,-2.357,-2.2899,-2.3649,-2.4785,-2.4193,-2.4436,-2.4942,-2.4942,-2.4942,-2.4968,-2.5111,-2.505,-2.4632,-2.3352,-2.3909,-2.4428,-2.2977,-2.3684,-2.469,-2.4669,-2.4671,-2.4667,-2.4731,-2.4738,-2.4794,-2.4943,-2.4476,-2.3839,-2.3146,-2.3002,-2.2714,-2.2017,-2.2389,-2.2448,-2.1789,-2.156,-2.1503,-2.1598,-2.2329,-2.3205,-2.4202,-2.4223,-2.4567,-2.5371,-2.5038,-2.4755,-2.4555,-2.4098,-2.3786,-2.3618,-2.3476,-2.3718,-2.4349,-2.5153,-2.5762,-3.1741,-3.1484,-3.1935,-3.321,-3.3102,-3.371,0.0,-3.6096,-3.3938,-3.3997,-3.2713,-3.0821,-2.8364,-2.7894,-2.7874,-2.7859,-2.7926,-2.8235,-2.8944,-2.9168,-2.9721,-3.1015,-2.9951,-2.9153,-2.922,-2.9928,-3.0388,-3.0386,-3.0477,-3.0522,-3.0482,-3.0521,-3.0533,-3.0488,-2.9647,-2.8842,-2.8057,-2.7198,-2.6418,-2.5733,-2.5655,-2.5658,-2.574,-2.5641,-2.5644,-2.5685,-2.5658,-2.5636,-2.5556,-2.4779,-2.4923,-2.5495,-2.3848,-2.3621,-2.3993,-2.2352,-2.1745,-2.1799,-2.2393,-2.3107,-2.3897,-2.4553,-2.4766,-2.4719,-2.4719,-2.4719,-2.4779,-2.4968,-2.4511,-2.3926,-2.3809,-2.3399,-2.294,-2.2738,-2.2743,-2.302,-2.3764,-2.3827,-2.3982,-2.4719,-2.487,-2.4947,-2.5122,-2.5088,-2.4773,-2.3984,-2.3319,-2.284,-2.2705,-2.209,-2.1875,-2.2421,-2.1786,-2.1621,-2.2321,-2.2575,-2.3113,-2.4058,-2.4222,-2.4619,-2.5361,-2.5359,-2.5148,-2.4779,-2.4753,-2.4624,-2.4385,-2.4185,-2.4464,-2.5171,-2.528,-2.5889,-3.2716,-3.3073,-3.3563,-3.385,-3.5185,-3.682,-3.8286,-3.7599,-3.6668,-3.6736,-3.5391,-3.3601,-3.1601,-3.0761,-3.035,0.0,-3.0214,-3.0292,-3.055,-3.1086,-3.1671,-3.2273,-3.2089,-3.1761,-3.1397,-3.1667,-3.1699,-3.1187,-3.1603,-3.1496,-3.0595,-3.1006,-3.108,-3.0618,-2.9808,-2.9203,-2.8836,-2.7503,-2.7153,-2.7745,-2.6766,-2.6816,-2.7712,-2.6739,-2.6038,-2.5618,-2.6126,-2.6061,-2.5551,-2.5184,-2.5249,-2.5513,-2.4788,-2.4348,-2.3997,-2.2811,-2.2574,-2.2823,-2.2618,-2.3334,-2.4336,-2.4134,-2.4347,-2.4645,-2.4692,-2.4676,-2.4579,-2.4365,-2.4005,-2.3594,-2.3231,-2.3242,-2.3343,-2.3332,-2.366,-2.403,-2.4378,-2.4401,-2.4468,-2.4842,-2.4898,-2.4961,-2.5173,-2.5203,-2.5088,-2.4755,-2.4437,-2.4052,-2.3506,-2.3503,-2.3446,-2.3213,-2.283,-2.2729,-2.3107,-2.369,-2.4232,-2.4705,-2.4826,-2.5033,-2.5386,-2.5356,-2.5278,-2.5153,-2.5177,-2.5114,-2.4969,-2.4869,-2.4985,-2.5241,-2.5729,-2.6212,-3.243,-3.3299,-3.3959,-3.4367,-3.6564,-3.8722,-3.8975,-3.8955,-3.8841,-3.8694,-3.7486,-3.5894,-3.4017,-3.3145,-3.2561,-3.2136,-3.2032,-3.1984,-3.1884,-3.2562,-3.3034,-3.2955,-3.3532,-3.3857,-3.3674,-3.3245,-3.2723,-3.2086,-3.2431,-3.2166,-3.1056,-3.1391,-3.139,-3.0884,-3.0083,-2.954,-2.9306,-2.7865,-2.7632,-2.8605,-2.7389,-2.745,-2.8576,-2.7348,-2.6435,-2.5838,-2.6218,-2.6018,-2.5408,-2.5402,-2.5381,-2.5395,-2.5395,-2.4968,-2.4272,-2.3713,-2.3514,-2.3449,-2.2977,-2.3543,-2.4445,-2.3967,-2.4192,-2.4615,-2.466,-2.4645,-2.4457,-2.385,-2.3492,-2.3146,-2.2646,-2.2608,-2.2833,-2.329,-2.3682,-2.405,-2.4444,-2.4544,-2.4615,-2.4869,-2.4912,-2.4961,-2.5171,-2.5179,-2.5145,-2.5141,-2.513,-2.4897,-2.4282,-2.4657,-2.4606,-2.3666,-2.3733,-2.385,-2.3903,-2.4561,-2.5,-2.5111,-2.5214,-2.5264,-2.535,-2.5324,-2.5323,-2.5362,-2.5371,-2.5357,-2.5292,-2.5326,-2.5297,-2.5271,-2.5867,-2.618,-2.9954,-3.0808,-3.2017,-3.5299,-3.7079,-3.8689,-4.1287,-4.1235,-4.0428,-3.9721,-3.8802,-3.7364,-3.4828,-3.4293,-3.3917,-3.2918,-3.2648,-3.2574,-3.2565,-3.3094,-3.3431,-3.3293,-3.3984,-3.4745,0.0,-3.412,-3.317,-3.3152,-3.2439,-3.209,-3.2237,-3.1722,-3.1456,-3.1571,-3.0917,-3.0156,-2.9314,-2.8419,-2.7605,-2.6873,-2.6815,-2.6834,-2.6873,-2.6815,-2.6715,-2.653,-2.5699,-2.5299,-2.5197,-2.5138,-2.5107,-2.5107,-2.5107,-2.5053,-2.4984,-2.5023,-2.3976,-2.2635,-2.3341,-2.3554,-2.3671,-2.4426,-2.4626,-2.4599,-2.4615,-2.4594,-2.442,-2.3626,-2.2946,-2.2413,-2.2337,-2.1173,-2.0433,-2.2054,-2.1828,-2.1658,-2.3288,-2.3628,-2.3915,-2.4829,-2.4934,-2.4966,-2.5164,-2.5099,-2.5006,-2.5006,-2.4947,-2.4921,-2.4956,-2.4929,-2.4535,-2.361,-2.42,-2.467,-2.467,-2.4808,-2.4907,-2.4917,-2.5022,-2.5143,-2.5196,-2.5284,-2.5293,-2.5303,-2.529,-2.5306,-2.5299,-2.5375,-2.541,-2.5409,-2.5481,-2.5527,-2.9866,-3.1402,-3.3117,-3.5082,-3.7254,-3.9307,-4.1016,-4.1667,-4.1701,-4.0992,-3.9297,-3.7211,-3.4778,-3.3738,-3.2916,-3.1962,-3.2542,-3.3089,-3.2957,-3.3592,-3.4113,-3.4151,-3.4753,0.0,0.0,0.0,0.0,-3.4797,-3.4535,-3.3992,-3.3071,-3.2953,-3.2508,-3.155,-3.1415,-3.0912,-3.0045,-2.9168,-2.8878,-2.9186,-2.9186,-2.8837,-2.8206,-2.8783,-2.838,-2.7172,-2.6885,-2.6378,-2.569,-2.5042,-2.4695,-2.4557,-2.4527,-2.4605,-2.4733,-2.4714,-2.4436,-2.4125,-2.4388,-2.4398,-2.4332,-2.4613,-2.4645,-2.4519,-2.408,-2.3881,-2.3664,-2.305,-2.259,-2.2402,-2.2938,-2.259,-2.2376,-2.3459,-2.3497,-2.3456,-2.4017,-2.4214,-2.4385,-2.4714,-2.4851,-2.494,-2.505,-2.5019,-2.4942,-2.4756,-2.4716,-2.4734,-2.4794,-2.467,-2.4514,-2.4332,-2.4425,-2.451,-2.451,-2.4508,-2.4505,-2.45,-2.4542,-2.4554,-2.4535,-2.4523,-2.4584,-2.478,-2.4854,-2.5,-2.5159,-2.5286,-2.5376,-2.5453,-2.5396,-2.541,-3.0097,-3.1419,-3.2726,-3.4422,-3.6453,-3.8335,-3.9564,-4.0854,-4.1487,-4.046,-3.8822,-3.6941,-3.4836,-3.3398,-3.2344,-3.1694,-3.2222,-3.2652,-3.247,-3.3074,-3.3568,-3.3751,-3.4377,-3.4929,0.0,0.0,0.0,-3.5855,-3.5298,-3.4692,-3.4072,-3.3667,-3.294,-3.18,-3.1594,-3.1123,-3.0337,-2.9454,-2.9301,-2.9857,-2.9857,-2.9685,-2.9371,-2.966,-2.9102,-2.7918,-2.7623,-2.6881,-2.5836,-2.5171,-2.4591,-2.4155,-2.4082,-2.4173,-2.4295,-2.4316,-2.4472,-2.47,-2.4798,-2.4768,-2.4707,-2.4707,-2.4676,-2.4548,-2.4099,-2.39,-2.3716,-2.303,-2.2741,-2.2724,-2.3285,-2.3104,-2.3054,-2.4129,-2.4132,-2.3949,-2.4264,-2.4409,-2.4495,-2.4604,-2.4734,-2.4808,-2.4888,-2.4799,-2.4666,-2.4474,-2.4355,-2.4318,-2.4442,-2.4355,-2.4337,-2.4442,-2.4355,-2.4247,-2.4174,-2.4062,-2.395,-2.3892,-2.3895,-2.3876,-2.3857,-2.3894,-2.4045,-2.4276,-2.4412,-2.4618,-2.4924,-2.5072,-2.5235,-2.5383,-2.5309,-2.5322,-3.0451,-3.0761,-3.0963,-3.3352,-3.4824,-3.5978,-3.7256,-3.9048,-3.9977,-3.8334,-3.7502,-3.6568,-3.4832,0.0,-3.2279,-3.2102,-3.1871,-3.1667,-3.1513,-3.1801,-3.209,0.0,0.0,0.0,0.0,0.0,0.0,-3.6229,0.0,-3.432,-3.5227,-3.387,-3.2836,-3.2278,-3.1557,-3.089,-3.0261,-2.9402,-2.8968,-2.8968,-2.8968,-2.9388,-3.0166,-2.9398,-2.8935,-2.8707,-2.7899,-2.6865,-2.5745,-2.5485,-2.4792,-2.3876,-2.3795,-2.3774,-2.3816,-2.3941,-2.4118,-2.4336,-2.461,-2.4707,-2.4707,-2.4707,-2.4685,-2.4682,-2.4572,-2.4588,-2.4451,-2.3556,-2.3303,-2.3305,-2.334,-2.2734,-2.2481,-2.4019,-2.3638,-2.3144,-2.3934,-2.4136,-2.4229,-2.4383,-2.4524,-2.4629,-2.4666,-2.4425,-2.4192,-2.4192,-2.3899,-2.3756,-2.3963,-2.404,-2.404,-2.3983,-2.402,-2.3963,-2.3785,-2.3509,-2.3263,-2.3081,-2.3127,-2.315,-2.315,-2.339,-2.3617,-2.3815,-2.3969,-2.4228,-2.4556,-2.4771,-2.4975,-2.5171,-2.5182,-2.5234,-3.005,-3.0747,-3.1498,-3.2144,-3.365,-3.5303,-3.6499,-3.8339,-3.9386,-3.8042,-3.6702,-3.4974,-3.2354,-3.2424,-3.2652,-3.1905,-3.3419,0.0,-3.3905,-3.3732,0.0,-3.3103,0.0,-3.3528,-3.3991,-3.422,0.0,0.0,-3.555,-3.5809,-3.615,-3.4852,-3.3792,-3.3127,-3.2568,-3.1913,-3.1102,-3.028,-2.9879,-2.9879,-2.9879,-2.9932,-3.0034,-2.984,-2.9649,-2.9465,-2.8617,-2.7581,-2.6451,-2.5588,-2.4605,-2.3589,-2.3365,-2.3399,-2.3588,-2.3777,-2.4001,-2.4266,-2.453,-2.4723,-2.4827,-2.4738,-2.4783,-2.4728,-2.4005,-2.3757,-2.3671,-2.3446,-2.3281,-2.3299,-2.3965,-2.3769,-2.3526,-2.3928,-2.3717,-2.334,-2.2998,-2.344,-2.3777,-2.3382,-2.4018,-2.4615,-2.4629,-2.4338,-2.4097,-2.4075,-2.3642,-2.3445,-2.3744,-2.3699,-2.3656,-2.3642,-2.3512,-2.3419,-2.3374,-2.2986,-2.272,-2.2669,-2.2513,-2.2451,-2.2371,-2.2451,-2.2617,-2.2919,-2.3193,-2.3545,-2.3928,-2.4385,-2.4674,-2.4839,-2.4981,-2.5091,-3.0231,-3.0748,-3.1304,-3.135,-3.2527,-3.3789,-3.4204,-3.6136,-3.733,-3.5604,-3.4613,-3.3457,-3.1452,-3.1755,-3.212,0.0,0.0,0.0,-3.3786,-3.3392,-3.3048,0.0,-3.2777,0.0,-3.3273,-3.3551,-3.4039,0.0,-3.5072,-3.5376,-3.5828,-3.4791,-3.3715,-3.2692,-3.2468,-3.1817,-3.075,-3.0293,-3.0064,-3.0064,-3.0064,-3.0019,-2.9956,-3.0022,-2.9975,-2.9823,0.0,-2.8514,-2.7363,-2.6686,-2.5555,-2.4163,-2.3975,-2.3697,-2.3491,-2.3671,-2.3878,-2.4058,-2.4375,-2.461,-2.4808,-2.4719,-2.4749,-2.47,-2.4144,-2.3936,-2.387,-2.3867,-2.3668,-2.3566,-2.4118,-2.4019,-2.3774,-2.3774,-2.3646,-2.3406,-2.2994,-2.3271,-2.3584,-2.3491,-2.4076,-2.4599,-2.4599,-2.4356,-2.4116,-2.4096,-2.371,-2.3468,-2.3552,-2.3369,-2.3242,-2.3206,-2.3129,-2.3025,-2.2933,-2.2599,-2.2286,-2.2062,-2.1965,-2.1836,-2.1705,-2.1777,-2.2022,-2.2422,-2.2762,-2.3177,-2.3656,-2.4174,-2.4489,-2.4655,-2.4804,-2.4947,-3.069,-3.0694,-3.0543,-3.0589,-3.132,-3.1898,-3.127,-3.3342,-3.4702,-3.2325,-3.2092,-3.2025,-3.1111,-3.1104,-3.1217,-3.1193,0.0,-3.2876,-3.2561,-3.2159,-3.1925,-3.2056,-3.2074,-3.2282,-3.2699,-3.327,-3.3877,-3.4479,-3.4082,-3.4156,-3.4954,-3.4164,-3.3036,-3.1663,-3.1704,-3.1184,-2.9907,-2.9888,-2.9888,-2.9888,-2.9888,-2.9888,-2.9905,-3.0022,-3.0026,-2.9912,-3.0019,0.0,-2.8241,-2.809,-2.6945,-2.5266,-2.5127,-2.4495,-2.3636,-2.3808,-2.3865,-2.3858,-2.4192,-2.4459,-2.4666,-2.4689,-2.4719,-2.4716,-2.4629,-2.4564,-2.4495,-2.4461,-2.4192,-2.3958,-2.4039,-2.384,-2.3606,-2.3584,-2.3486,-2.3324,-2.3236,-2.3241,-2.3446,-2.404,-2.4374,-2.4582,-2.4599,-2.4409,-2.4248,-2.421,-2.3941,-2.3656,-2.3482,-2.317,-2.2927,-2.285,-2.2876,-2.2825,-2.2659,-2.2375,-2.2051,-2.1628,-2.1538,-2.1417,-2.123,-2.1355,-2.1658,-2.2108,-2.2459,-2.2898,-2.3455,-2.3979,-2.4393,-2.465,-2.4679,-2.485,-3.1089,-3.0034,-2.9168,-2.9055,-2.9641,-3.0097,-2.9483,-3.1619,-3.3081,-3.0892,-3.0836,-3.0785,-2.9466,-3.0158,-3.1026,-3.153,-3.2598,-3.3354,-3.323,-3.2921,-3.2472,0.0,-3.1984,-3.2214,-3.2453,-3.2905,0.0,0.0,-3.3762,-3.4156,-3.4954,-3.3762,-3.2451,-3.1165,-3.1148,-3.0753,-2.9907,-2.9888,-2.9888,-2.9888,-2.9888,-2.9888,-2.9888,-2.9905,-2.9924,-2.9907,-2.9926,0.0,-2.8422,-2.8241,-2.7434,-2.6319,-2.6129,-2.5497,-2.4667,-2.4809,-2.4439,-2.3919,-2.4284,-2.4407,-2.4474,-2.4642,-2.4764,-2.4842,-2.4645,-2.4599,-2.453,-2.4248,-2.4116,-2.4039,-2.3899,-2.3728,-2.3594,-2.3544,-2.3383,-2.3041,-2.24,-2.2362,-2.2787,-2.3755,-2.4173,-2.4393,-2.4582,-2.4561,-2.4476,-2.4303,-2.41,-2.393,-2.3826,-2.3518,-2.3253,-2.3084,-2.301,-2.2985,-2.2935,-2.252,-2.2231,-2.2175,-2.1748,-2.1462,-2.1355,-2.1119,-2.1197,-2.1628,-2.2079,-2.2456,-2.2773,-2.3518,-2.4249,-2.4939,-2.4703,-2.5092,-3.0432,-2.953,-2.8892,-2.8914,-2.9467,-2.9828,-2.9194,-3.0399,-3.1122,-2.9365,-2.9436,-2.9577,-2.8789,-2.9924,-3.0936,-3.0914,-3.2396,-3.3319,-3.2628,-3.2586,-3.232,-3.1585,-3.1559,-3.1785,-3.2196,-3.2368,-3.2699,-3.3433,-3.3484,-3.356,-3.3743,-3.2385,-3.1377,-3.0863,-3.096,-3.0657,-2.9907,-3.0343,-3.0343,-2.9888,-2.9888,-2.9888,-2.9888,-2.9888,-2.9888,-2.9888,-2.9975,0.0,-2.9221,-2.9097,-2.8409,-2.7412,-2.7253,-2.6286,-2.5027,-2.5199,-2.4962,-2.4522,-2.4431,-2.4705,-2.5112,-2.5316,-2.538,-2.5236,-2.4627,-2.4707,-2.4875,-2.4149,-2.3899,-2.3834,-2.3728,-2.3571,-2.343,-2.336,-2.3265,-2.3087,-2.2711,-2.2843,-2.322,-2.383,-2.4174,-2.4444,-2.4707,-2.476,-2.4737,-2.4708,-2.455,-2.4395,-2.4369,-2.4172,-2.383,-2.3305,-2.3159,-2.3105,-2.3105,-2.2915,-2.2721,-2.2617,-2.2378,-2.2074,-2.1715,-2.1941,-2.2125,-2.2283,-2.2979,-2.3476,-2.3755,-2.4353,-2.4902,-2.5425,-2.5374,-2.5801,-2.9655,-2.8875,-2.826,-2.8527,-2.9059,-2.9351,-2.8663,-2.9343,-2.9766,-2.8318,-2.8437,-2.8767,-2.8518,-2.9529,-3.0304,0.0,-3.1313,-3.2249,-3.1596,-3.1901,-3.1987,-3.1501,-3.1649,0.0,-3.2162,-3.2422,0.0,-3.3502,-3.333,-3.3031,-3.2625,-3.1389,-3.0757,-3.0945,-3.0977,-3.0751,-3.0173,-3.0871,-3.0758,-2.9888,-2.9937,-2.9937,-2.9888,-2.9937,-2.9937,-2.9924,-3.0022,0.0,0.0,-2.9836,-2.9285,-2.8483,-2.8347,-2.7235,-2.5688,-2.5855,-2.5724,-2.5406,-2.5004,-2.5319,-2.595,-2.6075,-2.5945,-2.565,-2.5023,-2.5206,-2.5417,-2.4369,-2.3981,-2.3853,-2.3625,-2.3453,-2.3313,-2.3265,-2.3217,-2.3217,-2.3217,-2.344,-2.3692,-2.3943,-2.4174,-2.4458,-2.4818,-2.4923,-2.4981,-2.5096,-2.5019,-2.492,-2.4896,-2.4782,-2.4457,-2.3838,-2.3566,-2.3424,-2.3397,-2.3379,-2.3359,-2.3316,-2.3291,-2.3101,-2.275,-2.3185,-2.3375,-2.3368,-2.4059,-2.4516,-2.4731,-2.514,-2.5535,-2.5938,-2.5997,-2.641,-2.948,-2.7623,-2.5942,-2.6428,-2.7021,-2.725,-2.6405,-2.8384,-2.9946,-2.8402,-2.8525,-2.8791,-2.8466,-2.829,-2.8299,-2.8595,0.0,-2.9386,-3.0791,-3.1479,-3.1926,-3.2156,0.0,0.0,-3.2608,-3.4018,-3.4639,-3.3743,-3.3376,-3.3017,-3.2614,-3.1961,-3.1648,-3.1787,-3.1278,-3.1034,-3.108,-3.1174,-3.0758,-2.9888,-3.0022,-3.0026,-2.9905,-3.0041,-3.0026,-2.9888,-2.9905,0.0,0.0,-2.9888,-2.9697,-2.938,-2.936,-2.8621,-2.7545,-2.7567,-2.719,-2.6608,-2.6397,-2.6438,-2.6593,-2.6489,-2.6093,-2.5746,-2.6376,-2.6479,-2.6179,-2.5183,-2.4882,-2.4671,-2.3764,-2.3494,-2.3453,-2.3383,-2.3289,-2.3217,-2.3289,-2.336,-2.3549,-2.3941,-2.4079,-2.4301,-2.4804,-2.4993,-2.5115,-2.5182,-2.5284,-2.5303,-2.5186,-2.5102,-2.5015,-2.496,-2.4495,-2.4155,-2.404,-2.3967,-2.4137,-2.4662,-2.4521,-2.467,-2.5164,-2.4666,-2.4441,-2.456,-2.4448,-2.4425,-2.4537,-2.4948,-2.5551,-2.6339,-2.5984,-2.6369,-2.9003,-2.7454,-2.5793,-2.606,-2.6649,-2.7214,-2.7259,-2.8424,-2.9377,-2.8979,-2.896,-2.8929,-2.8644,-2.8474,-2.8327,0.0,0.0,0.0,-3.0073,-3.0782,-3.1706,-3.309,-3.3755,-3.4352,0.0,0.0,-3.4933,-3.4191,-3.4027,-3.3908,-3.3753,-3.2179,-3.1291,-3.1371,-3.1204,-3.1161,-3.1212,-3.1274,-3.0883,-3.0007,-3.0157,-3.0196,-3.0131,-3.0103,-3.008,-3.0026,-2.9937,0.0,0.0,-2.9888,-2.9735,-2.9492,-2.9492,-2.8808,-2.7787,-2.7787,-2.7563,-2.7193,-2.6683,-2.679,-2.7189,-2.7211,-2.6948,-2.6611,-2.6487,-2.6735,-2.6822,-2.5769,-2.5482,-2.5279,-2.4385,-2.3625,-2.3182,-2.3613,-2.3342,-2.301,-2.306,-2.3271,-2.3571,-2.3981,-2.4079,-2.4265,-2.4809,-2.5037,-2.5192,-2.5303,-2.5393,-2.5468,-2.5441,-2.5339,-2.5284,-2.5274,-2.4905,-2.4647,-2.4588,-2.496,-2.531,-2.556,-2.5911,-2.6096,-2.6031,-2.6114,-2.6036,-2.5733,-2.5918,-2.6036,-2.6007,-2.6036,-2.6313,-2.6822,-2.6661,-2.6961,-2.8202,-2.7106,-2.5796,-2.5886,-2.6605,-2.7377,-2.7557,-2.8482,-2.9232,-2.9031,-2.9077,-2.9067,-2.8791,-2.8743,-2.8576,0.0,0.0,-2.8916,-2.9682,-3.0618,-3.1794,-3.3418,0.0,-3.4851,0.0,-3.5856,-3.5442,-3.507,-3.4868,-3.4623,-3.4356,-3.2789,-3.1844,-3.1732,-3.1389,-3.121,-3.126,-3.1348,-3.0983,-3.0157,-3.0294,-3.0317,-3.0247,-3.0184,-3.0122,-3.0037,-2.9953,0.0,0.0,-2.9888,-2.9735,-2.9492,-2.9492,-2.8957,-2.8154,-2.8109,-2.8045,-2.7908,-2.7278,-2.7396,-2.7822,-2.7845,-2.7725,-2.7461,-2.6964,-2.7204,-2.7432,-2.6422,-2.5946,-2.5567,-2.4941,-2.3937,-2.3196,-2.367,-2.3275,-2.2816,-2.2798,-2.3084,-2.3435,-2.384,-2.3963,-2.4174,-2.4718,-2.4981,-2.5163,-2.534,-2.5418,-2.5471,-2.5564,-2.5445,-2.5464,-2.5702,-2.5521,-2.5271,-2.4979,-2.5677,-2.6185,-2.6337,-2.7071,-2.7457,-2.7306,-2.757,-2.7637,-2.7449,-2.7582,-2.7739,-2.7902,-2.7672,-2.7672,-2.7917,-2.7902,-2.8105,-2.6974,-2.6233,-2.5454,-2.5631,-2.6643,-2.7334,-2.6429,-2.828,-2.9774,-2.8315,-2.8709,-2.9197,-2.8863,-2.8863,-2.8785,-2.8353,0.0,0.0,-2.965,-3.1106,-3.2288,0.0,-3.3902,-3.4939,-3.5806,-3.6254,-3.6504,-3.6573,-3.5782,0.0,-3.4044,-3.3987,-3.3832,-3.3488,-3.1992,-3.1257,-3.1393,-3.1408,-3.1019,-3.0306,-3.0433,-3.037,-3.0122,-3.0234,-3.0144,-2.9905,0.0,0.0,0.0,-2.9888,-2.9735,-2.9492,-2.9492,-2.9289,-2.8975,-2.8834,-2.8863,-2.8915,-2.8518,-2.8474,-2.8551,-2.8273,-2.8209,-2.8209,-2.8191,-2.8209,-2.8031,-2.721,-2.6269,-2.5455,-2.5257,-2.4452,-2.3659,-2.354,-2.3031,-2.2607,-2.2608,-2.2747,-2.301,-2.3432,-2.3678,-2.3968,-2.4504,-2.4766,-2.4986,-2.5265,-2.5302,-2.5339,-2.5484,-2.5376,-2.562,-2.641,-2.6493,-2.6105,-2.5168,-2.5886,-2.661,-2.7151,-2.8003,-2.8781,-2.9436,-2.8979,-2.9047,-2.9856,-2.9339,-2.9372,-2.9962,-2.9687,-2.9638,-2.9772,-2.9758,-2.9889,-2.6746,-2.5836,-2.4723,-2.4741,-2.5159,-2.564,-2.572,-2.7305,-2.866,-2.8334,-2.8971,-2.9532,-2.9377,-2.9256,-2.9107,-2.8832,-2.8585,0.0,0.0,0.0,0.0,-3.5429,-3.7471,-3.8608,0.0,0.0,-3.8016,-3.6709,-3.6386,-3.5858,-3.494,-3.381,-3.31,-3.2956,-3.186,-3.1318,-3.1479,-3.0919,-3.0583,-3.0433,-3.0563,-3.0546,-3.0381,-3.0321,-3.0203,0.0,0.0,0.0,0.0,-2.9888,-2.9735,-2.9492,-2.9492,-2.9307,-2.8994,-2.8834,-2.8761,-2.8712,-2.8484,-2.8371,-2.83,-2.8237,-2.8182,-2.8182,-2.8154,-2.8154,-2.8101,-2.7677,-2.6696,-2.5875,-2.6381,-2.4798,-2.3173,-2.3484,-2.2701,-2.1816,-2.1724,-2.2096,-2.2574,-2.3112,-2.3424,-2.3785,-2.442,-2.4655,-2.4839,-2.5072,-2.5133,-2.5205,-2.5284,-2.5214,-2.5288,-2.5589,-2.6105,-2.6554,-2.686,-2.7631,-2.8183,-2.836,-2.9052,-2.9506,-2.9626,-2.9976,-3.0095,-3.0051,-3.0152,-3.0201,-3.0203,-2.9869,-2.9756,-2.9789,-2.9807,-2.9758,-2.6185,-2.5665,-2.4916,-2.4823,-2.4979,-2.5219,-2.5326,-2.6853,-2.8218,-2.8086,-2.872,-2.9418,-2.9706,-2.9359,-2.9083,-2.9286,-2.9082,-2.9525,0.0,0.0,0.0,-3.6597,0.0,0.0,0.0,-3.9129,-3.8713,-3.6812,-3.6704,-3.6196,-3.4937,-3.3901,-3.3023,-3.2335,-3.1344,-3.0905,-3.1008,-3.0503,-3.0329,-3.0453,-3.0563,-3.0574,-3.0451,-3.0317,-3.0209,0.0,0.0,0.0,0.0,-2.9888,-2.9787,-2.9608,-2.9551,-2.9394,-2.9163,-2.8887,-2.8761,-2.8637,-2.838,-2.8237,-2.8154,-2.8126,-2.8126,-2.8099,-2.7893,-2.7922,-2.795,-2.7672,-2.6943,-2.6309,-2.6672,-2.4945,-2.3178,-2.3369,-2.2362,-2.1337,-2.1165,-2.1502,-2.2012,-2.2531,-2.2919,-2.3315,-2.3906,-2.4191,-2.4431,-2.4591,-2.4785,-2.4937,-2.4986,-2.5012,-2.5279,-2.5914,-2.6435,-2.7203,-2.836,-2.8684,-2.8836,-2.885,-2.9801,-3.0328,-3.0278,-3.096,-3.1306,-3.1302,-3.1393,-3.1464,-3.1547,-3.115,-3.0911,-3.0812,-3.0911,-3.0812,0.0,-2.5627,-2.5705,-2.5589,-2.5728,-2.5774,-2.5227,0.0,0.0,-2.7644,-2.8186,-2.9008,-2.9863,-2.9327,-2.8992,-2.9715,-2.9739,-3.0278,0.0,-3.3346,0.0,0.0,-3.8551,0.0,-3.7269,-3.8601,-3.8844,-3.703,-3.6895,0.0,-3.4385,-3.416,-3.3391,-3.1833,-3.071,-3.0152,-3.0228,-3.0216,-3.029,-3.0413,-3.0482,-3.0462,-3.0398,-3.026,-3.0174,0.0,0.0,0.0,0.0,-2.9888,-2.9853,-2.9784,-2.9644,-2.9551,-2.9438,-2.8989,-2.8797,-2.8743,-2.83,-2.8126,-2.8099,-2.8014,-2.8014,-2.7911,-2.7517,-2.7535,-2.7582,-2.7244,-2.6939,-2.6641,-2.6264,-2.4924,-2.3583,-2.3147,-2.2093,-2.1103,-2.0794,-2.1038,-2.1433,-2.1786,-2.219,-2.26,-2.3076,-2.349,-2.3787,-2.3949,-2.4316,-2.4623,-2.4746,-2.4894,-2.557,-2.7138,-2.7339,-2.7985,-2.9473,-2.9096,-2.884,-2.896,-3.03,-3.1159,-3.1288,-3.1939,-3.2616,-3.3285,-3.2956,-3.3054,-3.3587,-3.3178,-3.2838,-3.2645,-3.2838,-3.2805,-2.5399,0.0,-2.5177,-2.5081,-2.5148,-2.5205,0.0,0.0,0.0,0.0,0.0,0.0,0.0,-3.0192,-3.007,-3.0179,-3.0107,-3.0863,-3.3187,-3.6107,0.0,-3.7822,-3.9403,-3.985,-3.8161,-3.9499,-3.9735,-3.7931,-3.7796,-3.7032,-3.5295,-3.393,-3.3026,-3.2622,-3.1092,-3.0318,-3.0417,-3.039,-3.0386,-3.0482,-3.0539,-3.0501,-3.0398,-3.0304,-3.0202,0.0,0.0,0.0,-2.9888,-2.9888,-2.9853,-2.9784,-2.9644,-2.9551,-2.9476,-2.9151,-2.8943,-2.8749,-2.8492,-2.8273,-2.8099,-2.8014,-2.7957,-2.7888,-2.763,-2.74,-2.7181,-2.6774,-2.6401,-2.6082,-2.601,-2.4623,-2.3147,-2.2776,-2.19,-2.0941,-2.0308,-2.0883,-2.1514,-2.1402,-2.1711,-2.2163,-2.2778,-2.3023,-2.328,-2.3787,-2.41,-2.4576,-2.535,-2.5633,-2.6107,-2.7123,-2.7766,-2.8275,-2.8669,-2.9225,-2.982,-3.0513,-3.0913,-3.1424,-3.2103,-3.2864,-3.3278,-3.3285,-3.356,-3.371,-3.3753,-3.3625,-3.3735,-3.4011,-3.346,-3.3248,-2.5598,-2.5324,-2.512,-2.5082,-2.5111,-2.5159,-2.5269,0.0,0.0,0.0,0.0,0.0,0.0,0.0,-3.0095,-3.0438,-3.1064,0.0,0.0,0.0,-3.7827,-3.8152,-3.9039,-3.9406,0.0,-3.9603,-3.9367,-3.7585,0.0,-3.671,-3.4988,-3.3622,-3.2737,-3.2352,-3.1021,-3.033,-3.0421,-3.0367,-3.0379,-3.0409,-3.049,-3.0469,-3.0398,-3.0286,-3.0207,0.0,0.0,0.0,-2.9907,-2.9839,-2.9855,-2.9921,-2.9698,-2.9626,-2.9644,-2.9235,-2.8993,-2.8827,-2.8576,-2.8273,-2.7986,-2.7911,-2.7853,-2.7766,-2.7509,-2.7293,-2.7053,-2.659,-2.6173,-2.5844,-2.5621,-2.4537,-2.3354,-2.2755,-2.208,-2.1364,-2.0677,-2.1159,-2.1776,-2.1708,-2.2035,-2.2473,-2.2929,-2.3352,-2.37,-2.4015,-2.4617,-2.5248,-2.5849,-2.6283,-2.6848,-2.7761,-2.8231,-2.8645,-2.9004,-2.9472,-3.013,-3.1014,-3.1411,-3.1996,-3.2864,-3.3715,-3.403,-3.3758,-3.3998,-3.3998,-3.3807,-3.3807,-3.3927,-3.4178,-3.3817,-3.3696,-2.582,-2.5449,-2.5313,-2.5351,-2.5357,-2.5371,-2.5483,0.0,0.0,0.0,0.0,0.0,0.0,-2.996,0.0,0.0,0.0,0.0,-3.5968,-3.645,-3.7033,-3.8198,-3.8501,0.0,-3.9168,-3.9369,-3.8757,0.0,0.0,-3.618,-3.4487,-3.3564,-3.2737,-3.191,-3.0951,-3.0381,-3.0266,-3.0234,-3.0221,-3.0207,-3.026,-3.0286,-3.0286,-3.0166,-3.0113,-3.0079,0.0,0.0,-2.9822,-2.9717,-2.9805,-2.9991,-2.9717,-2.9698,-2.9803,-2.9357,-2.9064,-2.886,-2.8551,-2.8219,-2.7917,-2.7777,-2.773,-2.7689,-2.74,-2.7244,-2.7117,-2.6641,-2.626,-2.5828,-2.5323,-2.4567,-2.3723,-2.2813,-2.235,-2.1913,-2.1181,-2.1524,-2.2007,-2.2156,-2.2487,-2.2853,-2.3173,-2.3786,-2.4255,-2.438,-2.5224,-2.5991,-2.634,-2.6912,-2.7675,-2.8676,-2.8787,-2.9053,-2.9751,-2.9735,-3.0113,-3.113,-3.1807,-3.2636,-3.3637,-3.4372,-3.4645,-3.434,-3.4423,-3.4358,-3.4138,-3.4268,-3.4334,-3.4318,-3.4314,-3.4389,-2.5742,-2.5442,-2.5402,-2.5525,-2.5547,-2.5559,-2.558,-2.5636,0.0,0.0,0.0,0.0,0.0,-2.9629,-2.9779,0.0,0.0,-3.6085,0.0,0.0,-3.9819,-3.8612,0.0,-3.9874,-3.8512,-3.9552,0.0,0.0,0.0,-3.7065,-3.5391,-3.4468,-3.3603,-3.2737,-3.1708,-3.0787,-3.0047,-2.9988,-2.9896,-2.9782,-2.9799,-2.9815,-2.9799,-2.9715,-2.9698,-2.9681,0.0,-2.9551,-2.957,-2.9551,-2.9589,-2.9662,-2.9626,-2.9645,-2.9717,-2.9645,-2.9314,-2.8837,-2.8317,-2.8081,-2.7986,-2.7968,-2.7929,-2.7859,-2.783,-2.7526,-2.7181,-2.7117,-2.659,-2.598,-2.5615,-2.4595,-2.3476,-2.2772,-2.234,-2.1825,-2.0882,-2.1282,-2.1766,-2.1565,-2.1864,-2.2322,-2.2869,-2.3256,-2.3669,-2.4303,-2.4941,-2.5804,-2.7141,-2.7785,-2.8501,-2.9507,-2.9619,-2.9676,-2.9789,-2.9735,-3.0358,-3.192,-3.2127,-3.29,-3.4463,-3.4651,-3.4666,-3.4561,-3.527,-3.5675,-3.5748,-3.6424,-3.6723,-3.6646,-3.6016,-3.5955,-2.5674,-2.5447,-2.557,-2.6038,-2.614,-2.6145,-2.6145,-2.6454,0.0,0.0,0.0,0.0,0.0,0.0,-3.2293,-3.4546,0.0,-3.6509,-3.8209,-3.8356,-3.8335,0.0,0.0,-3.9314,-3.8944,0.0,0.0,0.0,0.0,0.0,-3.4853,-3.3564,-3.2635,-3.216,-3.1092,-3.0292,-2.9746,-2.9588,-2.957,-2.9696,-2.9696,-2.9696,-2.9696,-2.9626,-2.9608,-2.9589,0.0,-2.9394,-2.9492,-2.9373,-2.9414,-2.9532,-2.9433,-2.9492,-2.9626,-2.9531,-2.9251,-2.8842,-2.8448,-2.8191,-2.8053,-2.8156,-2.8063,-2.7957,-2.8035,-2.7836,-2.7557,-2.7491,-2.6807,-2.598,-2.5524,-2.4766,-2.3891,-2.2774,-2.2586,-2.2381,-2.1532,-2.1794,-2.2161,-2.2004,-2.2247,-2.2611,-2.3117,-2.3593,-2.4127,-2.4674,-2.5541,-2.6481,-2.7476,-2.8127,-2.8788,-2.957,-2.9626,-2.9626,-2.9626,-2.9924,-3.0652,-3.2068,-3.3009,-3.3836,-3.4607,-3.4645,-3.4645,-3.4602,-3.5536,-3.6058,-3.616,-3.6594,-3.6819,-3.6797,-3.6067,-3.6125,-2.5588,-2.5385,-2.5616,-2.6381,0.0,-2.6418,-2.6737,-2.7181,0.0,0.0,0.0,0.0,0.0,-3.1412,0.0,-3.7299,-3.6904,-3.6839,-3.8728,-3.7893,-3.7589,-3.8924,-3.8973,0.0,0.0,0.0,0.0,0.0,0.0,0.0,-3.4211,-3.2942,-3.2006,-3.1475,-3.0608,-3.005,-2.9776,-2.9347,-2.9254,-2.9533,-2.9533,-2.9533,-2.9533,-2.9436,-2.9397,-2.9377,-2.9126,-2.9101,-2.923,-2.9079,-2.9101,-2.923,-2.9082,-2.9188,-2.9392,-2.9188,-2.8993,-2.879,-2.8525,-2.83,-2.8136,-2.8228,-2.8156,-2.8025,-2.8156,-2.8035,-2.7859,-2.7672,-2.6937,-2.6087,-2.547,-2.4942,-2.4147,-2.2725,-2.2512,-2.2406,-2.167,-2.1657,-2.1819,-2.2067,-2.2346,-2.268,-2.3187,-2.3791,-2.4333,-2.4688,-2.5885,-2.6858,-2.7195,-2.8094,-2.8822,-2.9172,-2.9463,-2.9673,-2.9712,-3.033,-3.1054,-3.1864,-3.3493,-3.445,-3.4495,-3.4517,-3.4539,-3.4647,-3.5794,-3.6483,-3.6595,-3.711,-3.7223,-3.6927,-3.6415,-3.6548,-2.5439,-2.5217,-2.5405,-2.6204,-2.5946,0.0,-2.7134,-2.6993,0.0,-2.7319,0.0,0.0,0.0,-3.0895,-3.3049,-3.5658,-3.6618,-3.7879,-4.0382,0.0,-4.0675,-4.0814,0.0,0.0,0.0,0.0,0.0,0.0,0.0,0.0,-3.4112,-3.3887,-3.3062,-3.1375,-3.1066,-3.0829,-3.0617,-2.9488,-2.8957,-2.9044,-2.9044,-2.9044,-2.9044,-2.8863,-2.8749,-2.8749,-2.8551,-2.8474,-2.8474,-2.8448,-2.8474,-2.85,-2.8547,-2.8676,-2.8837,-2.8626,-2.8576,-2.8576,-2.83,-2.8209,-2.8182,-2.8209,-2.8154,-2.8099,-2.8081,-2.8014,-2.7813,-2.7444,-2.6987,-2.6488,-2.5842,-2.5012,-2.3937,-2.2498,-2.1677,-2.1037,-2.0283,-1.9876,-1.9914,-2.0841,-2.1205,-2.1716,-2.2785,-2.3128,-2.3405,-2.3688,-2.5098,-2.6091,-2.5965,-2.7563,-2.8607,-2.8319,-2.9344,-3.0134,-3.032,-3.1117,-3.1528,-3.1385,-3.2923,-3.3972,-3.4221,-3.4221,-3.439,-3.4792,-3.6444,-3.7452,-3.7785,-3.9402,-3.9547,-3.8258,-3.8208,-3.8293,-2.5283,-2.5566,-2.6027,-2.6327,-2.6178,0.0,0.0,-2.7566,-2.7752,-2.727,-2.8491,0.0,0.0,0.0,-3.4315,-3.6312,-3.7366,-3.8438,-3.9936,-4.0213,-4.0442,0.0,0.0,0.0,0.0,0.0,0.0,0.0,0.0,0.0,-3.3259,-3.2114,-3.1184,-3.0452,-3.0259,-3.0114,-2.996,-2.9872,-2.9517,-2.8929,-2.8718,-2.8619,-2.8619,-2.8543,-2.8518,-2.8518,-2.8422,-2.8414,-2.837,-2.8129,-2.8156,-2.8396,-2.8471,-2.8597,-2.8731,-2.8707,-2.8658,-2.8594,-2.8492,-2.8327,-2.8237,-2.8388,-2.8327,-2.8182,-2.83,-2.8209,-2.7986,-2.7736,-2.7244,-2.6556,-2.564,-2.4681,-2.3535,-2.2086,-2.1218,-2.0531,-1.9773,-1.9527,-1.9527,-1.9914,-2.054,-2.1064,-2.1369,-2.2124,-2.2866,-2.3412,-2.4267,-2.5279,-2.6403,-2.7383,-2.815,-2.8708,-2.939,-3.0141,-3.1008,-3.1379,-3.1776,-3.2264,-3.2776,-3.3386,-3.4179,-3.4245,-3.4439,-3.4851,-3.6708,-3.7775,-3.8031,-3.9308,-3.9691,-3.9199,-3.8652,-3.8731,-2.4927,-2.5465,-2.6077,-2.602,0.0,0.0,-2.7173,-2.7783,-2.8091,-2.7755,-2.8938,0.0,-3.2609,0.0,0.0,0.0,-3.7428,-3.8285,-3.9179,-3.9344,0.0,0.0,0.0,0.0,0.0,0.0,0.0,0.0,0.0,0.0,0.0,-3.1234,-3.0235,-2.9844,-2.9755,-2.972,-2.9746,-2.9824,-2.9593,-2.905,-2.847,-2.8264,-2.8414,-2.8335,-2.8309,-2.8309,-2.821,-2.8183,-2.8156,-2.7862,-2.7936,-2.8165,-2.8112,-2.8255,-2.8492,-2.8515,-2.8507,-2.8466,-2.8466,-2.8353,-2.8237,-2.8414,-2.8353,-2.8237,-2.8353,-2.8246,-2.8071,-2.7853,-2.74,-2.6707,-2.5656,-2.4505,-2.3215,-2.1843,-2.0801,-1.9825,-1.8862,-1.8673,-1.8738,-1.8768,-1.9575,-2.0188,-2.0182,-2.1079,-2.2035,-2.2649,-2.3478,-2.453,-2.5949,-2.6781,-2.7721,-2.8972,-2.9506,-3.0193,-3.1285,-3.1416,-3.1791,-3.2487,-3.2508,-3.2952,-3.4043,-3.4232,-3.4663,-3.5396,-3.6979,-3.8035,-3.8498,-3.9448,-3.9762,-3.9539,-3.8972,-3.902,-2.4347,-2.474,-2.5355,0.0,0.0,0.0,-2.7603,-2.7437,-2.7493,-2.8899,-2.9695,-3.0661,-3.2531,-3.2984,0.0,-3.5465,-3.6487,-3.7372,-3.8246,-3.8451,0.0,0.0,0.0,0.0,0.0,0.0,0.0,0.0,0.0,0.0,0.0,-3.1778,-3.0793,-2.9739,-2.9701,-2.9884,-3.0282,-2.9222,-2.8938,-2.938,-2.8246,-2.7961,-2.8388,-2.8191,-2.8099,-2.8099,-2.7836,-2.7701,-2.7701,-2.7701,-2.7701,-2.7672,-2.7338,-2.7539,-2.7996,-2.8014,-2.8099,-2.8182,-2.8182,-2.8182,-2.8182,-2.82,-2.82,-2.82,-2.8182,-2.8154,-2.8025,-2.7601,-2.7391,-2.708,-2.609,-2.4578,-2.301,-2.1881,-2.033,-1.8703,-1.7291,-1.7179,-1.7323,-1.7413,-1.826,-1.908,-1.9364,-2.0092,-2.0841,-2.1276,-2.2766,-2.4019,-2.4284,-2.5726,-2.7318,-2.8918,-2.969,-3.0365,-3.104,-3.1282,-3.152,-3.1793,-3.2065,-3.2693,-3.3758,-3.4139,-3.4997,-3.6476,-3.7379,-3.8324,-3.9388,-4.013,-4.0053,-3.9212,-3.9345,-3.9373,-2.5078,-2.5583,0.0,-2.6036,0.0,0.0,0.0,-2.7513,0.0,0.0,-2.9387,-3.02,-3.0936,0.0,0.0,-3.3009,-3.4338,-3.5585,-3.6459,0.0,0.0,0.0,0.0,0.0,0.0,0.0,0.0,0.0,0.0,0.0,0.0,-3.1146,-3.0124,-2.972,-2.9701,-2.9662,-2.9604,-2.9742,-2.9418,-2.8622,-2.8872,-2.8607,-2.7904,-2.7847,-2.7836,-2.7818,-2.773,-2.7701,-2.7701,-2.7701,-2.7413,-2.7036,-2.7526,-2.763,-2.7624,-2.7968,-2.8126,-2.8182,-2.8182,-2.8182,-2.8182,-2.7979,-2.7922,-2.7893,-2.7766,-2.7777,-2.7847,-2.7683,-2.753,-2.7299,-2.6674,-2.5266,-2.358,-2.1992,-2.033,-1.8821,-1.7875,-1.7744,-1.7791,-1.7827,-1.8946,-1.9713,-1.9408,-2.0226,-2.1247,-2.1979,-2.2777,-2.401,-2.5908,-2.6966,-2.7982,-2.9182,-2.9502,-2.9964,-3.087,-3.1334,-3.1725,-3.2181,-3.2629,-3.3494,-3.4807,-3.5002,-3.5772,-3.7238,-3.8129,-3.8663,-3.8838,-3.9618,-3.9869,-3.9624,-3.966,-3.9766,-2.5451,-2.5984,0.0,-2.6818,-2.7385,-2.7897,-2.8035,0.0,0.0,0.0,-2.9491,-3.0176,-3.0772,-3.136,0.0,-3.2438,-3.3359,-3.4206,0.0,0.0,0.0,0.0,0.0,0.0,0.0,0.0,0.0,0.0,0.0,0.0,0.0,-3.1257,-3.0217,-2.972,-2.9701,-2.9512,-2.9148,-2.9517,-2.9193,-2.8219,-2.8711,-2.8525,-2.7836,-2.7777,-2.7795,-2.7795,-2.773,-2.7701,-2.7701,-2.7552,-2.7369,-2.7198,-2.7539,-2.7689,-2.7713,-2.7996,-2.8126,-2.8182,-2.8182,-2.8182,-2.8154,-2.7893,-2.8,-2.8147,-2.7644,-2.7779,-2.8045,-2.77,-2.7595,-2.7439,-2.6856,-2.5707,-2.4231,-2.2255,-2.0502,-1.8975,-1.8013,-1.7942,-1.8006,-1.7943,-1.9006,-1.9711,-1.9274,-2.0272,-2.1416,-2.2163,-2.3378,-2.4771,-2.6409,-2.7484,-2.8393,-2.906,-2.9722,-3.0438,-3.1272,-3.1773,-3.2406,-3.3108,-3.3621,-3.4534,-3.6076,-3.5683,-3.6212,-3.7849,-3.8324,-3.8664,-3.8888,-3.9229,-3.9383,-3.9368,-3.9554,-3.9705,-2.5602,-2.613,0.0,-2.7529,-2.8179,0.0,-2.8623,-2.8835,-2.9116,-2.9436,0.0,-3.0418,-3.1476,-3.1661,-3.197,-3.2909,-3.3126,0.0,0.0,0.0,0.0,0.0,0.0,0.0,0.0,0.0,0.0,0.0,0.0,0.0,0.0,-3.1816,-3.0831,-2.9851,-2.9739,-2.9434,-2.8906,-2.8837,-2.8565,-2.8099,-2.8042,-2.8014,-2.8014,-2.7946,-2.7906,-2.7888,-2.7777,-2.7701,-2.7672,-2.7369,-2.7478,-2.7813,-2.7474,-2.7624,-2.8053,-2.8099,-2.8154,-2.8182,-2.8182,-2.8235,-2.8261,-2.7999,-2.8405,-2.8838,-2.7958,-2.8143,-2.8575,-2.7865,-2.7727,-2.7609,-2.6792,-2.609,-2.5006,-2.2849,-2.0922,-1.9308,-1.8202,-1.8065,-1.8084,-1.7945,-1.8783,-1.9445,-1.9253,-2.0415,-2.1604,-2.2234,-2.4375,-2.6018,-2.6111,-2.7418,-2.8435,-2.8673,-3.0057,-3.1195,-3.1866,-3.2368,-3.3077,-3.4137,-3.4587,-3.5549,-3.7259,-3.627,-3.6541,-3.8324,-3.8164,-3.8446,-3.9214,-3.8897,-3.8748,-3.875,-3.921,-3.9413,-2.6292,-2.6816,0.0,0.0,-2.886,-2.9289,-2.9472,-2.9458,-2.9289,-2.8883,-2.9459,-3.0152,-3.0556,-3.0664,-3.0829,-3.12,-3.1837,0.0,0.0,0.0,0.0,0.0,0.0,0.0,0.0,0.0,0.0,0.0,0.0,0.0,-3.3582,-3.2121,-3.1097,-3.0659,-3.0021,-2.9434,-2.8906,-2.8906,-2.8615,0.0,-2.8126,-2.8126,-2.8071,-2.8014,-2.7946,-2.7888,-2.7888,-2.7795,-2.7683,-2.7612,-2.7535,-2.7444,-2.773,-2.7742,-2.7678,-2.8035,-2.8182,-2.8182,-2.8182,-2.862,-2.9109,-2.8841,-2.9263,-2.98,-2.9192,-2.9245,-2.9431,-2.9007,-2.8657,-2.8253,-2.7555,-2.7045,-2.6292,-2.4544,-2.2304,-2.0395,-2.0044,-1.9519,-1.9084,-1.9057,-1.9659,-2.0333,-2.0709,-2.1354,-2.2292,-2.385,-2.53,-2.6288,-2.6261,-2.6989,-2.7798,-2.8606,-2.8778,-2.9516,-3.113,-3.1502,-3.2154,-3.3362,-3.383,-3.4811,-3.6532,-3.7059,-3.779,-3.8846,-3.8792,-3.8674,-3.8444,-3.8337,-3.8624,-3.9161,-3.9276,-3.9781,-2.6902,0.0,0.0,-2.9485,0.0,-3.0359,-3.092,-3.0691,-3.0272,-2.9988,-3.0047,-3.0075,-2.9902,-3.0238,-3.0432,-3.0139,-3.0804,0.0,0.0,0.0,0.0,0.0,0.0,0.0,0.0,0.0,0.0,0.0,0.0,-3.4616,-3.3929,-3.301,-3.2231,-3.1657,-3.0735,-3.0071,-2.9658,-2.9289,-2.8883,-2.8464,-2.8533,-2.8533,-2.8482,-2.8174,-2.8014,-2.7946,-2.7946,-2.79,-2.7795,-2.7836,-2.776,-2.7672,-2.794,-2.795,-2.7911,-2.8536,-2.852,-2.8253,-2.8655,-2.8816,-2.8831,-2.8965,-2.951,-3.0064,-2.9725,-2.9952,-3.0125,-2.9228,-2.8873,-2.8673,-2.8117,-2.7634,-2.7097,-2.6354,-2.4077,-2.193,-2.1349,-2.0449,-1.9798,-1.9852,-2.0169,-2.0568,-2.1028,-2.1874,-2.3,-2.4627,-2.5841,-2.6539,-2.6523,-2.7186,-2.8022,-2.891,-2.9322,-3.0114,-3.144,-3.2073,-3.287,-3.4145,-3.4372,-3.5209,-3.6916,-3.7431,-3.7966,-3.8542,-3.8517,-3.8346,-3.8052,-3.8363,-3.8689,-3.9067,-3.9427,-3.9968,-2.7166,0.0,-2.8594,-3.0625,-3.1239,0.0,-3.2239,-3.1941,-3.1516,-3.1441,-3.0849,-3.019,-2.9707,-3.0205,-3.0469,-2.9749,0.0,0.0,0.0,0.0,0.0,0.0,0.0,0.0,0.0,0.0,0.0,0.0,0.0,-3.5188,-3.4221,-3.3939,-3.3424,-3.26,-3.1619,-3.0992,-3.0745,-3.0055,-2.9617,-2.9361,-2.9237,-2.9181,-2.9136,-2.8543,-2.8183,-2.8081,-2.8042,-2.7986,-2.7917,-2.7986,-2.8014,-2.8025,-2.8071,-2.8243,-2.8495,-2.9155,-2.9066,-2.8719,-2.9226,-2.9066,-2.8709,-2.8989,-2.9571,-3.011,-2.9919,-3.0363,-3.0679,-2.9373,-2.9152,-2.9246,-2.8862,-2.8408,-2.8059,-2.8123,-2.6274,-2.4077,-2.2673,-2.1356,-2.0455,-2.0568,-2.0658,-2.0839,-2.1388,-2.2359,-2.3505,-2.4808,-2.5676,-2.626,-2.6394,-2.7237,-2.8161,-2.8981,-2.9997,-3.094,-3.1957,-3.2819,-3.3885,-3.517,-3.5256,-3.6002,-3.7485,-3.7559,-3.7774,-3.8233,-3.8023,-3.7935,-3.8044,-3.8561,-3.895,-3.9218,-3.981,-4.0341,-2.6535,0.0,-3.0023,0.0,-3.1754,-3.2256,0.0,0.0,-3.2335,0.0,-3.0987,-3.0463,-3.0443,-3.0581,-3.0681,-3.0625,0.0,0.0,0.0,0.0,0.0,0.0,0.0,0.0,0.0,0.0,0.0,0.0,-3.5187,-3.538,-3.4897,-3.4177,-3.3636,-3.3272,-3.2386,-3.1834,-3.1641,-3.1529,-3.1392,-3.1236,-3.066,-3.0304,-3.0154,-2.9344,-2.8777,-2.8414,-2.8191,-2.8042,-2.7986,-2.8014,-2.8025,-2.8099,-2.8099,-2.8582,-2.9262,-2.9369,-2.9848,-3.0356,-2.964,-2.9848,-3.0338,-2.9583,-2.9846,-3.0404,-3.0141,-3.0627,-3.1142,-3.0697,-3.0627,-3.0593,-3.0352,-3.0248,-3.0052,-2.958,-2.8974,-2.772,-2.4736,-2.2673,-2.1409,-2.1428,-2.1565,-2.2125,-2.3458,-2.3207,-2.3122,-2.4021,-2.4471,-2.4772,-2.4888,-2.5798,-2.6924,-2.8118,-2.8559,-2.9563,-3.1562,-3.2281,-3.3308,-3.4925,-3.5487,-3.6246,-3.7376,-3.7413,-3.7881,-3.8852,-3.8222,-3.8169,-3.8685,-3.8754,-3.9504,-4.0806,-4.0877,-4.1346,-2.6997,-2.8255,-2.9736,0.0,-3.2241,-3.2754,-3.3705,-3.3757,-3.3376,-3.2609,-3.1837,-3.1048,-3.0108,-3.0349,-3.0546,-3.0096,0.0,0.0,0.0,0.0,0.0,0.0,0.0,0.0,0.0,0.0,0.0,0.0,-3.4096,-3.4309,-3.5136,-3.4238,-3.3866,-3.4264,-3.3412,-3.292,-3.2921,-3.2504,-3.2289,-3.2281,-3.1968,-3.1797,-3.1711,-3.0636,-2.9574,-2.8543,-2.844,-2.8273,-2.8071,-2.8099,-2.8099,-2.8134,-2.8653,-2.9055,-2.9512,-3.0368,-3.0409,-3.0037,-3.0023,-2.973,-2.9347,-2.9397,-2.9619,-3.0018,-3.0782,-3.1249,-3.1501,-3.1373,-3.1341,-3.137,-3.1462,-3.1267,-3.1073,-3.1184,-3.0619,-2.9548,-2.7718,-2.5294,-2.3221,-2.2433,-2.2408,-2.2847,-2.3695,-2.3773,-2.3905,-2.4411,-2.5174,-2.5666,-2.5701,-2.6167,-2.6971,-2.8463,-2.8741,-2.9711,-3.1982,-3.2648,-3.3719,-3.5386,-3.5814,-3.6509,-3.7685,-3.7857,-3.8223,-3.8885,-3.858,-3.874,-3.9432,-3.9878,-4.0449,-4.1109,-4.1316,-4.1997,0.0,0.0,-2.9109,-3.1622,-3.2419,-3.3023,0.0,0.0,-3.4339,0.0,-3.3005,-3.2124,-3.0376,-3.041,-3.0482,-2.9801,-3.0203,0.0,0.0,0.0,0.0,0.0,0.0,0.0,0.0,0.0,0.0,0.0,-3.3242,-3.3574,-3.4795,-3.3882,-3.3809,-3.4925,-3.4074,-3.377,-3.4151,-3.3657,-3.355,-3.3812,-3.3402,-3.318,-3.3121,-3.2,-3.0682,-2.9193,-2.8797,-2.8456,-2.8219,-2.8209,-2.8154,-2.818,-2.8841,-2.9226,-2.9547,-3.0689,-3.054,-2.9801,-3.0101,-2.9505,-2.8621,-2.8976,-2.9101,-2.9315,-3.0457,-3.1082,-3.1385,-3.1355,-3.1689,-3.2084,-3.2383,-3.2175,-3.2018,-3.2601,-3.1947,-3.0747,-2.9211,-2.6857,-2.4706,-2.3546,-2.3182,-2.3267,-2.3754,-2.3978,-2.4226,-2.4545,-2.5384,-2.597,-2.618,-2.6295,-2.6987,-2.8643,-2.896,-2.9973,-3.2259,-3.3114,-3.4268,-3.583,-3.6307,-3.7016,-3.8096,-3.8332,-3.867,-3.9124,-3.9306,-3.9643,-4.0238,-4.0915,-4.1396,-4.1594,-4.1973,-4.264,0.0,-2.742,0.0,-3.095,-3.2029,0.0,0.0,0.0,-3.5072,-3.4384,-3.4365,-3.3923,-3.2199,-3.123,-3.0667,-3.0554,-3.0574,0.0,0.0,0.0,0.0,0.0,0.0,0.0,0.0,0.0,0.0,0.0,-3.3068,-3.3859,-3.3696,-3.2901,-3.3185,-3.4774,-3.4017,-3.4091,-3.5124,-3.5284,-3.5775,-3.656,-3.5046,-3.4252,-3.4099,-3.3269,-3.2164,-3.0791,-2.933,-2.8634,-2.8551,-2.83,-2.8182,-2.82,-2.8235,-2.8744,-2.9405,-2.9494,-3.0037,-3.0618,-2.9748,-2.95,-2.9386,-2.8522,-2.8253,-2.8271,-2.8342,-2.9405,-3.0553,-3.048,-3.1609,-3.2876,-3.3105,-3.316,-3.3277,-3.3643,-3.3248,-3.169,-2.7718,-2.6188,-2.5355,-2.4714,-2.3774,-2.3386,-2.4279,-2.3783,-2.3364,-2.3742,-2.3966,-2.4312,-2.4927,-2.5379,-2.6308,-2.8143,-2.8734,-2.9897,-3.2109,-3.3415,-3.4636,-3.5925,-3.714,-3.8013,-3.846,-3.8741,-3.9238,-4.0023,-4.0651,-4.1025,-4.1138,-4.1502,-4.2086,-4.2904,-4.3243,-4.3422,0.0,0.0,0.0,-2.9429,-3.0535,-3.1597,-3.3359,-3.4287,-3.4739,-3.4525,-3.4511,-3.4007,-3.226,-3.1669,-3.1274,-3.0646,-3.05,0.0,0.0,0.0,0.0,0.0,0.0,0.0,0.0,0.0,0.0,0.0,0.0,-3.3208,-3.3564,-3.2694,-3.2543,-3.3294,-3.3596,-3.4308,-3.5512,-3.6193,-3.6414,-3.6216,-3.6201,-3.588,-3.5252,-3.438,-3.3638,-3.2986,-3.1618,-3.0116,-2.8658,-2.8507,-2.8353,-2.8235,-2.878,-2.9155,-2.9458,-2.994,-3.0005,-2.9876,-2.9665,-2.9296,-2.8931,-2.8724,-2.8639,-2.8846,-2.9882,-3.0592,-3.1166,-3.1977,-3.2667,-3.316,-3.319,-3.3232,-3.3321,-3.3437,-3.3325,-3.2449,-2.9865,-2.8091,-2.6599,-2.5301,-2.4711,-2.4323,-2.3956,-2.4236,-2.4545,-2.443,-2.5103,-2.5728,-2.6194,-2.6684,-2.7524,-2.8889,-2.9723,-3.094,-3.2725,-3.3889,-3.4935,-3.6071,-3.738,-3.8492,-3.9375,-3.9937,-4.039,-4.0664,-4.1389,-4.1816,-4.1917,-4.2561,-4.3159,-4.3722,-4.3839,-4.4281,-2.7297,0.0,0.0,0.0,0.0,-3.012,-3.2436,0.0,-3.4193,-3.4858,-3.4961,-3.4406,-3.266,-3.228,-3.1843,-3.0653,-3.0425,0.0,0.0,0.0,0.0,0.0,0.0,0.0,0.0,0.0,0.0,0.0,0.0,0.0,-3.309,-3.2221,-3.1958,-3.2523,-3.3467,-3.4647,-3.6095,-3.6686,-3.6705,-3.6203,-3.6761,-3.6601,-3.5756,-3.5165,-3.4664,-3.4173,-3.3234,-3.1469,-2.926,-2.9089,-2.8693,-2.8235,-2.8798,-2.9012,-2.9066,-2.9565,-2.9479,-2.9143,-2.9276,-2.9043,-2.8713,-2.886,-2.8888,-2.909,-3.0173,-3.087,-3.1455,-3.2244,-3.2922,-3.3397,-3.3368,-3.3522,-3.3616,-3.339,-3.3306,-3.2822,-3.1113,-2.9436,-2.7777,-2.6172,-2.5494,-2.4964,-2.4189,-2.4966,-2.566,-2.5471,-2.657,-2.7417,-2.767,-2.792,-2.862,-2.986,-3.0511,-3.1645,-3.3515,-3.4398,-3.5318,-3.6464,-3.7578,-3.8747,-3.9951,-4.0584,-4.1054,-4.1343,-4.1864,-4.2136,-4.2236,-4.2908,-4.3539,-4.4106,-4.4492,-4.5228,0.0,0.0,0.0,0.0,0.0,0.0,-3.2004,0.0,-3.3461,-3.534,-3.5749,-3.5232,-3.3547,-3.3053,-3.2365,-3.0706,-3.0398,-3.0343,0.0,0.0,0.0,0.0,0.0,0.0,0.0,0.0,0.0,0.0,-3.3148,-3.3204,-3.218,-3.1372,-3.1468,-3.2597,-3.3718,-3.5118,-3.6868,-3.6772,-3.6746,-3.6813,-3.6736,-3.6287,-3.5503,-3.5626,-3.5181,-3.4301,-3.4045,-3.2594,-3.0398,-2.999,-2.917,-2.8209,-2.8209,-2.8182,-2.8182,-2.8182,-2.838,-2.8601,-2.8601,-2.8737,-2.8911,-2.8911,-2.8911,-2.8929,-2.8948,-3.005,-3.1249,-3.1073,-3.2238,-3.356,-3.3634,-3.403,-3.4227,-3.3542,-3.3306,-3.2778,-3.1108,-2.9985,-2.8823,-2.7384,-2.6094,-2.5189,-2.4991,-2.5824,-2.658,-2.6761,-2.8078,-2.9038,-2.9038,-2.9038,-2.9586,-3.0793,-3.1013,-3.1977,-3.4414,-3.4922,-3.5761,-3.7132,-3.7826,-3.8807,-4.0163,-4.056,-4.1184,-4.2096,-4.2121,-4.2102,-4.2102,-4.252,-4.3211,-4.4128,-4.5268,-4.6232,-2.6825,0.0,0.0,0.0,0.0,0.0,0.0,0.0,-3.1787,-3.3604,-3.4413,-3.4613,-3.4041,-3.3275,-3.2374,-3.124,-3.0519,-3.0099,0.0,0.0,0.0,0.0,0.0,0.0,0.0,0.0,0.0,0.0,-3.4036,-3.4112,-3.3081,-3.2316,-3.2354,-3.3279,-3.3773,-3.4822,-3.6516,-3.6919,-3.7149,-3.7153,-3.6936,-3.6393,-3.5556,-3.5205,-3.4878,-3.4595,-3.4614,-3.3449,-3.1493,-3.0494,-2.9453,-2.8466,-2.8291,-2.8182,-2.8182,-2.8182,-2.838,-2.8626,-2.8761,-2.8975,-2.9212,-2.9414,-2.9472,-2.9584,-3.0163,-3.0667,-3.107,-3.1352,-3.1826,-3.2305,-3.2724,-3.3536,-3.4148,-3.3652,-3.3532,-3.3183,-3.2039,-3.1382,-3.0166,-2.7297,-2.6079,-2.5398,-2.4993,-2.5707,-2.6475,-2.6762,-2.8121,-2.9256,-2.9535,-3.0613,-3.1607,-3.2222,-3.3342,-3.4376,-3.5036,-3.5967,-3.6676,-3.7248,-3.7964,-3.91,-4.0799,-4.1277,-4.1894,-4.2745,-4.2422,-4.2276,-4.2332,-4.2963,-4.3521,-4.4048,-4.5252,-4.6116,-2.7841,-2.731,-2.6637,-2.6611,0.0,0.0,-2.8838,-3.0181,-3.1671,0.0,-3.4439,-3.485,-3.441,-3.3708,-3.2899,-3.1987,-3.1317,-3.0795,0.0,0.0,0.0,0.0,0.0,0.0,0.0,-3.3639,-3.4169,-3.4011,-3.4505,-3.4411,-3.3456,-3.2694,-3.2713,-3.3564,-3.3634,-3.4447,-3.614,-3.6668,-3.6923,-3.6877,-3.6939,-3.6377,-3.5211,-3.4956,-3.4698,-3.4508,-3.4623,-3.3753,-3.2128,-3.1229,-3.0018,-2.8688,-2.8466,-2.838,-2.838,-2.838,-2.8525,-2.8761,-2.8993,-2.9233,-2.9492,-2.9645,-2.9701,-2.9795,-3.0265,-3.064,-3.0938,-3.1157,-3.1771,-3.2389,-3.2715,-3.3576,-3.4255,-3.3831,-3.3725,-3.3468,-3.253,-3.2221,-3.1333,-2.8724,-2.7728,-2.7241,-2.6969,-2.7799,-2.8586,-2.9047,-3.0411,-3.1443,-3.1772,-3.2681,-3.348,-3.386,-3.493,-3.5778,-3.6162,-3.6867,-3.7506,-3.7923,-3.8355,-3.9349,-4.094,-4.1613,-4.2408,-4.3353,-4.3095,-4.3028,-4.3157,-4.3159,-4.3756,-4.489,-4.5525,-4.6004,-2.9101,-2.8679,-2.8063,-2.8012,-2.8006,0.0,-2.9892,-3.0924,-3.2008,0.0,-3.4561,-3.4863,-3.4193,-3.3681,-3.312,-3.2317,-3.2064,-3.1789,-3.1297,0.0,0.0,0.0,0.0,0.0,-3.3656,-3.4356,-3.4788,-3.4727,-3.4687,-3.4365,-3.3569,-3.2901,-3.2902,-3.3696,-3.3543,-3.418,-3.5738,-3.6143,-3.6315,-3.6233,-3.6666,-3.6102,-3.4649,-3.4696,-3.4457,-3.4016,-3.4285,-3.3636,-3.2321,-3.2009,-3.0739,-2.8934,-2.8713,-2.8626,-2.8626,-2.8626,-2.8737,-2.8975,-2.9188,-2.9453,-2.9664,-2.9664,-2.9701,-2.9701,-2.972,-3.0208,-3.079,-3.0767,-3.1912,-3.3135,-3.325,-3.3951,-3.4532,-3.4104,-3.3968,-3.3725,-3.2957,-3.2929,-3.2631,-3.1358,-3.0512,-3.0032,-3.0109,-3.0958,-3.1795,-3.2369,-3.3596,-3.4545,-3.4685,-3.4925,-3.527,-3.5694,-3.6162,-3.6748,-3.7503,-3.7769,-3.8218,-3.8934,-3.9073,-3.969,-4.1014,-4.1912,-4.2917,-4.4,-4.4001,-4.4109,-4.4388,-4.3348,-4.3937,-4.6031,-4.5817,-4.5802,0.0,0.0,0.0,0.0,-2.7997,0.0,-2.8421,-2.8686,-2.9167,0.0,-3.0515,-3.0702,-3.119,-3.0598,-2.9955,-2.9678,-3.009,-3.0814,-3.1901,-3.2619,0.0,0.0,0.0,0.0,-3.4622,-3.4774,-3.485,-3.4788,-3.4687,-3.4548,-3.4358,-3.4231,-3.4231,-3.4381,-3.4381,-3.4705,-3.5466,-3.5928,-3.6033,-3.5824,-3.566,-3.5101,-3.4203,-3.3791,-3.3314,-3.2896,-3.3925,-3.3254,-3.1424,-3.2084,-3.1186,-2.9339,-2.8979,-2.8837,-2.8837,-2.8779,-2.8897,-2.906,-2.9052,-2.9267,-2.955,-2.955,-2.9608,-2.972,-2.9827,-2.9975,-3.0256,-3.0966,-3.1872,-3.28,-3.3483,-3.4299,-3.487,-3.4614,-3.4383,-3.4306,-3.4684,-3.4863,-3.5056,-3.5389,-3.349,-3.1891,-3.2089,-3.2586,-3.3035,-3.3386,-3.4415,-3.5198,-3.5379,-3.6292,-3.6982,-3.7256,-3.8039,-3.8572,-3.8757,-3.9039,-3.9324,-3.9593,-4.0182,-4.0991,-4.2054,-4.3069,-4.3978,-4.4861,-4.4544,-4.4803,-4.5649,-4.4365,-4.4364,-4.5534,-4.5371,-4.5409,0.0,0.0,0.0,-2.9264,0.0,0.0,0.0,-2.9574,-3.0036,-3.0549,-3.0622,-3.0712,-3.1085,-3.0414,-2.9776,-2.966,-3.0567,-3.1428,-3.1808,-3.2807,-3.3656,0.0,0.0,0.0,-3.4848,-3.4849,-3.483,-3.4768,-3.4666,-3.4602,-3.4602,-3.4668,-3.4691,-3.4691,-3.4198,-3.4242,-3.4857,-3.4966,-3.51,-3.5308,-3.4966,-3.4411,-3.3687,-3.2979,-3.2411,-3.2029,-3.2825,-3.2448,-3.1328,-3.1727,-3.1086,-2.9813,-2.9439,-2.926,-2.9196,-2.9107,-2.9064,-2.916,-2.9603,-2.9925,-3.0224,-3.0695,-3.0942,-3.107,-3.121,-3.1244,-3.1336,-3.1819,-3.2588,-3.3455,-3.4331,-3.5155,-3.581,-3.6084,-3.5985,-3.5937,-3.6227,-3.6667,-3.7137,-3.761,-3.685,-3.5856,-3.5154,-3.5385,-3.5668,-3.5793,-3.6363,-3.6862,-3.7019,-3.7633,-3.8145,-3.849,-3.9102,-3.952,-3.9591,-3.9872,-4.0076,-4.0154,-4.09,-4.1391,-4.1497,-4.3215,-4.455,-4.5384,-4.5726,-4.6145,-4.666,-4.6436,-4.6294,-4.6181,-4.5586,-4.5342,0.0,0.0,0.0,0.0,0.0,-3.0479,0.0,0.0,0.0,0.0,0.0,0.0,0.0,0.0,0.0,0.0,0.0,0.0,0.0,-3.2039,0.0,0.0,0.0,0.0,-3.4394,-3.466,-3.479,-3.4727,-3.4668,-3.4668,-3.4647,-3.4752,-3.4812,-3.4832,-3.4055,-3.3786,-3.4102,-3.4059,-3.4097,-3.4247,-3.4173,-3.3704,-3.2949,-3.2238,-3.1726,-3.1399,-3.1815,-3.1692,-3.1259,-3.134,-3.093,-3.0215,-2.9877,-2.9695,-2.9588,-2.9626,-2.9563,-2.9588,-3.0506,-3.091,-3.1183,-3.1919,-3.2297,-3.2492,-3.2813,-3.2917,-3.2989,-3.3345,-3.3973,-3.4773,-3.5638,-3.6353,-3.6976,-3.7565,-3.7617,-3.7564,-3.764,-3.8192,-3.8744,-3.9001,-3.9576,-3.9585,-3.8107,-3.8109,-3.8302,-3.8232,-3.8389,-3.853,-3.8658,-3.8789,-3.9008,-3.9352,-3.9721,-4.0024,-4.0164,-4.041,-4.0563,-4.0603,-4.1567,-4.1787,-4.0959,-4.3202,-4.4792,-4.5492,-4.6697,-4.738,-4.7549,-4.8338,-4.8236,-4.7319,-4.6402,-4.5992,0.0,0.0,0.0,0.0,-3.051,0.0,0.0,0.0,-2.9404,-2.9396,0.0,0.0,-2.8272,0.0,0.0,0.0,0.0,0.0,-2.9274,-2.9999,-3.0792,-3.1599,0.0,0.0,0.0,-3.4109,-3.4908,-3.4708,-3.4793,-3.4851,-3.4773,-3.4793,-3.4851,-3.4962,-3.4867,-3.4358,-3.3408,-3.4081,-3.3593,-3.1991,-3.2669,-3.2553,-3.1778,-3.1685,-3.1374,-3.0923,-3.1844,-3.1537,-3.0425,-3.129,-3.1142,-3.0355,-3.0066,-2.9962,-3.0022,-3.0646,-3.0862,-3.0885,-3.1636,-3.1937,-3.1974,-3.2088,-3.2315,-3.2752,-3.3659,-3.4012,-3.443,-3.6056,-3.658,-3.6861,-3.7723,-3.8023,-3.8089,-3.8052,-3.8028,-3.8196,-3.8824,-3.9154,-3.949,-4.0169,-4.0409,-4.0299,-3.9643,-3.947,-3.9425,-3.943,-3.9282,-3.9227,-3.9357,-3.9458,-3.9556,-3.9739,-4.0001,-4.0248,-4.0427,-4.0604,-4.0761,-4.0932,-4.2485,-4.3001,-4.2142,-4.3741,-4.4715,-4.48,-4.6455,-4.7689,-4.8438,-4.8684,-4.8691,-4.8498,-4.8253,-4.8176,0.0,0.0,0.0,0.0,0.0,0.0,-3.0565,0.0,-2.9809,0.0,0.0,0.0,0.0,0.0,0.0,0.0,-2.8339,0.0,0.0,0.0,-3.0038,0.0,0.0,0.0,0.0,0.0,0.0,0.0,-3.4259,-3.4263,-3.4774,-3.4963,-3.5083,-3.5228,-3.4808,-3.4088,-3.3073,-3.3339,-3.2765,-3.143,-3.177,-3.1751,-3.1411,-3.0937,-3.0658,-3.0547,-3.0997,-3.0881,-3.0429,-3.133,-3.1484,-3.1148,-3.1034,-3.0934,-3.0897,-3.1131,-3.1469,-3.1899,-3.2619,-3.294,-3.3203,-3.4352,-3.4824,-3.5172,-3.6138,-3.6505,-3.6784,-3.7536,-3.7755,-3.7949,-3.8777,-3.8991,-3.911,-3.9566,-3.968,-3.9758,-4.0119,-4.0134,-4.0203,-4.0607,-4.0604,-4.0472,-4.0233,-4.0061,-3.9907,-3.9783,-3.9595,-3.9502,-3.9551,-3.9575,-3.9717,-4.0,-4.012,-4.0283,-4.0477,-4.0616,-4.0752,-4.0877,-4.1634,-4.2578,-4.3643,-4.385,-4.4408,-4.5385,-4.7151,-4.8258,-4.8662,-4.9763,-5.0289,-5.0234,-4.9163,-4.8651,-3.1378,0.0,0.0,0.0,0.0,0.0,0.0,0.0,0.0,0.0,0.0,0.0,0.0,0.0,-2.8129,-2.8551,0.0,-2.8319,0.0,-2.8309,0.0,0.0,0.0,0.0,0.0,0.0,0.0,-3.3552,-3.3315,-3.3564,-3.4491,-3.4727,-3.504,-3.547,-3.4963,-3.4133,-3.2967,-3.2865,-3.2215,-3.1083,-3.1078,-3.1078,-3.1064,-3.0477,-3.0266,-3.0356,-3.0419,-3.046,-3.0558,-3.1399,-3.1733,-3.1746,-3.1965,-3.2148,-3.2223,-3.1867,-3.2218,-3.2961,-3.3688,-3.4196,-3.4737,-3.6128,-3.6776,-3.717,-3.8157,-3.8686,-3.9015,-3.9319,-3.9563,-3.9895,-4.0476,-4.0446,-4.0442,-4.1057,-4.1033,-4.0907,-4.0941,-4.0801,-4.0665,-4.0718,-4.05,-4.0342,-4.0334,-4.03,-4.0211,-4.0043,-3.9859,-3.9735,-3.9735,-3.9712,-3.9785,-4.008,-4.012,-4.0193,-4.0399,-4.0538,-4.077,-4.113,-4.1269,-4.2249,-4.4286,-4.3957,-4.4408,-4.5866,-4.7679,-4.873,-4.9022,-5.0606,-5.139,-5.1375,-5.0072,-4.9449,0.0,0.0,0.0,-3.1017,0.0,0.0,0.0,0.0,-3.0292,0.0,0.0,0.0,0.0,0.0,-2.9017,-3.0056,-2.8233,0.0,0.0,0.0,0.0,0.0,0.0,0.0,0.0,0.0,-3.1265,-3.1035,-3.1953,-3.2934,-3.3872,-3.3932,-3.4483,-3.5654,-3.5679,-3.4817,-3.3103,-3.3089,-3.222,-3.0527,-3.052,-3.054,-3.0507,-3.0511,-3.0492,-3.0492,-3.0492,-3.0492,-3.0578,-3.1429,-3.1806,-3.1874,-3.2643,-3.3469,-3.4094,-3.3205,-3.3358,-3.418,-3.5026,-3.5839,-3.6511,-3.6588,-3.7086,-3.7874,-3.9013,-3.9952,-4.0826,-4.1876,-4.2789,-4.3439,-4.3457,-4.2846,-4.2223,-4.2243,-4.1661,-4.1085,-4.1085,-4.0932,-4.0729,-4.0552,-4.0204,-3.9906,-3.9935,-4.0196,-4.037,-4.03,-4.0158,-4.0077,-4.0077,-3.9954,-3.9889,-3.9911,-3.9911,-4.0,-4.0193,-4.0317,-4.0868,-4.1986,-4.2129,-4.2576,-4.3499,-4.4201,-4.4968,-4.5874,-4.7673,-4.9026,-4.9856,-5.0837,-5.1343,-5.139,-5.1283,-5.1258,0.0,0.0,-3.341,-3.1955,0.0,0.0,0.0,0.0,0.0,0.0,0.0,0.0,0.0,0.0,-2.9798,-3.0348,-2.9279,-2.8525,0.0,0.0,0.0,0.0,0.0,0.0,0.0,0.0,0.0,-3.0865,-3.137,-3.2298,-3.383,-3.4031,-3.4616,-3.5737,-3.5776,-3.4941,-3.3253,-3.3142,-3.2232,-3.0492,-3.0492,-3.0492,-3.0492,-3.0548,-3.0565,-3.0565,-3.0618,-3.0618,-3.0681,-3.2134,-3.2697,-3.2745,-3.3594,-3.4461,-3.5114,-3.4176,-3.4364,-3.5136,-3.548,-3.6107,-3.6832,-3.7462,-3.8215,-3.918,-4.0726,-4.145,-4.1954,-4.29,-4.3377,-4.3599,-4.3593,-4.3375,-4.315,-4.3158,-4.2512,-4.189,-4.189,-4.133,-4.0904,-4.1233,-4.0658,-4.0234,-4.0672,-4.0459,-4.0196,-4.0158,-4.0138,-4.0117,-4.0117,-3.9975,-3.9889,-3.9889,-3.9889,-3.9956,-4.0119,-4.0784,-4.1647,-4.2707,-4.2742,-4.3097,-4.3933,-4.4331,-4.5212,-4.6668,-4.7988,-4.9121,-5.0024,-5.0932,-5.1384,-5.1395,-5.1331,-5.1304,-3.3851,-3.4173,0.0,-3.281,-3.2689,0.0,-3.1373,0.0,0.0,0.0,0.0,0.0,0.0,0.0,-3.0312,-3.0848,-2.9997,-2.9207,0.0,-2.8221,0.0,0.0,0.0,0.0,0.0,-2.8627,-2.9364,-3.0137,-3.0595,-3.1645,0.0,0.0,-3.4406,-3.5784,-3.5521,-3.4703,-3.3315,-3.2915,-3.197,-3.0548,-3.0565,-3.0565,-3.0548,-3.0591,-3.0634,-3.0634,-3.0683,-3.0858,-3.1208,-3.264,-3.3372,-3.3684,-3.4555,-3.525,-3.5615,-3.4687,-3.4912,-3.5728,-3.6085,-3.6716,-3.7501,-3.8371,-3.9437,-4.056,-4.1718,-4.2567,-4.3237,-4.3857,-4.4261,-4.4528,-4.4524,-4.4293,-4.4067,-4.4055,-4.3409,-4.2767,-4.2767,-4.2205,-4.172,-4.1828,-4.1439,-4.113,-4.1279,-4.086,-4.0423,-4.0136,-4.0117,-4.0117,-4.0117,-3.9975,-3.9933,-3.9998,-4.0019,-4.0213,-4.071,-4.1562,-4.2505,-4.3501,-4.3443,-4.3882,-4.5012,-4.5196,-4.6275,-4.8379,-4.884,-4.9681,-5.1,-5.1249,-5.1379,-5.1391,-5.1336,-5.1139]}]]